<?xml version="1.0" encoding="UTF-8" standalone="no" ?>
<gpx xmlns="http://www.topografix.com/GPX/1/1" xmlns:xsi="http://www.w3.org/2001/XMLSchema-instance" xsi:schemaLocation="http://www.topografix.com/GPX/1/1 http://www.topografix.com/GPX/1/1/gpx.xsd" version="1.1" creator="VisuGPX - https://www.visugpx.com">
  <metadata>
    <name>Lugagnac et son riche patrimoine rural</name>
    <desc><![CDATA[Boucle autour de Lugagnac passant par des puits, des "lacs" et de beaux sentiers bordés de murets typiques.]]></desc>
  </metadata>
  <trk>
    <name><![CDATA[Lugagnac et son riche patrimoine rural_1]]></name>
    <trkseg>
      <trkpt lat="44.40868" lon="1.73548">
        <ele>325.3</ele>
        <time>2022-06-05T12:43:58Z</time>
      </trkpt>
      <trkpt lat="44.40871" lon="1.73542">
        <ele>322</ele>
        <time>2022-06-05T12:44:27Z</time>
      </trkpt>
      <trkpt lat="44.40875" lon="1.73538">
        <ele>321.7</ele>
        <time>2022-06-05T12:44:36Z</time>
      </trkpt>
      <trkpt lat="44.40878" lon="1.73533">
        <ele>320.8</ele>
        <time>2022-06-05T12:44:44Z</time>
      </trkpt>
      <trkpt lat="44.40881" lon="1.73527">
        <ele>319.7</ele>
        <time>2022-06-05T12:44:51Z</time>
      </trkpt>
      <trkpt lat="44.40882" lon="1.73521">
        <ele>319.4</ele>
        <time>2022-06-05T12:44:57Z</time>
      </trkpt>
      <trkpt lat="44.40884" lon="1.73514">
        <ele>320.1</ele>
        <time>2022-06-05T12:45:03Z</time>
      </trkpt>
      <trkpt lat="44.40886" lon="1.73508">
        <ele>320.3</ele>
        <time>2022-06-05T12:45:08Z</time>
      </trkpt>
      <trkpt lat="44.40887" lon="1.73502">
        <ele>319.1</ele>
        <time>2022-06-05T12:45:13Z</time>
      </trkpt>
      <trkpt lat="44.40891" lon="1.73497">
        <ele>318.7</ele>
        <time>2022-06-05T12:45:18Z</time>
      </trkpt>
      <trkpt lat="44.40895" lon="1.73493">
        <ele>318.9</ele>
        <time>2022-06-05T12:45:23Z</time>
      </trkpt>
      <trkpt lat="44.40898" lon="1.73488">
        <ele>319.8</ele>
        <time>2022-06-05T12:45:28Z</time>
      </trkpt>
      <trkpt lat="44.40902" lon="1.73482">
        <ele>319.5</ele>
        <time>2022-06-05T12:45:33Z</time>
      </trkpt>
      <trkpt lat="44.40904" lon="1.73477">
        <ele>319.2</ele>
        <time>2022-06-05T12:45:37Z</time>
      </trkpt>
      <trkpt lat="44.40909" lon="1.73472">
        <ele>318.8</ele>
        <time>2022-06-05T12:45:42Z</time>
      </trkpt>
      <trkpt lat="44.40912" lon="1.73467">
        <ele>318.9</ele>
        <time>2022-06-05T12:45:47Z</time>
      </trkpt>
      <trkpt lat="44.40917" lon="1.73463">
        <ele>319.1</ele>
        <time>2022-06-05T12:45:52Z</time>
      </trkpt>
      <trkpt lat="44.40921" lon="1.73458">
        <ele>318.5</ele>
        <time>2022-06-05T12:45:57Z</time>
      </trkpt>
      <trkpt lat="44.40925" lon="1.73454">
        <ele>318.4</ele>
        <time>2022-06-05T12:46:02Z</time>
      </trkpt>
      <trkpt lat="44.40928" lon="1.73449">
        <ele>318.4</ele>
        <time>2022-06-05T12:46:08Z</time>
      </trkpt>
      <trkpt lat="44.40932" lon="1.73444">
        <ele>318.7</ele>
        <time>2022-06-05T12:46:13Z</time>
      </trkpt>
      <trkpt lat="44.40935" lon="1.73438">
        <ele>318.2</ele>
        <time>2022-06-05T12:46:18Z</time>
      </trkpt>
      <trkpt lat="44.40938" lon="1.73433">
        <ele>317.7</ele>
        <time>2022-06-05T12:46:22Z</time>
      </trkpt>
      <trkpt lat="44.40941" lon="1.73428">
        <ele>317.2</ele>
        <time>2022-06-05T12:46:27Z</time>
      </trkpt>
      <trkpt lat="44.40944" lon="1.73422">
        <ele>316.9</ele>
        <time>2022-06-05T12:46:32Z</time>
      </trkpt>
      <trkpt lat="44.40947" lon="1.73417">
        <ele>316.5</ele>
        <time>2022-06-05T12:46:36Z</time>
      </trkpt>
      <trkpt lat="44.4095" lon="1.73412">
        <ele>315.7</ele>
        <time>2022-06-05T12:46:40Z</time>
      </trkpt>
      <trkpt lat="44.40954" lon="1.73406">
        <ele>315.2</ele>
        <time>2022-06-05T12:46:45Z</time>
      </trkpt>
      <trkpt lat="44.40957" lon="1.734">
        <ele>315.9</ele>
        <time>2022-06-05T12:46:50Z</time>
      </trkpt>
      <trkpt lat="44.40958" lon="1.73393">
        <ele>316.8</ele>
        <time>2022-06-05T12:46:55Z</time>
      </trkpt>
      <trkpt lat="44.40959" lon="1.73386">
        <ele>318.3</ele>
        <time>2022-06-05T12:47:01Z</time>
      </trkpt>
      <trkpt lat="44.40961" lon="1.7338">
        <ele>319.3</ele>
        <time>2022-06-05T12:47:06Z</time>
      </trkpt>
      <trkpt lat="44.40962" lon="1.73373">
        <ele>319.9</ele>
        <time>2022-06-05T12:47:11Z</time>
      </trkpt>
      <trkpt lat="44.40962" lon="1.73366">
        <ele>320.4</ele>
        <time>2022-06-05T12:47:15Z</time>
      </trkpt>
      <trkpt lat="44.40963" lon="1.7336">
        <ele>320.6</ele>
        <time>2022-06-05T12:47:19Z</time>
      </trkpt>
      <trkpt lat="44.40965" lon="1.73354">
        <ele>320.3</ele>
        <time>2022-06-05T12:47:25Z</time>
      </trkpt>
      <trkpt lat="44.4096" lon="1.73354">
        <ele>319.2</ele>
        <time>2022-06-05T12:47:46Z</time>
      </trkpt>
      <trkpt lat="44.40964" lon="1.73349">
        <ele>318.8</ele>
        <time>2022-06-05T12:48:03Z</time>
      </trkpt>
      <trkpt lat="44.40968" lon="1.73344">
        <ele>320</ele>
        <time>2022-06-05T12:48:08Z</time>
      </trkpt>
      <trkpt lat="44.40971" lon="1.73339">
        <ele>320.8</ele>
        <time>2022-06-05T12:48:18Z</time>
      </trkpt>
      <trkpt lat="44.4097" lon="1.73332">
        <ele>322.3</ele>
        <time>2022-06-05T12:48:30Z</time>
      </trkpt>
      <trkpt lat="44.40969" lon="1.73326">
        <ele>323.1</ele>
        <time>2022-06-05T12:48:37Z</time>
      </trkpt>
      <trkpt lat="44.40969" lon="1.73319">
        <ele>324.4</ele>
        <time>2022-06-05T12:48:43Z</time>
      </trkpt>
      <trkpt lat="44.4097" lon="1.73313">
        <ele>325.4</ele>
        <time>2022-06-05T12:48:49Z</time>
      </trkpt>
      <trkpt lat="44.40972" lon="1.73306">
        <ele>325.5</ele>
        <time>2022-06-05T12:48:56Z</time>
      </trkpt>
      <trkpt lat="44.40973" lon="1.73299">
        <ele>325.6</ele>
        <time>2022-06-05T12:49:04Z</time>
      </trkpt>
      <trkpt lat="44.40974" lon="1.73293">
        <ele>324.6</ele>
        <time>2022-06-05T12:49:11Z</time>
      </trkpt>
      <trkpt lat="44.40976" lon="1.73286">
        <ele>325.3</ele>
        <time>2022-06-05T12:49:17Z</time>
      </trkpt>
      <trkpt lat="44.40974" lon="1.7328">
        <ele>327</ele>
        <time>2022-06-05T12:49:23Z</time>
      </trkpt>
      <trkpt lat="44.40971" lon="1.73274">
        <ele>327.3</ele>
        <time>2022-06-05T12:49:29Z</time>
      </trkpt>
      <trkpt lat="44.4097" lon="1.73267">
        <ele>326.4</ele>
        <time>2022-06-05T12:49:35Z</time>
      </trkpt>
      <trkpt lat="44.40966" lon="1.73263">
        <ele>326.2</ele>
        <time>2022-06-05T12:49:41Z</time>
      </trkpt>
      <trkpt lat="44.40962" lon="1.73258">
        <ele>327.1</ele>
        <time>2022-06-05T12:49:46Z</time>
      </trkpt>
      <trkpt lat="44.40959" lon="1.73254">
        <ele>326.7</ele>
        <time>2022-06-05T12:49:51Z</time>
      </trkpt>
      <trkpt lat="44.40955" lon="1.73249">
        <ele>325.5</ele>
        <time>2022-06-05T12:49:57Z</time>
      </trkpt>
      <trkpt lat="44.40953" lon="1.73244">
        <ele>324.6</ele>
        <time>2022-06-05T12:50:01Z</time>
      </trkpt>
      <trkpt lat="44.40952" lon="1.73237">
        <ele>324.3</ele>
        <time>2022-06-05T12:50:06Z</time>
      </trkpt>
      <trkpt lat="44.40954" lon="1.7323">
        <ele>323.6</ele>
        <time>2022-06-05T12:50:11Z</time>
      </trkpt>
      <trkpt lat="44.40956" lon="1.73223">
        <ele>323</ele>
        <time>2022-06-05T12:50:16Z</time>
      </trkpt>
      <trkpt lat="44.40958" lon="1.73217">
        <ele>323.2</ele>
        <time>2022-06-05T12:50:21Z</time>
      </trkpt>
      <trkpt lat="44.40962" lon="1.73211">
        <ele>323.5</ele>
        <time>2022-06-05T12:50:26Z</time>
      </trkpt>
      <trkpt lat="44.40966" lon="1.73207">
        <ele>322.8</ele>
        <time>2022-06-05T12:50:32Z</time>
      </trkpt>
      <trkpt lat="44.40969" lon="1.73203">
        <ele>323.4</ele>
        <time>2022-06-05T12:50:37Z</time>
      </trkpt>
      <trkpt lat="44.40972" lon="1.73197">
        <ele>323.9</ele>
        <time>2022-06-05T12:50:42Z</time>
      </trkpt>
      <trkpt lat="44.40976" lon="1.73192">
        <ele>323.7</ele>
        <time>2022-06-05T12:50:47Z</time>
      </trkpt>
      <trkpt lat="44.40979" lon="1.73188">
        <ele>322.7</ele>
        <time>2022-06-05T12:50:52Z</time>
      </trkpt>
      <trkpt lat="44.4098" lon="1.73181">
        <ele>320.9</ele>
        <time>2022-06-05T12:51:01Z</time>
      </trkpt>
      <trkpt lat="44.40985" lon="1.73178">
        <ele>319.7</ele>
        <time>2022-06-05T12:51:08Z</time>
      </trkpt>
      <trkpt lat="44.4099" lon="1.73179">
        <ele>321</ele>
        <time>2022-06-05T12:51:15Z</time>
      </trkpt>
      <trkpt lat="44.40995" lon="1.73179">
        <ele>323.4</ele>
        <time>2022-06-05T12:51:25Z</time>
      </trkpt>
      <trkpt lat="44.41" lon="1.7318">
        <ele>325.1</ele>
        <time>2022-06-05T12:51:35Z</time>
      </trkpt>
      <trkpt lat="44.41004" lon="1.73182">
        <ele>326.3</ele>
        <time>2022-06-05T12:51:43Z</time>
      </trkpt>
      <trkpt lat="44.41009" lon="1.73184">
        <ele>326.5</ele>
        <time>2022-06-05T12:51:50Z</time>
      </trkpt>
      <trkpt lat="44.41014" lon="1.73186">
        <ele>327.4</ele>
        <time>2022-06-05T12:52:00Z</time>
      </trkpt>
      <trkpt lat="44.41018" lon="1.73187">
        <ele>327.8</ele>
        <time>2022-06-05T12:52:10Z</time>
      </trkpt>
      <trkpt lat="44.41023" lon="1.7319">
        <ele>328.1</ele>
        <time>2022-06-05T12:52:23Z</time>
      </trkpt>
      <trkpt lat="44.41027" lon="1.73193">
        <ele>328.2</ele>
        <time>2022-06-05T12:52:31Z</time>
      </trkpt>
      <trkpt lat="44.41031" lon="1.73196">
        <ele>325.4</ele>
        <time>2022-06-05T12:53:19Z</time>
      </trkpt>
      <trkpt lat="44.41033" lon="1.73201">
        <ele>324.3</ele>
        <time>2022-06-05T12:53:40Z</time>
      </trkpt>
      <trkpt lat="44.41034" lon="1.73208">
        <ele>325.1</ele>
        <time>2022-06-05T12:53:46Z</time>
      </trkpt>
      <trkpt lat="44.41032" lon="1.73215">
        <ele>325.2</ele>
        <time>2022-06-05T12:53:51Z</time>
      </trkpt>
      <trkpt lat="44.41029" lon="1.73219">
        <ele>324.5</ele>
        <time>2022-06-05T12:53:56Z</time>
      </trkpt>
      <trkpt lat="44.41024" lon="1.73219">
        <ele>329.1</ele>
        <time>2022-06-05T12:56:05Z</time>
      </trkpt>
      <trkpt lat="44.41029" lon="1.73217">
        <ele>328.3</ele>
        <time>2022-06-05T12:57:13Z</time>
      </trkpt>
      <trkpt lat="44.41031" lon="1.73211">
        <ele>328.7</ele>
        <time>2022-06-05T12:57:22Z</time>
      </trkpt>
      <trkpt lat="44.41035" lon="1.73206">
        <ele>328</ele>
        <time>2022-06-05T12:57:28Z</time>
      </trkpt>
      <trkpt lat="44.41037" lon="1.73201">
        <ele>327.6</ele>
        <time>2022-06-05T12:57:33Z</time>
      </trkpt>
      <trkpt lat="44.4104" lon="1.73195">
        <ele>327.4</ele>
        <time>2022-06-05T12:57:39Z</time>
      </trkpt>
      <trkpt lat="44.41044" lon="1.73191">
        <ele>328.1</ele>
        <time>2022-06-05T12:57:46Z</time>
      </trkpt>
      <trkpt lat="44.41047" lon="1.73186">
        <ele>327.7</ele>
        <time>2022-06-05T12:57:54Z</time>
      </trkpt>
      <trkpt lat="44.4105" lon="1.73181">
        <ele>328.4</ele>
        <time>2022-06-05T12:57:58Z</time>
      </trkpt>
      <trkpt lat="44.41054" lon="1.73177">
        <ele>328.3</ele>
        <time>2022-06-05T12:58:04Z</time>
      </trkpt>
      <trkpt lat="44.41057" lon="1.73172">
        <ele>327.3</ele>
        <time>2022-06-05T12:58:09Z</time>
      </trkpt>
      <trkpt lat="44.41061" lon="1.73167">
        <ele>326.4</ele>
        <time>2022-06-05T12:58:15Z</time>
      </trkpt>
      <trkpt lat="44.41064" lon="1.73163">
        <ele>326.9</ele>
        <time>2022-06-05T12:58:20Z</time>
      </trkpt>
      <trkpt lat="44.41069" lon="1.73159">
        <ele>327.2</ele>
        <time>2022-06-05T12:58:26Z</time>
      </trkpt>
      <trkpt lat="44.41073" lon="1.73154">
        <ele>326.5</ele>
        <time>2022-06-05T12:58:32Z</time>
      </trkpt>
      <trkpt lat="44.41076" lon="1.73149">
        <ele>325.4</ele>
        <time>2022-06-05T12:58:38Z</time>
      </trkpt>
      <trkpt lat="44.4108" lon="1.73144">
        <ele>324.6</ele>
        <time>2022-06-05T12:58:44Z</time>
      </trkpt>
      <trkpt lat="44.41082" lon="1.73138">
        <ele>324.1</ele>
        <time>2022-06-05T12:58:49Z</time>
      </trkpt>
      <trkpt lat="44.41086" lon="1.73133">
        <ele>323.9</ele>
        <time>2022-06-05T12:58:54Z</time>
      </trkpt>
      <trkpt lat="44.41089" lon="1.73128">
        <ele>323.9</ele>
        <time>2022-06-05T12:58:59Z</time>
      </trkpt>
      <trkpt lat="44.41092" lon="1.73121">
        <ele>324.1</ele>
        <time>2022-06-05T12:59:05Z</time>
      </trkpt>
      <trkpt lat="44.41094" lon="1.73115">
        <ele>324.8</ele>
        <time>2022-06-05T12:59:10Z</time>
      </trkpt>
      <trkpt lat="44.41096" lon="1.73108">
        <ele>325.2</ele>
        <time>2022-06-05T12:59:16Z</time>
      </trkpt>
      <trkpt lat="44.41098" lon="1.73102">
        <ele>324.7</ele>
        <time>2022-06-05T12:59:21Z</time>
      </trkpt>
      <trkpt lat="44.41099" lon="1.73095">
        <ele>324.1</ele>
        <time>2022-06-05T12:59:26Z</time>
      </trkpt>
      <trkpt lat="44.411" lon="1.73089">
        <ele>323.2</ele>
        <time>2022-06-05T12:59:31Z</time>
      </trkpt>
      <trkpt lat="44.41102" lon="1.73082">
        <ele>323</ele>
        <time>2022-06-05T12:59:36Z</time>
      </trkpt>
      <trkpt lat="44.41103" lon="1.73076">
        <ele>323</ele>
        <time>2022-06-05T12:59:41Z</time>
      </trkpt>
      <trkpt lat="44.41105" lon="1.73069">
        <ele>323</ele>
        <time>2022-06-05T12:59:46Z</time>
      </trkpt>
      <trkpt lat="44.41107" lon="1.73063">
        <ele>323.6</ele>
        <time>2022-06-05T12:59:51Z</time>
      </trkpt>
      <trkpt lat="44.4111" lon="1.73057">
        <ele>323.8</ele>
        <time>2022-06-05T12:59:56Z</time>
      </trkpt>
      <trkpt lat="44.41114" lon="1.73053">
        <ele>322.3</ele>
        <time>2022-06-05T13:00:01Z</time>
      </trkpt>
      <trkpt lat="44.41119" lon="1.7305">
        <ele>320</ele>
        <time>2022-06-05T13:00:06Z</time>
      </trkpt>
      <trkpt lat="44.41122" lon="1.73046">
        <ele>317.4</ele>
        <time>2022-06-05T13:00:12Z</time>
      </trkpt>
      <trkpt lat="44.41127" lon="1.73043">
        <ele>314.8</ele>
        <time>2022-06-05T13:00:19Z</time>
      </trkpt>
      <trkpt lat="44.41131" lon="1.7304">
        <ele>313.3</ele>
        <time>2022-06-05T13:00:24Z</time>
      </trkpt>
      <trkpt lat="44.41135" lon="1.73035">
        <ele>312.1</ele>
        <time>2022-06-05T13:00:29Z</time>
      </trkpt>
      <trkpt lat="44.41138" lon="1.73029">
        <ele>310.9</ele>
        <time>2022-06-05T13:00:35Z</time>
      </trkpt>
      <trkpt lat="44.41142" lon="1.73027">
        <ele>310.7</ele>
        <time>2022-06-05T13:00:40Z</time>
      </trkpt>
      <trkpt lat="44.41147" lon="1.73025">
        <ele>308.8</ele>
        <time>2022-06-05T13:00:48Z</time>
      </trkpt>
      <trkpt lat="44.41151" lon="1.73021">
        <ele>308.2</ele>
        <time>2022-06-05T13:00:54Z</time>
      </trkpt>
      <trkpt lat="44.41155" lon="1.73017">
        <ele>308.3</ele>
        <time>2022-06-05T13:00:59Z</time>
      </trkpt>
      <trkpt lat="44.41159" lon="1.73013">
        <ele>309.3</ele>
        <time>2022-06-05T13:01:04Z</time>
      </trkpt>
      <trkpt lat="44.41163" lon="1.7301">
        <ele>308.7</ele>
        <time>2022-06-05T13:01:10Z</time>
      </trkpt>
      <trkpt lat="44.41168" lon="1.73009">
        <ele>307.7</ele>
        <time>2022-06-05T13:01:15Z</time>
      </trkpt>
      <trkpt lat="44.41173" lon="1.73007">
        <ele>306.6</ele>
        <time>2022-06-05T13:01:21Z</time>
      </trkpt>
      <trkpt lat="44.41177" lon="1.73004">
        <ele>305.9</ele>
        <time>2022-06-05T13:01:27Z</time>
      </trkpt>
      <trkpt lat="44.41182" lon="1.73003">
        <ele>304.3</ele>
        <time>2022-06-05T13:01:33Z</time>
      </trkpt>
      <trkpt lat="44.41187" lon="1.73001">
        <ele>303</ele>
        <time>2022-06-05T13:01:39Z</time>
      </trkpt>
      <trkpt lat="44.41192" lon="1.72999">
        <ele>301.7</ele>
        <time>2022-06-05T13:01:44Z</time>
      </trkpt>
      <trkpt lat="44.41196" lon="1.72997">
        <ele>302</ele>
        <time>2022-06-05T13:01:49Z</time>
      </trkpt>
      <trkpt lat="44.41201" lon="1.72994">
        <ele>302.4</ele>
        <time>2022-06-05T13:01:54Z</time>
      </trkpt>
      <trkpt lat="44.41206" lon="1.72991">
        <ele>302.6</ele>
        <time>2022-06-05T13:01:59Z</time>
      </trkpt>
      <trkpt lat="44.4121" lon="1.7299">
        <ele>301.4</ele>
        <time>2022-06-05T13:02:04Z</time>
      </trkpt>
      <trkpt lat="44.41216" lon="1.7299">
        <ele>300.8</ele>
        <time>2022-06-05T13:02:09Z</time>
      </trkpt>
      <trkpt lat="44.4122" lon="1.7299">
        <ele>300.4</ele>
        <time>2022-06-05T13:02:14Z</time>
      </trkpt>
      <trkpt lat="44.41225" lon="1.72989">
        <ele>299.4</ele>
        <time>2022-06-05T13:02:20Z</time>
      </trkpt>
      <trkpt lat="44.4123" lon="1.72988">
        <ele>297.5</ele>
        <time>2022-06-05T13:02:26Z</time>
      </trkpt>
      <trkpt lat="44.41235" lon="1.72988">
        <ele>296.5</ele>
        <time>2022-06-05T13:02:31Z</time>
      </trkpt>
      <trkpt lat="44.41239" lon="1.72988">
        <ele>296.1</ele>
        <time>2022-06-05T13:02:37Z</time>
      </trkpt>
      <trkpt lat="44.41244" lon="1.72989">
        <ele>295.6</ele>
        <time>2022-06-05T13:02:44Z</time>
      </trkpt>
      <trkpt lat="44.4125" lon="1.7299">
        <ele>294.4</ele>
        <time>2022-06-05T13:02:50Z</time>
      </trkpt>
      <trkpt lat="44.41255" lon="1.72992">
        <ele>293.5</ele>
        <time>2022-06-05T13:02:56Z</time>
      </trkpt>
      <trkpt lat="44.4126" lon="1.72993">
        <ele>293.9</ele>
        <time>2022-06-05T13:03:02Z</time>
      </trkpt>
      <trkpt lat="44.41265" lon="1.72994">
        <ele>293.1</ele>
        <time>2022-06-05T13:03:07Z</time>
      </trkpt>
      <trkpt lat="44.41269" lon="1.72995">
        <ele>292.5</ele>
        <time>2022-06-05T13:03:12Z</time>
      </trkpt>
      <trkpt lat="44.41273" lon="1.72998">
        <ele>291.9</ele>
        <time>2022-06-05T13:03:17Z</time>
      </trkpt>
      <trkpt lat="44.41279" lon="1.72999">
        <ele>291.9</ele>
        <time>2022-06-05T13:03:23Z</time>
      </trkpt>
      <trkpt lat="44.41283" lon="1.73001">
        <ele>291.6</ele>
        <time>2022-06-05T13:03:28Z</time>
      </trkpt>
      <trkpt lat="44.41288" lon="1.73002">
        <ele>291.1</ele>
        <time>2022-06-05T13:03:33Z</time>
      </trkpt>
      <trkpt lat="44.41292" lon="1.73004">
        <ele>290.2</ele>
        <time>2022-06-05T13:03:38Z</time>
      </trkpt>
      <trkpt lat="44.41297" lon="1.73006">
        <ele>289.8</ele>
        <time>2022-06-05T13:03:44Z</time>
      </trkpt>
      <trkpt lat="44.41301" lon="1.73009">
        <ele>288</ele>
        <time>2022-06-05T13:03:49Z</time>
      </trkpt>
      <trkpt lat="44.41305" lon="1.73012">
        <ele>287.5</ele>
        <time>2022-06-05T13:03:54Z</time>
      </trkpt>
      <trkpt lat="44.41309" lon="1.73016">
        <ele>286.1</ele>
        <time>2022-06-05T13:03:59Z</time>
      </trkpt>
      <trkpt lat="44.41313" lon="1.7302">
        <ele>283.4</ele>
        <time>2022-06-05T13:04:15Z</time>
      </trkpt>
      <trkpt lat="44.41318" lon="1.73021">
        <ele>284</ele>
        <time>2022-06-05T13:04:59Z</time>
      </trkpt>
      <trkpt lat="44.41322" lon="1.73026">
        <ele>284.4</ele>
        <time>2022-06-05T13:05:08Z</time>
      </trkpt>
      <trkpt lat="44.41324" lon="1.73032">
        <ele>282.8</ele>
        <time>2022-06-05T13:05:21Z</time>
      </trkpt>
      <trkpt lat="44.41329" lon="1.73035">
        <ele>283.9</ele>
        <time>2022-06-05T13:05:28Z</time>
      </trkpt>
      <trkpt lat="44.41333" lon="1.73039">
        <ele>284.9</ele>
        <time>2022-06-05T13:05:33Z</time>
      </trkpt>
      <trkpt lat="44.41337" lon="1.73043">
        <ele>286</ele>
        <time>2022-06-05T13:05:39Z</time>
      </trkpt>
      <trkpt lat="44.41341" lon="1.73048">
        <ele>284.3</ele>
        <time>2022-06-05T13:05:45Z</time>
      </trkpt>
      <trkpt lat="44.41345" lon="1.73052">
        <ele>282.5</ele>
        <time>2022-06-05T13:05:51Z</time>
      </trkpt>
      <trkpt lat="44.41349" lon="1.73056">
        <ele>281.8</ele>
        <time>2022-06-05T13:05:57Z</time>
      </trkpt>
      <trkpt lat="44.41353" lon="1.73059">
        <ele>281.2</ele>
        <time>2022-06-05T13:06:14Z</time>
      </trkpt>
      <trkpt lat="44.41358" lon="1.73056">
        <ele>283.5</ele>
        <time>2022-06-05T13:06:28Z</time>
      </trkpt>
      <trkpt lat="44.41356" lon="1.73063">
        <ele>283.5</ele>
        <time>2022-06-05T13:06:32Z</time>
      </trkpt>
      <trkpt lat="44.41359" lon="1.73069">
        <ele>283.5</ele>
        <time>2022-06-05T13:06:37Z</time>
      </trkpt>
      <trkpt lat="44.41363" lon="1.73073">
        <ele>284.1</ele>
        <time>2022-06-05T13:06:42Z</time>
      </trkpt>
      <trkpt lat="44.41367" lon="1.73078">
        <ele>284.3</ele>
        <time>2022-06-05T13:06:47Z</time>
      </trkpt>
      <trkpt lat="44.41371" lon="1.73081">
        <ele>283.7</ele>
        <time>2022-06-05T13:06:52Z</time>
      </trkpt>
      <trkpt lat="44.41376" lon="1.73083">
        <ele>282.5</ele>
        <time>2022-06-05T13:06:57Z</time>
      </trkpt>
      <trkpt lat="44.41381" lon="1.73083">
        <ele>282</ele>
        <time>2022-06-05T13:07:02Z</time>
      </trkpt>
      <trkpt lat="44.41387" lon="1.73084">
        <ele>281.1</ele>
        <time>2022-06-05T13:07:07Z</time>
      </trkpt>
      <trkpt lat="44.41392" lon="1.73084">
        <ele>280.3</ele>
        <time>2022-06-05T13:07:12Z</time>
      </trkpt>
      <trkpt lat="44.41398" lon="1.73084">
        <ele>279.5</ele>
        <time>2022-06-05T13:07:17Z</time>
      </trkpt>
      <trkpt lat="44.41403" lon="1.73084">
        <ele>278.9</ele>
        <time>2022-06-05T13:07:22Z</time>
      </trkpt>
      <trkpt lat="44.41408" lon="1.73083">
        <ele>277.9</ele>
        <time>2022-06-05T13:07:27Z</time>
      </trkpt>
      <trkpt lat="44.41414" lon="1.73082">
        <ele>276.9</ele>
        <time>2022-06-05T13:07:32Z</time>
      </trkpt>
      <trkpt lat="44.41418" lon="1.73082">
        <ele>276.4</ele>
        <time>2022-06-05T13:07:37Z</time>
      </trkpt>
      <trkpt lat="44.41423" lon="1.73082">
        <ele>276</ele>
        <time>2022-06-05T13:07:43Z</time>
      </trkpt>
      <trkpt lat="44.41426" lon="1.73087">
        <ele>276.9</ele>
        <time>2022-06-05T13:07:49Z</time>
      </trkpt>
      <trkpt lat="44.41426" lon="1.73094">
        <ele>277.5</ele>
        <time>2022-06-05T13:07:55Z</time>
      </trkpt>
      <trkpt lat="44.41426" lon="1.731">
        <ele>277.1</ele>
        <time>2022-06-05T13:08:00Z</time>
      </trkpt>
      <trkpt lat="44.41427" lon="1.73107">
        <ele>276.1</ele>
        <time>2022-06-05T13:08:07Z</time>
      </trkpt>
      <trkpt lat="44.41423" lon="1.73103">
        <ele>274.9</ele>
        <time>2022-06-05T13:08:31Z</time>
      </trkpt>
      <trkpt lat="44.41426" lon="1.73097">
        <ele>275.8</ele>
        <time>2022-06-05T13:08:36Z</time>
      </trkpt>
      <trkpt lat="44.41429" lon="1.73091">
        <ele>276</ele>
        <time>2022-06-05T13:08:42Z</time>
      </trkpt>
      <trkpt lat="44.41433" lon="1.73089">
        <ele>275.5</ele>
        <time>2022-06-05T13:09:16Z</time>
      </trkpt>
      <trkpt lat="44.41438" lon="1.73086">
        <ele>278</ele>
        <time>2022-06-05T13:09:39Z</time>
      </trkpt>
      <trkpt lat="44.4144" lon="1.73092">
        <ele>278.5</ele>
        <time>2022-06-05T13:09:47Z</time>
      </trkpt>
      <trkpt lat="44.41445" lon="1.7309">
        <ele>275.2</ele>
        <time>2022-06-05T13:11:32Z</time>
      </trkpt>
      <trkpt lat="44.41449" lon="1.73086">
        <ele>273.5</ele>
        <time>2022-06-05T13:11:39Z</time>
      </trkpt>
      <trkpt lat="44.41448" lon="1.73079">
        <ele>272.2</ele>
        <time>2022-06-05T13:11:47Z</time>
      </trkpt>
      <trkpt lat="44.41448" lon="1.73072">
        <ele>272.2</ele>
        <time>2022-06-05T13:11:53Z</time>
      </trkpt>
      <trkpt lat="44.41446" lon="1.73066">
        <ele>273</ele>
        <time>2022-06-05T13:12:01Z</time>
      </trkpt>
      <trkpt lat="44.41442" lon="1.73062">
        <ele>274</ele>
        <time>2022-06-05T13:12:09Z</time>
      </trkpt>
      <trkpt lat="44.41445" lon="1.73067">
        <ele>272.8</ele>
        <time>2022-06-05T13:13:49Z</time>
      </trkpt>
      <trkpt lat="44.41447" lon="1.73073">
        <ele>272.3</ele>
        <time>2022-06-05T13:13:55Z</time>
      </trkpt>
      <trkpt lat="44.41448" lon="1.7308">
        <ele>272</ele>
        <time>2022-06-05T13:14:00Z</time>
      </trkpt>
      <trkpt lat="44.41448" lon="1.73086">
        <ele>271.2</ele>
        <time>2022-06-05T13:14:06Z</time>
      </trkpt>
      <trkpt lat="44.41447" lon="1.73093">
        <ele>272.3</ele>
        <time>2022-06-05T13:14:19Z</time>
      </trkpt>
      <trkpt lat="44.41449" lon="1.73098">
        <ele>273.2</ele>
        <time>2022-06-05T13:14:25Z</time>
      </trkpt>
      <trkpt lat="44.41452" lon="1.73103">
        <ele>274</ele>
        <time>2022-06-05T13:14:30Z</time>
      </trkpt>
      <trkpt lat="44.41455" lon="1.73109">
        <ele>273.9</ele>
        <time>2022-06-05T13:14:35Z</time>
      </trkpt>
      <trkpt lat="44.41459" lon="1.73114">
        <ele>274</ele>
        <time>2022-06-05T13:14:40Z</time>
      </trkpt>
      <trkpt lat="44.41462" lon="1.73118">
        <ele>274.2</ele>
        <time>2022-06-05T13:14:46Z</time>
      </trkpt>
      <trkpt lat="44.41466" lon="1.73121">
        <ele>274.6</ele>
        <time>2022-06-05T13:14:52Z</time>
      </trkpt>
      <trkpt lat="44.41469" lon="1.73127">
        <ele>273.3</ele>
        <time>2022-06-05T13:14:59Z</time>
      </trkpt>
      <trkpt lat="44.41473" lon="1.7313">
        <ele>272.7</ele>
        <time>2022-06-05T13:15:04Z</time>
      </trkpt>
      <trkpt lat="44.41477" lon="1.73133">
        <ele>272.5</ele>
        <time>2022-06-05T13:15:09Z</time>
      </trkpt>
      <trkpt lat="44.41482" lon="1.73136">
        <ele>272.7</ele>
        <time>2022-06-05T13:15:14Z</time>
      </trkpt>
      <trkpt lat="44.41487" lon="1.73137">
        <ele>273.4</ele>
        <time>2022-06-05T13:15:19Z</time>
      </trkpt>
      <trkpt lat="44.41492" lon="1.73136">
        <ele>274.1</ele>
        <time>2022-06-05T13:15:24Z</time>
      </trkpt>
      <trkpt lat="44.41496" lon="1.73134">
        <ele>274.1</ele>
        <time>2022-06-05T13:15:29Z</time>
      </trkpt>
      <trkpt lat="44.415" lon="1.7313">
        <ele>273.5</ele>
        <time>2022-06-05T13:15:34Z</time>
      </trkpt>
      <trkpt lat="44.41503" lon="1.73125">
        <ele>273.2</ele>
        <time>2022-06-05T13:15:39Z</time>
      </trkpt>
      <trkpt lat="44.41507" lon="1.7312">
        <ele>272.7</ele>
        <time>2022-06-05T13:15:44Z</time>
      </trkpt>
      <trkpt lat="44.41511" lon="1.73115">
        <ele>272.8</ele>
        <time>2022-06-05T13:15:49Z</time>
      </trkpt>
      <trkpt lat="44.41515" lon="1.7311">
        <ele>272.5</ele>
        <time>2022-06-05T13:15:54Z</time>
      </trkpt>
      <trkpt lat="44.41519" lon="1.73106">
        <ele>272.4</ele>
        <time>2022-06-05T13:15:59Z</time>
      </trkpt>
      <trkpt lat="44.41524" lon="1.73102">
        <ele>272</ele>
        <time>2022-06-05T13:16:04Z</time>
      </trkpt>
      <trkpt lat="44.41528" lon="1.73098">
        <ele>271.2</ele>
        <time>2022-06-05T13:16:08Z</time>
      </trkpt>
      <trkpt lat="44.41533" lon="1.73094">
        <ele>270.2</ele>
        <time>2022-06-05T13:16:13Z</time>
      </trkpt>
      <trkpt lat="44.41537" lon="1.7309">
        <ele>269.5</ele>
        <time>2022-06-05T13:16:17Z</time>
      </trkpt>
      <trkpt lat="44.41541" lon="1.73087">
        <ele>269.1</ele>
        <time>2022-06-05T13:16:21Z</time>
      </trkpt>
      <trkpt lat="44.41545" lon="1.73084">
        <ele>268.8</ele>
        <time>2022-06-05T13:16:25Z</time>
      </trkpt>
      <trkpt lat="44.41549" lon="1.7308">
        <ele>268.2</ele>
        <time>2022-06-05T13:16:29Z</time>
      </trkpt>
      <trkpt lat="44.41554" lon="1.73077">
        <ele>267.6</ele>
        <time>2022-06-05T13:16:34Z</time>
      </trkpt>
      <trkpt lat="44.41559" lon="1.73078">
        <ele>267.3</ele>
        <time>2022-06-05T13:16:39Z</time>
      </trkpt>
      <trkpt lat="44.41564" lon="1.7308">
        <ele>267.5</ele>
        <time>2022-06-05T13:16:44Z</time>
      </trkpt>
      <trkpt lat="44.41567" lon="1.73084">
        <ele>267.5</ele>
        <time>2022-06-05T13:16:49Z</time>
      </trkpt>
      <trkpt lat="44.4157" lon="1.73089">
        <ele>267.9</ele>
        <time>2022-06-05T13:16:54Z</time>
      </trkpt>
      <trkpt lat="44.41575" lon="1.73094">
        <ele>268.4</ele>
        <time>2022-06-05T13:16:59Z</time>
      </trkpt>
      <trkpt lat="44.41578" lon="1.73098">
        <ele>268.3</ele>
        <time>2022-06-05T13:17:03Z</time>
      </trkpt>
      <trkpt lat="44.41582" lon="1.73102">
        <ele>268.3</ele>
        <time>2022-06-05T13:17:07Z</time>
      </trkpt>
      <trkpt lat="44.41586" lon="1.73106">
        <ele>268.3</ele>
        <time>2022-06-05T13:17:11Z</time>
      </trkpt>
      <trkpt lat="44.4159" lon="1.7311">
        <ele>268.6</ele>
        <time>2022-06-05T13:17:15Z</time>
      </trkpt>
      <trkpt lat="44.41594" lon="1.73115">
        <ele>268.6</ele>
        <time>2022-06-05T13:17:20Z</time>
      </trkpt>
      <trkpt lat="44.41597" lon="1.7312">
        <ele>268.9</ele>
        <time>2022-06-05T13:17:25Z</time>
      </trkpt>
      <trkpt lat="44.416" lon="1.73127">
        <ele>269.6</ele>
        <time>2022-06-05T13:17:30Z</time>
      </trkpt>
      <trkpt lat="44.41602" lon="1.73133">
        <ele>269.9</ele>
        <time>2022-06-05T13:17:34Z</time>
      </trkpt>
      <trkpt lat="44.41603" lon="1.7314">
        <ele>270.6</ele>
        <time>2022-06-05T13:17:39Z</time>
      </trkpt>
      <trkpt lat="44.41604" lon="1.73148">
        <ele>271.1</ele>
        <time>2022-06-05T13:17:44Z</time>
      </trkpt>
      <trkpt lat="44.41604" lon="1.73154">
        <ele>271.8</ele>
        <time>2022-06-05T13:17:48Z</time>
      </trkpt>
      <trkpt lat="44.41603" lon="1.73161">
        <ele>272.5</ele>
        <time>2022-06-05T13:17:52Z</time>
      </trkpt>
      <trkpt lat="44.41602" lon="1.73167">
        <ele>272.9</ele>
        <time>2022-06-05T13:17:56Z</time>
      </trkpt>
      <trkpt lat="44.41601" lon="1.73174">
        <ele>273.1</ele>
        <time>2022-06-05T13:18:00Z</time>
      </trkpt>
      <trkpt lat="44.41599" lon="1.7318">
        <ele>273</ele>
        <time>2022-06-05T13:18:04Z</time>
      </trkpt>
      <trkpt lat="44.41598" lon="1.73186">
        <ele>273.4</ele>
        <time>2022-06-05T13:18:08Z</time>
      </trkpt>
      <trkpt lat="44.41597" lon="1.73193">
        <ele>274.2</ele>
        <time>2022-06-05T13:18:13Z</time>
      </trkpt>
      <trkpt lat="44.41597" lon="1.73201">
        <ele>275.4</ele>
        <time>2022-06-05T13:18:18Z</time>
      </trkpt>
      <trkpt lat="44.41596" lon="1.73208">
        <ele>276.1</ele>
        <time>2022-06-05T13:18:23Z</time>
      </trkpt>
      <trkpt lat="44.41598" lon="1.73215">
        <ele>275.7</ele>
        <time>2022-06-05T13:18:28Z</time>
      </trkpt>
      <trkpt lat="44.41599" lon="1.73222">
        <ele>275.3</ele>
        <time>2022-06-05T13:18:33Z</time>
      </trkpt>
      <trkpt lat="44.41599" lon="1.73229">
        <ele>275.1</ele>
        <time>2022-06-05T13:18:38Z</time>
      </trkpt>
      <trkpt lat="44.41598" lon="1.73236">
        <ele>275.1</ele>
        <time>2022-06-05T13:18:42Z</time>
      </trkpt>
      <trkpt lat="44.41599" lon="1.73242">
        <ele>274.9</ele>
        <time>2022-06-05T13:18:46Z</time>
      </trkpt>
      <trkpt lat="44.41599" lon="1.73249">
        <ele>274.9</ele>
        <time>2022-06-05T13:18:50Z</time>
      </trkpt>
      <trkpt lat="44.416" lon="1.73255">
        <ele>275.4</ele>
        <time>2022-06-05T13:18:54Z</time>
      </trkpt>
      <trkpt lat="44.416" lon="1.73262">
        <ele>276</ele>
        <time>2022-06-05T13:18:58Z</time>
      </trkpt>
      <trkpt lat="44.41602" lon="1.73268">
        <ele>276.5</ele>
        <time>2022-06-05T13:19:02Z</time>
      </trkpt>
      <trkpt lat="44.41603" lon="1.73275">
        <ele>276.9</ele>
        <time>2022-06-05T13:19:06Z</time>
      </trkpt>
      <trkpt lat="44.41605" lon="1.73282">
        <ele>277</ele>
        <time>2022-06-05T13:19:11Z</time>
      </trkpt>
      <trkpt lat="44.41607" lon="1.73289">
        <ele>276.9</ele>
        <time>2022-06-05T13:19:16Z</time>
      </trkpt>
      <trkpt lat="44.41609" lon="1.73296">
        <ele>276.9</ele>
        <time>2022-06-05T13:19:21Z</time>
      </trkpt>
      <trkpt lat="44.41612" lon="1.73302">
        <ele>276.9</ele>
        <time>2022-06-05T13:19:26Z</time>
      </trkpt>
      <trkpt lat="44.41615" lon="1.73309">
        <ele>277.4</ele>
        <time>2022-06-05T13:19:31Z</time>
      </trkpt>
      <trkpt lat="44.41617" lon="1.73314">
        <ele>277.2</ele>
        <time>2022-06-05T13:19:35Z</time>
      </trkpt>
      <trkpt lat="44.41619" lon="1.73321">
        <ele>277.2</ele>
        <time>2022-06-05T13:19:40Z</time>
      </trkpt>
      <trkpt lat="44.41622" lon="1.73327">
        <ele>276.6</ele>
        <time>2022-06-05T13:19:45Z</time>
      </trkpt>
      <trkpt lat="44.41626" lon="1.73332">
        <ele>276.2</ele>
        <time>2022-06-05T13:19:50Z</time>
      </trkpt>
      <trkpt lat="44.4163" lon="1.73337">
        <ele>275.8</ele>
        <time>2022-06-05T13:19:55Z</time>
      </trkpt>
      <trkpt lat="44.41634" lon="1.73342">
        <ele>275</ele>
        <time>2022-06-05T13:20:00Z</time>
      </trkpt>
      <trkpt lat="44.41639" lon="1.73346">
        <ele>274.1</ele>
        <time>2022-06-05T13:20:05Z</time>
      </trkpt>
      <trkpt lat="44.41643" lon="1.73349">
        <ele>273.1</ele>
        <time>2022-06-05T13:20:10Z</time>
      </trkpt>
      <trkpt lat="44.41648" lon="1.73352">
        <ele>272.6</ele>
        <time>2022-06-05T13:20:14Z</time>
      </trkpt>
      <trkpt lat="44.41652" lon="1.73354">
        <ele>271.6</ele>
        <time>2022-06-05T13:20:18Z</time>
      </trkpt>
      <trkpt lat="44.41656" lon="1.73357">
        <ele>271</ele>
        <time>2022-06-05T13:20:22Z</time>
      </trkpt>
      <trkpt lat="44.41661" lon="1.73359">
        <ele>270.7</ele>
        <time>2022-06-05T13:20:26Z</time>
      </trkpt>
      <trkpt lat="44.41666" lon="1.7336">
        <ele>270.9</ele>
        <time>2022-06-05T13:20:30Z</time>
      </trkpt>
      <trkpt lat="44.41671" lon="1.73362">
        <ele>271.1</ele>
        <time>2022-06-05T13:20:35Z</time>
      </trkpt>
      <trkpt lat="44.41675" lon="1.73364">
        <ele>271.2</ele>
        <time>2022-06-05T13:20:39Z</time>
      </trkpt>
      <trkpt lat="44.4168" lon="1.73367">
        <ele>271.5</ele>
        <time>2022-06-05T13:20:44Z</time>
      </trkpt>
      <trkpt lat="44.41684" lon="1.73372">
        <ele>271.2</ele>
        <time>2022-06-05T13:20:49Z</time>
      </trkpt>
      <trkpt lat="44.41688" lon="1.73377">
        <ele>271</ele>
        <time>2022-06-05T13:20:54Z</time>
      </trkpt>
      <trkpt lat="44.41691" lon="1.73382">
        <ele>270.6</ele>
        <time>2022-06-05T13:20:58Z</time>
      </trkpt>
      <trkpt lat="44.41695" lon="1.73388">
        <ele>270.3</ele>
        <time>2022-06-05T13:21:03Z</time>
      </trkpt>
      <trkpt lat="44.41698" lon="1.73394">
        <ele>270.4</ele>
        <time>2022-06-05T13:21:08Z</time>
      </trkpt>
      <trkpt lat="44.417" lon="1.73399">
        <ele>270.6</ele>
        <time>2022-06-05T13:21:12Z</time>
      </trkpt>
      <trkpt lat="44.41702" lon="1.73405">
        <ele>270.7</ele>
        <time>2022-06-05T13:21:16Z</time>
      </trkpt>
      <trkpt lat="44.41705" lon="1.73412">
        <ele>270.8</ele>
        <time>2022-06-05T13:21:21Z</time>
      </trkpt>
      <trkpt lat="44.41706" lon="1.73419">
        <ele>271.2</ele>
        <time>2022-06-05T13:21:26Z</time>
      </trkpt>
      <trkpt lat="44.41707" lon="1.73426">
        <ele>271.3</ele>
        <time>2022-06-05T13:21:31Z</time>
      </trkpt>
      <trkpt lat="44.41709" lon="1.73433">
        <ele>271.4</ele>
        <time>2022-06-05T13:21:36Z</time>
      </trkpt>
      <trkpt lat="44.4171" lon="1.7344">
        <ele>271.6</ele>
        <time>2022-06-05T13:21:41Z</time>
      </trkpt>
      <trkpt lat="44.41712" lon="1.73447">
        <ele>272.1</ele>
        <time>2022-06-05T13:21:46Z</time>
      </trkpt>
      <trkpt lat="44.41713" lon="1.73453">
        <ele>272.2</ele>
        <time>2022-06-05T13:21:50Z</time>
      </trkpt>
      <trkpt lat="44.41714" lon="1.73461">
        <ele>272.1</ele>
        <time>2022-06-05T13:21:55Z</time>
      </trkpt>
      <trkpt lat="44.41715" lon="1.73467">
        <ele>271.9</ele>
        <time>2022-06-05T13:21:59Z</time>
      </trkpt>
      <trkpt lat="44.41715" lon="1.73473">
        <ele>271.6</ele>
        <time>2022-06-05T13:22:03Z</time>
      </trkpt>
      <trkpt lat="44.41716" lon="1.7348">
        <ele>271.7</ele>
        <time>2022-06-05T13:22:07Z</time>
      </trkpt>
      <trkpt lat="44.41717" lon="1.73487">
        <ele>271.7</ele>
        <time>2022-06-05T13:22:12Z</time>
      </trkpt>
      <trkpt lat="44.41718" lon="1.73494">
        <ele>272.3</ele>
        <time>2022-06-05T13:22:17Z</time>
      </trkpt>
      <trkpt lat="44.41719" lon="1.73501">
        <ele>272.3</ele>
        <time>2022-06-05T13:22:22Z</time>
      </trkpt>
      <trkpt lat="44.41719" lon="1.73509">
        <ele>271.7</ele>
        <time>2022-06-05T13:22:27Z</time>
      </trkpt>
      <trkpt lat="44.41721" lon="1.73516">
        <ele>271.5</ele>
        <time>2022-06-05T13:22:32Z</time>
      </trkpt>
      <trkpt lat="44.41721" lon="1.73524">
        <ele>271.5</ele>
        <time>2022-06-05T13:22:37Z</time>
      </trkpt>
      <trkpt lat="44.41721" lon="1.73531">
        <ele>271.6</ele>
        <time>2022-06-05T13:22:42Z</time>
      </trkpt>
      <trkpt lat="44.41723" lon="1.73537">
        <ele>272</ele>
        <time>2022-06-05T13:22:46Z</time>
      </trkpt>
      <trkpt lat="44.41724" lon="1.73543">
        <ele>272.5</ele>
        <time>2022-06-05T13:22:50Z</time>
      </trkpt>
      <trkpt lat="44.41724" lon="1.73551">
        <ele>272.8</ele>
        <time>2022-06-05T13:22:55Z</time>
      </trkpt>
      <trkpt lat="44.41725" lon="1.73558">
        <ele>272.6</ele>
        <time>2022-06-05T13:23:00Z</time>
      </trkpt>
      <trkpt lat="44.41727" lon="1.73565">
        <ele>272.9</ele>
        <time>2022-06-05T13:23:05Z</time>
      </trkpt>
      <trkpt lat="44.41729" lon="1.73572">
        <ele>272.8</ele>
        <time>2022-06-05T13:23:10Z</time>
      </trkpt>
      <trkpt lat="44.4173" lon="1.7358">
        <ele>272.8</ele>
        <time>2022-06-05T13:23:15Z</time>
      </trkpt>
      <trkpt lat="44.41731" lon="1.73586">
        <ele>272.7</ele>
        <time>2022-06-05T13:23:19Z</time>
      </trkpt>
      <trkpt lat="44.41733" lon="1.73592">
        <ele>272.2</ele>
        <time>2022-06-05T13:23:23Z</time>
      </trkpt>
      <trkpt lat="44.41734" lon="1.73599">
        <ele>272</ele>
        <time>2022-06-05T13:23:28Z</time>
      </trkpt>
      <trkpt lat="44.41736" lon="1.73606">
        <ele>271.8</ele>
        <time>2022-06-05T13:23:33Z</time>
      </trkpt>
      <trkpt lat="44.41738" lon="1.73613">
        <ele>272</ele>
        <time>2022-06-05T13:23:38Z</time>
      </trkpt>
      <trkpt lat="44.4174" lon="1.7362">
        <ele>271.7</ele>
        <time>2022-06-05T13:23:43Z</time>
      </trkpt>
      <trkpt lat="44.41743" lon="1.73626">
        <ele>271.6</ele>
        <time>2022-06-05T13:23:48Z</time>
      </trkpt>
      <trkpt lat="44.41745" lon="1.73632">
        <ele>272</ele>
        <time>2022-06-05T13:23:53Z</time>
      </trkpt>
      <trkpt lat="44.41747" lon="1.73637">
        <ele>273.7</ele>
        <time>2022-06-05T13:23:59Z</time>
      </trkpt>
      <trkpt lat="44.4175" lon="1.73643">
        <ele>270.6</ele>
        <time>2022-06-05T13:24:14Z</time>
      </trkpt>
      <trkpt lat="44.41756" lon="1.73644">
        <ele>269.3</ele>
        <time>2022-06-05T13:24:20Z</time>
      </trkpt>
      <trkpt lat="44.4176" lon="1.73644">
        <ele>268.3</ele>
        <time>2022-06-05T13:24:25Z</time>
      </trkpt>
      <trkpt lat="44.41765" lon="1.73642">
        <ele>268.6</ele>
        <time>2022-06-05T13:24:31Z</time>
      </trkpt>
      <trkpt lat="44.41771" lon="1.73641">
        <ele>268.8</ele>
        <time>2022-06-05T13:24:38Z</time>
      </trkpt>
      <trkpt lat="44.41776" lon="1.73641">
        <ele>269.4</ele>
        <time>2022-06-05T13:24:44Z</time>
      </trkpt>
      <trkpt lat="44.41781" lon="1.7364">
        <ele>269.5</ele>
        <time>2022-06-05T13:24:49Z</time>
      </trkpt>
      <trkpt lat="44.41785" lon="1.73638">
        <ele>269.4</ele>
        <time>2022-06-05T13:24:54Z</time>
      </trkpt>
      <trkpt lat="44.4179" lon="1.73637">
        <ele>268.6</ele>
        <time>2022-06-05T13:24:59Z</time>
      </trkpt>
      <trkpt lat="44.41795" lon="1.73636">
        <ele>267.9</ele>
        <time>2022-06-05T13:25:04Z</time>
      </trkpt>
      <trkpt lat="44.418" lon="1.73635">
        <ele>266.8</ele>
        <time>2022-06-05T13:25:09Z</time>
      </trkpt>
      <trkpt lat="44.41804" lon="1.73631">
        <ele>266.4</ele>
        <time>2022-06-05T13:25:22Z</time>
      </trkpt>
      <trkpt lat="44.41809" lon="1.7363">
        <ele>266.1</ele>
        <time>2022-06-05T13:25:27Z</time>
      </trkpt>
      <trkpt lat="44.41813" lon="1.7363">
        <ele>265.9</ele>
        <time>2022-06-05T13:25:32Z</time>
      </trkpt>
      <trkpt lat="44.41818" lon="1.73629">
        <ele>265</ele>
        <time>2022-06-05T13:25:37Z</time>
      </trkpt>
      <trkpt lat="44.41822" lon="1.73629">
        <ele>264.3</ele>
        <time>2022-06-05T13:25:42Z</time>
      </trkpt>
      <trkpt lat="44.41827" lon="1.73628">
        <ele>263.8</ele>
        <time>2022-06-05T13:25:47Z</time>
      </trkpt>
      <trkpt lat="44.41832" lon="1.73627">
        <ele>263.2</ele>
        <time>2022-06-05T13:25:52Z</time>
      </trkpt>
      <trkpt lat="44.41837" lon="1.73626">
        <ele>262.9</ele>
        <time>2022-06-05T13:25:57Z</time>
      </trkpt>
      <trkpt lat="44.41842" lon="1.73624">
        <ele>262.3</ele>
        <time>2022-06-05T13:26:02Z</time>
      </trkpt>
      <trkpt lat="44.41847" lon="1.73623">
        <ele>261.5</ele>
        <time>2022-06-05T13:26:07Z</time>
      </trkpt>
      <trkpt lat="44.41852" lon="1.73622">
        <ele>260.8</ele>
        <time>2022-06-05T13:26:12Z</time>
      </trkpt>
      <trkpt lat="44.41857" lon="1.73621">
        <ele>260.1</ele>
        <time>2022-06-05T13:26:17Z</time>
      </trkpt>
      <trkpt lat="44.41863" lon="1.7362">
        <ele>259.4</ele>
        <time>2022-06-05T13:26:22Z</time>
      </trkpt>
      <trkpt lat="44.41868" lon="1.73618">
        <ele>259.2</ele>
        <time>2022-06-05T13:26:27Z</time>
      </trkpt>
      <trkpt lat="44.41874" lon="1.73618">
        <ele>258.6</ele>
        <time>2022-06-05T13:26:32Z</time>
      </trkpt>
      <trkpt lat="44.41879" lon="1.73617">
        <ele>258.5</ele>
        <time>2022-06-05T13:26:37Z</time>
      </trkpt>
      <trkpt lat="44.41884" lon="1.73616">
        <ele>259</ele>
        <time>2022-06-05T13:26:41Z</time>
      </trkpt>
      <trkpt lat="44.41889" lon="1.73614">
        <ele>259.5</ele>
        <time>2022-06-05T13:26:46Z</time>
      </trkpt>
      <trkpt lat="44.41894" lon="1.73613">
        <ele>259.6</ele>
        <time>2022-06-05T13:26:51Z</time>
      </trkpt>
      <trkpt lat="44.41899" lon="1.73612">
        <ele>259.8</ele>
        <time>2022-06-05T13:26:56Z</time>
      </trkpt>
      <trkpt lat="44.41904" lon="1.73611">
        <ele>259.5</ele>
        <time>2022-06-05T13:27:01Z</time>
      </trkpt>
      <trkpt lat="44.41909" lon="1.73609">
        <ele>259.2</ele>
        <time>2022-06-05T13:27:06Z</time>
      </trkpt>
      <trkpt lat="44.41914" lon="1.73607">
        <ele>259.2</ele>
        <time>2022-06-05T13:27:12Z</time>
      </trkpt>
      <trkpt lat="44.41919" lon="1.73607">
        <ele>259.7</ele>
        <time>2022-06-05T13:27:18Z</time>
      </trkpt>
      <trkpt lat="44.41924" lon="1.73607">
        <ele>261</ele>
        <time>2022-06-05T13:27:24Z</time>
      </trkpt>
      <trkpt lat="44.41929" lon="1.73608">
        <ele>262</ele>
        <time>2022-06-05T13:27:30Z</time>
      </trkpt>
      <trkpt lat="44.41934" lon="1.73608">
        <ele>262.2</ele>
        <time>2022-06-05T13:27:36Z</time>
      </trkpt>
      <trkpt lat="44.41939" lon="1.73609">
        <ele>263</ele>
        <time>2022-06-05T13:27:42Z</time>
      </trkpt>
      <trkpt lat="44.41943" lon="1.73611">
        <ele>263.9</ele>
        <time>2022-06-05T13:27:47Z</time>
      </trkpt>
      <trkpt lat="44.41948" lon="1.73614">
        <ele>264.9</ele>
        <time>2022-06-05T13:27:52Z</time>
      </trkpt>
      <trkpt lat="44.41951" lon="1.73619">
        <ele>265.6</ele>
        <time>2022-06-05T13:27:57Z</time>
      </trkpt>
      <trkpt lat="44.41955" lon="1.73623">
        <ele>266.8</ele>
        <time>2022-06-05T13:28:02Z</time>
      </trkpt>
      <trkpt lat="44.41958" lon="1.73628">
        <ele>267.4</ele>
        <time>2022-06-05T13:28:07Z</time>
      </trkpt>
      <trkpt lat="44.41958" lon="1.73635">
        <ele>269.2</ele>
        <time>2022-06-05T13:28:18Z</time>
      </trkpt>
      <trkpt lat="44.41954" lon="1.73636">
        <ele>269</ele>
        <time>2022-06-05T13:28:37Z</time>
      </trkpt>
      <trkpt lat="44.41958" lon="1.73636">
        <ele>268.5</ele>
        <time>2022-06-05T13:31:02Z</time>
      </trkpt>
      <trkpt lat="44.41961" lon="1.73642">
        <ele>268.7</ele>
        <time>2022-06-05T13:31:07Z</time>
      </trkpt>
      <trkpt lat="44.41964" lon="1.73647">
        <ele>268.8</ele>
        <time>2022-06-05T13:31:11Z</time>
      </trkpt>
      <trkpt lat="44.41966" lon="1.73653">
        <ele>268.8</ele>
        <time>2022-06-05T13:31:15Z</time>
      </trkpt>
      <trkpt lat="44.41968" lon="1.73659">
        <ele>268.7</ele>
        <time>2022-06-05T13:31:19Z</time>
      </trkpt>
      <trkpt lat="44.4197" lon="1.73665">
        <ele>268.4</ele>
        <time>2022-06-05T13:31:23Z</time>
      </trkpt>
      <trkpt lat="44.41972" lon="1.73672">
        <ele>268.1</ele>
        <time>2022-06-05T13:31:28Z</time>
      </trkpt>
      <trkpt lat="44.41974" lon="1.73679">
        <ele>268.2</ele>
        <time>2022-06-05T13:31:33Z</time>
      </trkpt>
      <trkpt lat="44.41976" lon="1.73685">
        <ele>268.3</ele>
        <time>2022-06-05T13:31:37Z</time>
      </trkpt>
      <trkpt lat="44.41978" lon="1.73691">
        <ele>268.1</ele>
        <time>2022-06-05T13:31:41Z</time>
      </trkpt>
      <trkpt lat="44.4198" lon="1.73697">
        <ele>267.8</ele>
        <time>2022-06-05T13:31:45Z</time>
      </trkpt>
      <trkpt lat="44.41983" lon="1.73704">
        <ele>267.2</ele>
        <time>2022-06-05T13:31:50Z</time>
      </trkpt>
      <trkpt lat="44.41985" lon="1.7371">
        <ele>266.9</ele>
        <time>2022-06-05T13:31:55Z</time>
      </trkpt>
      <trkpt lat="44.41988" lon="1.73715">
        <ele>266.7</ele>
        <time>2022-06-05T13:31:59Z</time>
      </trkpt>
      <trkpt lat="44.41991" lon="1.7372">
        <ele>266.2</ele>
        <time>2022-06-05T13:32:03Z</time>
      </trkpt>
      <trkpt lat="44.41994" lon="1.73726">
        <ele>266.1</ele>
        <time>2022-06-05T13:32:08Z</time>
      </trkpt>
      <trkpt lat="44.41997" lon="1.73732">
        <ele>265.9</ele>
        <time>2022-06-05T13:32:12Z</time>
      </trkpt>
      <trkpt lat="44.42" lon="1.73736">
        <ele>265.7</ele>
        <time>2022-06-05T13:32:16Z</time>
      </trkpt>
      <trkpt lat="44.42003" lon="1.73741">
        <ele>265.9</ele>
        <time>2022-06-05T13:32:20Z</time>
      </trkpt>
      <trkpt lat="44.42007" lon="1.73745">
        <ele>266</ele>
        <time>2022-06-05T13:32:24Z</time>
      </trkpt>
      <trkpt lat="44.42011" lon="1.73749">
        <ele>266</ele>
        <time>2022-06-05T13:32:28Z</time>
      </trkpt>
      <trkpt lat="44.42015" lon="1.73752">
        <ele>266.2</ele>
        <time>2022-06-05T13:32:32Z</time>
      </trkpt>
      <trkpt lat="44.42019" lon="1.73754">
        <ele>266.4</ele>
        <time>2022-06-05T13:32:36Z</time>
      </trkpt>
      <trkpt lat="44.42024" lon="1.73756">
        <ele>266.4</ele>
        <time>2022-06-05T13:32:40Z</time>
      </trkpt>
      <trkpt lat="44.42028" lon="1.73758">
        <ele>266.4</ele>
        <time>2022-06-05T13:32:44Z</time>
      </trkpt>
      <trkpt lat="44.42033" lon="1.7376">
        <ele>266.4</ele>
        <time>2022-06-05T13:32:49Z</time>
      </trkpt>
      <trkpt lat="44.42038" lon="1.73761">
        <ele>266.7</ele>
        <time>2022-06-05T13:32:54Z</time>
      </trkpt>
      <trkpt lat="44.42043" lon="1.73763">
        <ele>266.6</ele>
        <time>2022-06-05T13:32:59Z</time>
      </trkpt>
      <trkpt lat="44.42048" lon="1.73764">
        <ele>267.1</ele>
        <time>2022-06-05T13:33:04Z</time>
      </trkpt>
      <trkpt lat="44.42054" lon="1.73766">
        <ele>267.7</ele>
        <time>2022-06-05T13:33:09Z</time>
      </trkpt>
      <trkpt lat="44.42059" lon="1.73767">
        <ele>267.9</ele>
        <time>2022-06-05T13:33:15Z</time>
      </trkpt>
      <trkpt lat="44.42063" lon="1.73769">
        <ele>268.5</ele>
        <time>2022-06-05T13:33:20Z</time>
      </trkpt>
      <trkpt lat="44.42068" lon="1.73769">
        <ele>269.1</ele>
        <time>2022-06-05T13:33:25Z</time>
      </trkpt>
      <trkpt lat="44.42073" lon="1.7377">
        <ele>269.6</ele>
        <time>2022-06-05T13:33:31Z</time>
      </trkpt>
      <trkpt lat="44.42079" lon="1.7377">
        <ele>269.8</ele>
        <time>2022-06-05T13:33:37Z</time>
      </trkpt>
      <trkpt lat="44.42084" lon="1.73769">
        <ele>270</ele>
        <time>2022-06-05T13:33:43Z</time>
      </trkpt>
      <trkpt lat="44.42089" lon="1.73767">
        <ele>270.3</ele>
        <time>2022-06-05T13:33:49Z</time>
      </trkpt>
      <trkpt lat="44.42093" lon="1.73765">
        <ele>270.6</ele>
        <time>2022-06-05T13:33:54Z</time>
      </trkpt>
      <trkpt lat="44.42097" lon="1.73762">
        <ele>271.6</ele>
        <time>2022-06-05T13:33:59Z</time>
      </trkpt>
      <trkpt lat="44.42101" lon="1.73758">
        <ele>272.7</ele>
        <time>2022-06-05T13:34:04Z</time>
      </trkpt>
      <trkpt lat="44.42105" lon="1.73755">
        <ele>274</ele>
        <time>2022-06-05T13:34:09Z</time>
      </trkpt>
      <trkpt lat="44.42109" lon="1.73752">
        <ele>275.2</ele>
        <time>2022-06-05T13:34:14Z</time>
      </trkpt>
      <trkpt lat="44.42115" lon="1.73752">
        <ele>276.6</ele>
        <time>2022-06-05T13:34:20Z</time>
      </trkpt>
      <trkpt lat="44.42119" lon="1.73753">
        <ele>277.7</ele>
        <time>2022-06-05T13:34:25Z</time>
      </trkpt>
      <trkpt lat="44.42124" lon="1.73753">
        <ele>278.5</ele>
        <time>2022-06-05T13:34:31Z</time>
      </trkpt>
      <trkpt lat="44.4213" lon="1.73754">
        <ele>279.5</ele>
        <time>2022-06-05T13:34:37Z</time>
      </trkpt>
      <trkpt lat="44.42134" lon="1.73757">
        <ele>280.1</ele>
        <time>2022-06-05T13:34:42Z</time>
      </trkpt>
      <trkpt lat="44.42139" lon="1.73758">
        <ele>280.1</ele>
        <time>2022-06-05T13:34:47Z</time>
      </trkpt>
      <trkpt lat="44.42144" lon="1.73759">
        <ele>280.7</ele>
        <time>2022-06-05T13:34:53Z</time>
      </trkpt>
      <trkpt lat="44.42149" lon="1.73761">
        <ele>280.9</ele>
        <time>2022-06-05T13:34:59Z</time>
      </trkpt>
      <trkpt lat="44.42154" lon="1.73762">
        <ele>281.2</ele>
        <time>2022-06-05T13:35:04Z</time>
      </trkpt>
      <trkpt lat="44.42159" lon="1.73762">
        <ele>281.3</ele>
        <time>2022-06-05T13:35:09Z</time>
      </trkpt>
      <trkpt lat="44.42164" lon="1.73763">
        <ele>281.8</ele>
        <time>2022-06-05T13:35:14Z</time>
      </trkpt>
      <trkpt lat="44.42169" lon="1.73764">
        <ele>282.6</ele>
        <time>2022-06-05T13:35:19Z</time>
      </trkpt>
      <trkpt lat="44.42173" lon="1.73765">
        <ele>283.3</ele>
        <time>2022-06-05T13:35:24Z</time>
      </trkpt>
      <trkpt lat="44.42178" lon="1.73767">
        <ele>283.7</ele>
        <time>2022-06-05T13:35:29Z</time>
      </trkpt>
      <trkpt lat="44.42182" lon="1.73769">
        <ele>284.1</ele>
        <time>2022-06-05T13:35:34Z</time>
      </trkpt>
      <trkpt lat="44.42187" lon="1.73771">
        <ele>284.6</ele>
        <time>2022-06-05T13:35:39Z</time>
      </trkpt>
      <trkpt lat="44.42191" lon="1.73774">
        <ele>285.1</ele>
        <time>2022-06-05T13:35:44Z</time>
      </trkpt>
      <trkpt lat="44.42196" lon="1.73777">
        <ele>285.7</ele>
        <time>2022-06-05T13:35:49Z</time>
      </trkpt>
      <trkpt lat="44.42201" lon="1.73779">
        <ele>286.6</ele>
        <time>2022-06-05T13:35:54Z</time>
      </trkpt>
      <trkpt lat="44.42205" lon="1.73782">
        <ele>287.2</ele>
        <time>2022-06-05T13:35:59Z</time>
      </trkpt>
      <trkpt lat="44.4221" lon="1.73785">
        <ele>287.5</ele>
        <time>2022-06-05T13:36:04Z</time>
      </trkpt>
      <trkpt lat="44.42215" lon="1.73788">
        <ele>287.6</ele>
        <time>2022-06-05T13:36:09Z</time>
      </trkpt>
      <trkpt lat="44.42219" lon="1.73791">
        <ele>287.6</ele>
        <time>2022-06-05T13:36:13Z</time>
      </trkpt>
      <trkpt lat="44.42223" lon="1.73794">
        <ele>287.7</ele>
        <time>2022-06-05T13:36:17Z</time>
      </trkpt>
      <trkpt lat="44.42228" lon="1.73796">
        <ele>287.8</ele>
        <time>2022-06-05T13:36:22Z</time>
      </trkpt>
      <trkpt lat="44.42233" lon="1.73796">
        <ele>287.6</ele>
        <time>2022-06-05T13:36:28Z</time>
      </trkpt>
      <trkpt lat="44.42237" lon="1.73792">
        <ele>286</ele>
        <time>2022-06-05T13:36:52Z</time>
      </trkpt>
      <trkpt lat="44.42242" lon="1.73789">
        <ele>285.2</ele>
        <time>2022-06-05T13:36:58Z</time>
      </trkpt>
      <trkpt lat="44.42247" lon="1.73789">
        <ele>285.1</ele>
        <time>2022-06-05T13:37:04Z</time>
      </trkpt>
      <trkpt lat="44.4225" lon="1.73794">
        <ele>285.7</ele>
        <time>2022-06-05T13:37:10Z</time>
      </trkpt>
      <trkpt lat="44.42253" lon="1.73799">
        <ele>286.9</ele>
        <time>2022-06-05T13:37:15Z</time>
      </trkpt>
      <trkpt lat="44.42257" lon="1.73804">
        <ele>287.9</ele>
        <time>2022-06-05T13:37:21Z</time>
      </trkpt>
      <trkpt lat="44.42262" lon="1.73805">
        <ele>287.4</ele>
        <time>2022-06-05T13:37:27Z</time>
      </trkpt>
      <trkpt lat="44.42267" lon="1.73803">
        <ele>286.6</ele>
        <time>2022-06-05T13:37:32Z</time>
      </trkpt>
      <trkpt lat="44.42265" lon="1.73797">
        <ele>284.9</ele>
        <time>2022-06-05T13:38:37Z</time>
      </trkpt>
      <trkpt lat="44.42265" lon="1.73804">
        <ele>286.5</ele>
        <time>2022-06-05T13:38:50Z</time>
      </trkpt>
      <trkpt lat="44.4226" lon="1.73801">
        <ele>287.5</ele>
        <time>2022-06-05T13:40:31Z</time>
      </trkpt>
      <trkpt lat="44.42256" lon="1.73798">
        <ele>285.1</ele>
        <time>2022-06-05T13:40:36Z</time>
      </trkpt>
      <trkpt lat="44.42252" lon="1.73796">
        <ele>283.7</ele>
        <time>2022-06-05T13:40:41Z</time>
      </trkpt>
      <trkpt lat="44.42248" lon="1.73792">
        <ele>283.4</ele>
        <time>2022-06-05T13:40:47Z</time>
      </trkpt>
      <trkpt lat="44.42243" lon="1.7379">
        <ele>283.7</ele>
        <time>2022-06-05T13:40:54Z</time>
      </trkpt>
      <trkpt lat="44.42239" lon="1.73791">
        <ele>284.4</ele>
        <time>2022-06-05T13:40:59Z</time>
      </trkpt>
      <trkpt lat="44.42234" lon="1.73793">
        <ele>285.1</ele>
        <time>2022-06-05T13:41:04Z</time>
      </trkpt>
      <trkpt lat="44.42232" lon="1.73799">
        <ele>286</ele>
        <time>2022-06-05T13:41:11Z</time>
      </trkpt>
      <trkpt lat="44.42235" lon="1.73804">
        <ele>287.3</ele>
        <time>2022-06-05T13:41:22Z</time>
      </trkpt>
      <trkpt lat="44.4224" lon="1.73807">
        <ele>287.8</ele>
        <time>2022-06-05T13:41:27Z</time>
      </trkpt>
      <trkpt lat="44.42243" lon="1.7381">
        <ele>288.4</ele>
        <time>2022-06-05T13:41:32Z</time>
      </trkpt>
      <trkpt lat="44.42247" lon="1.73814">
        <ele>289</ele>
        <time>2022-06-05T13:41:37Z</time>
      </trkpt>
      <trkpt lat="44.4225" lon="1.73818">
        <ele>288.9</ele>
        <time>2022-06-05T13:41:42Z</time>
      </trkpt>
      <trkpt lat="44.42254" lon="1.73823">
        <ele>289.2</ele>
        <time>2022-06-05T13:41:47Z</time>
      </trkpt>
      <trkpt lat="44.42258" lon="1.73826">
        <ele>289.3</ele>
        <time>2022-06-05T13:41:52Z</time>
      </trkpt>
      <trkpt lat="44.42262" lon="1.7383">
        <ele>289.2</ele>
        <time>2022-06-05T13:41:57Z</time>
      </trkpt>
      <trkpt lat="44.42266" lon="1.73833">
        <ele>289.3</ele>
        <time>2022-06-05T13:42:02Z</time>
      </trkpt>
      <trkpt lat="44.42271" lon="1.73837">
        <ele>289.7</ele>
        <time>2022-06-05T13:42:07Z</time>
      </trkpt>
      <trkpt lat="44.42275" lon="1.73841">
        <ele>289.9</ele>
        <time>2022-06-05T13:42:12Z</time>
      </trkpt>
      <trkpt lat="44.42279" lon="1.73844">
        <ele>289.9</ele>
        <time>2022-06-05T13:42:17Z</time>
      </trkpt>
      <trkpt lat="44.42284" lon="1.73846">
        <ele>289.5</ele>
        <time>2022-06-05T13:42:23Z</time>
      </trkpt>
      <trkpt lat="44.42287" lon="1.73852">
        <ele>289.5</ele>
        <time>2022-06-05T13:42:36Z</time>
      </trkpt>
      <trkpt lat="44.42288" lon="1.73858">
        <ele>289.4</ele>
        <time>2022-06-05T13:42:42Z</time>
      </trkpt>
      <trkpt lat="44.42287" lon="1.73865">
        <ele>288.7</ele>
        <time>2022-06-05T13:42:48Z</time>
      </trkpt>
      <trkpt lat="44.42286" lon="1.73871">
        <ele>288.2</ele>
        <time>2022-06-05T13:42:54Z</time>
      </trkpt>
      <trkpt lat="44.42284" lon="1.73878">
        <ele>288.3</ele>
        <time>2022-06-05T13:42:59Z</time>
      </trkpt>
      <trkpt lat="44.42283" lon="1.73885">
        <ele>288.5</ele>
        <time>2022-06-05T13:43:04Z</time>
      </trkpt>
      <trkpt lat="44.42282" lon="1.73891">
        <ele>289.1</ele>
        <time>2022-06-05T13:43:10Z</time>
      </trkpt>
      <trkpt lat="44.42281" lon="1.73899">
        <ele>289.8</ele>
        <time>2022-06-05T13:43:16Z</time>
      </trkpt>
      <trkpt lat="44.42281" lon="1.73905">
        <ele>290.2</ele>
        <time>2022-06-05T13:43:22Z</time>
      </trkpt>
      <trkpt lat="44.4228" lon="1.73912">
        <ele>290.5</ele>
        <time>2022-06-05T13:43:27Z</time>
      </trkpt>
      <trkpt lat="44.42279" lon="1.73918">
        <ele>290.6</ele>
        <time>2022-06-05T13:43:32Z</time>
      </trkpt>
      <trkpt lat="44.42278" lon="1.73925">
        <ele>290.9</ele>
        <time>2022-06-05T13:43:37Z</time>
      </trkpt>
      <trkpt lat="44.42278" lon="1.73931">
        <ele>291.4</ele>
        <time>2022-06-05T13:43:42Z</time>
      </trkpt>
      <trkpt lat="44.42277" lon="1.73938">
        <ele>291.4</ele>
        <time>2022-06-05T13:43:48Z</time>
      </trkpt>
      <trkpt lat="44.42275" lon="1.73946">
        <ele>291.1</ele>
        <time>2022-06-05T13:43:53Z</time>
      </trkpt>
      <trkpt lat="44.42275" lon="1.73952">
        <ele>290.9</ele>
        <time>2022-06-05T13:43:58Z</time>
      </trkpt>
      <trkpt lat="44.42274" lon="1.73958">
        <ele>291</ele>
        <time>2022-06-05T13:44:03Z</time>
      </trkpt>
      <trkpt lat="44.42273" lon="1.73965">
        <ele>290.9</ele>
        <time>2022-06-05T13:44:08Z</time>
      </trkpt>
      <trkpt lat="44.42271" lon="1.73972">
        <ele>291</ele>
        <time>2022-06-05T13:44:13Z</time>
      </trkpt>
      <trkpt lat="44.4227" lon="1.73978">
        <ele>291.4</ele>
        <time>2022-06-05T13:44:18Z</time>
      </trkpt>
      <trkpt lat="44.42269" lon="1.73985">
        <ele>292.2</ele>
        <time>2022-06-05T13:44:23Z</time>
      </trkpt>
      <trkpt lat="44.42268" lon="1.73993">
        <ele>292.8</ele>
        <time>2022-06-05T13:44:28Z</time>
      </trkpt>
      <trkpt lat="44.42267" lon="1.73999">
        <ele>292.3</ele>
        <time>2022-06-05T13:44:33Z</time>
      </trkpt>
      <trkpt lat="44.42266" lon="1.74005">
        <ele>292.1</ele>
        <time>2022-06-05T13:44:38Z</time>
      </trkpt>
      <trkpt lat="44.42265" lon="1.74012">
        <ele>292.6</ele>
        <time>2022-06-05T13:44:43Z</time>
      </trkpt>
      <trkpt lat="44.42264" lon="1.74018">
        <ele>293</ele>
        <time>2022-06-05T13:44:48Z</time>
      </trkpt>
      <trkpt lat="44.42263" lon="1.74025">
        <ele>292.8</ele>
        <time>2022-06-05T13:44:53Z</time>
      </trkpt>
      <trkpt lat="44.42262" lon="1.74031">
        <ele>292.7</ele>
        <time>2022-06-05T13:44:58Z</time>
      </trkpt>
      <trkpt lat="44.42261" lon="1.74038">
        <ele>292.8</ele>
        <time>2022-06-05T13:45:03Z</time>
      </trkpt>
      <trkpt lat="44.4226" lon="1.74044">
        <ele>292.4</ele>
        <time>2022-06-05T13:45:08Z</time>
      </trkpt>
      <trkpt lat="44.42259" lon="1.74052">
        <ele>292.2</ele>
        <time>2022-06-05T13:45:14Z</time>
      </trkpt>
      <trkpt lat="44.42258" lon="1.74059">
        <ele>292.6</ele>
        <time>2022-06-05T13:45:20Z</time>
      </trkpt>
      <trkpt lat="44.42257" lon="1.74065">
        <ele>293</ele>
        <time>2022-06-05T13:45:25Z</time>
      </trkpt>
      <trkpt lat="44.42256" lon="1.74072">
        <ele>293</ele>
        <time>2022-06-05T13:45:30Z</time>
      </trkpt>
      <trkpt lat="44.42255" lon="1.74079">
        <ele>293</ele>
        <time>2022-06-05T13:45:35Z</time>
      </trkpt>
      <trkpt lat="44.42254" lon="1.74085">
        <ele>293.6</ele>
        <time>2022-06-05T13:45:40Z</time>
      </trkpt>
      <trkpt lat="44.42252" lon="1.74091">
        <ele>294.3</ele>
        <time>2022-06-05T13:45:45Z</time>
      </trkpt>
      <trkpt lat="44.4225" lon="1.74098">
        <ele>294.9</ele>
        <time>2022-06-05T13:45:50Z</time>
      </trkpt>
      <trkpt lat="44.42248" lon="1.74104">
        <ele>295.5</ele>
        <time>2022-06-05T13:45:55Z</time>
      </trkpt>
      <trkpt lat="44.42246" lon="1.74111">
        <ele>296</ele>
        <time>2022-06-05T13:46:00Z</time>
      </trkpt>
      <trkpt lat="44.42243" lon="1.74117">
        <ele>296.6</ele>
        <time>2022-06-05T13:46:05Z</time>
      </trkpt>
      <trkpt lat="44.42241" lon="1.74124">
        <ele>296.5</ele>
        <time>2022-06-05T13:46:10Z</time>
      </trkpt>
      <trkpt lat="44.42238" lon="1.7413">
        <ele>296.8</ele>
        <time>2022-06-05T13:46:15Z</time>
      </trkpt>
      <trkpt lat="44.42236" lon="1.74137">
        <ele>297.2</ele>
        <time>2022-06-05T13:46:20Z</time>
      </trkpt>
      <trkpt lat="44.42233" lon="1.74143">
        <ele>297.6</ele>
        <time>2022-06-05T13:46:25Z</time>
      </trkpt>
      <trkpt lat="44.42231" lon="1.7415">
        <ele>297.3</ele>
        <time>2022-06-05T13:46:30Z</time>
      </trkpt>
      <trkpt lat="44.42229" lon="1.74157">
        <ele>296.6</ele>
        <time>2022-06-05T13:46:35Z</time>
      </trkpt>
      <trkpt lat="44.42227" lon="1.74164">
        <ele>295.5</ele>
        <time>2022-06-05T13:46:40Z</time>
      </trkpt>
      <trkpt lat="44.42225" lon="1.74171">
        <ele>295.1</ele>
        <time>2022-06-05T13:46:45Z</time>
      </trkpt>
      <trkpt lat="44.42223" lon="1.74177">
        <ele>294.8</ele>
        <time>2022-06-05T13:46:50Z</time>
      </trkpt>
      <trkpt lat="44.42222" lon="1.74184">
        <ele>295</ele>
        <time>2022-06-05T13:46:55Z</time>
      </trkpt>
      <trkpt lat="44.4222" lon="1.74191">
        <ele>295.9</ele>
        <time>2022-06-05T13:47:00Z</time>
      </trkpt>
      <trkpt lat="44.42218" lon="1.74198">
        <ele>296.6</ele>
        <time>2022-06-05T13:47:05Z</time>
      </trkpt>
      <trkpt lat="44.42217" lon="1.74206">
        <ele>297.2</ele>
        <time>2022-06-05T13:47:10Z</time>
      </trkpt>
      <trkpt lat="44.42215" lon="1.74213">
        <ele>296.9</ele>
        <time>2022-06-05T13:47:15Z</time>
      </trkpt>
      <trkpt lat="44.42214" lon="1.7422">
        <ele>296.7</ele>
        <time>2022-06-05T13:47:20Z</time>
      </trkpt>
      <trkpt lat="44.42212" lon="1.74226">
        <ele>296.3</ele>
        <time>2022-06-05T13:47:25Z</time>
      </trkpt>
      <trkpt lat="44.4221" lon="1.74233">
        <ele>296.5</ele>
        <time>2022-06-05T13:47:30Z</time>
      </trkpt>
      <trkpt lat="44.42207" lon="1.74239">
        <ele>296.8</ele>
        <time>2022-06-05T13:47:35Z</time>
      </trkpt>
      <trkpt lat="44.42206" lon="1.74245">
        <ele>297.4</ele>
        <time>2022-06-05T13:47:45Z</time>
      </trkpt>
      <trkpt lat="44.42204" lon="1.74252">
        <ele>297.8</ele>
        <time>2022-06-05T13:47:51Z</time>
      </trkpt>
      <trkpt lat="44.42202" lon="1.74258">
        <ele>298</ele>
        <time>2022-06-05T13:47:57Z</time>
      </trkpt>
      <trkpt lat="44.42201" lon="1.74264">
        <ele>298</ele>
        <time>2022-06-05T13:48:02Z</time>
      </trkpt>
      <trkpt lat="44.422" lon="1.74271">
        <ele>298.2</ele>
        <time>2022-06-05T13:48:07Z</time>
      </trkpt>
      <trkpt lat="44.422" lon="1.74278">
        <ele>299.3</ele>
        <time>2022-06-05T13:48:12Z</time>
      </trkpt>
      <trkpt lat="44.42199" lon="1.74285">
        <ele>300.4</ele>
        <time>2022-06-05T13:48:17Z</time>
      </trkpt>
      <trkpt lat="44.42198" lon="1.74291">
        <ele>300.6</ele>
        <time>2022-06-05T13:48:22Z</time>
      </trkpt>
      <trkpt lat="44.42198" lon="1.74298">
        <ele>300.4</ele>
        <time>2022-06-05T13:48:27Z</time>
      </trkpt>
      <trkpt lat="44.42198" lon="1.74305">
        <ele>300.2</ele>
        <time>2022-06-05T13:48:32Z</time>
      </trkpt>
      <trkpt lat="44.42201" lon="1.7431">
        <ele>300.3</ele>
        <time>2022-06-05T13:48:38Z</time>
      </trkpt>
      <trkpt lat="44.42205" lon="1.74314">
        <ele>300.9</ele>
        <time>2022-06-05T13:48:44Z</time>
      </trkpt>
      <trkpt lat="44.42209" lon="1.74319">
        <ele>301</ele>
        <time>2022-06-05T13:48:50Z</time>
      </trkpt>
      <trkpt lat="44.42212" lon="1.74323">
        <ele>300.9</ele>
        <time>2022-06-05T13:48:55Z</time>
      </trkpt>
      <trkpt lat="44.42216" lon="1.74328">
        <ele>301.2</ele>
        <time>2022-06-05T13:49:01Z</time>
      </trkpt>
      <trkpt lat="44.4222" lon="1.74333">
        <ele>301.8</ele>
        <time>2022-06-05T13:49:07Z</time>
      </trkpt>
      <trkpt lat="44.42222" lon="1.74339">
        <ele>301.5</ele>
        <time>2022-06-05T13:49:12Z</time>
      </trkpt>
      <trkpt lat="44.42223" lon="1.74346">
        <ele>301.4</ele>
        <time>2022-06-05T13:49:18Z</time>
      </trkpt>
      <trkpt lat="44.4222" lon="1.74351">
        <ele>300.6</ele>
        <time>2022-06-05T13:49:26Z</time>
      </trkpt>
      <trkpt lat="44.42223" lon="1.74355">
        <ele>298.5</ele>
        <time>2022-06-05T13:49:35Z</time>
      </trkpt>
      <trkpt lat="44.42227" lon="1.7436">
        <ele>299</ele>
        <time>2022-06-05T13:49:39Z</time>
      </trkpt>
      <trkpt lat="44.4223" lon="1.74366">
        <ele>299</ele>
        <time>2022-06-05T13:49:44Z</time>
      </trkpt>
      <trkpt lat="44.42232" lon="1.74371">
        <ele>298.7</ele>
        <time>2022-06-05T13:49:49Z</time>
      </trkpt>
      <trkpt lat="44.42234" lon="1.74377">
        <ele>298.5</ele>
        <time>2022-06-05T13:49:54Z</time>
      </trkpt>
      <trkpt lat="44.42236" lon="1.74384">
        <ele>298.2</ele>
        <time>2022-06-05T13:50:00Z</time>
      </trkpt>
      <trkpt lat="44.42237" lon="1.74391">
        <ele>298.3</ele>
        <time>2022-06-05T13:50:06Z</time>
      </trkpt>
      <trkpt lat="44.42235" lon="1.74397">
        <ele>297.9</ele>
        <time>2022-06-05T13:50:37Z</time>
      </trkpt>
      <trkpt lat="44.42233" lon="1.74402">
        <ele>296</ele>
        <time>2022-06-05T13:50:50Z</time>
      </trkpt>
      <trkpt lat="44.4223" lon="1.74408">
        <ele>295.1</ele>
        <time>2022-06-05T13:50:56Z</time>
      </trkpt>
      <trkpt lat="44.42226" lon="1.74413">
        <ele>293.9</ele>
        <time>2022-06-05T13:51:01Z</time>
      </trkpt>
      <trkpt lat="44.42222" lon="1.74417">
        <ele>293.3</ele>
        <time>2022-06-05T13:51:06Z</time>
      </trkpt>
      <trkpt lat="44.42219" lon="1.74421">
        <ele>292.9</ele>
        <time>2022-06-05T13:51:11Z</time>
      </trkpt>
      <trkpt lat="44.42216" lon="1.74426">
        <ele>292.6</ele>
        <time>2022-06-05T13:51:16Z</time>
      </trkpt>
      <trkpt lat="44.42213" lon="1.74432">
        <ele>292</ele>
        <time>2022-06-05T13:51:22Z</time>
      </trkpt>
      <trkpt lat="44.42213" lon="1.74439">
        <ele>291.7</ele>
        <time>2022-06-05T13:51:32Z</time>
      </trkpt>
      <trkpt lat="44.42214" lon="1.74445">
        <ele>292.1</ele>
        <time>2022-06-05T13:51:53Z</time>
      </trkpt>
      <trkpt lat="44.4221" lon="1.74449">
        <ele>291.6</ele>
        <time>2022-06-05T13:52:03Z</time>
      </trkpt>
      <trkpt lat="44.42207" lon="1.74454">
        <ele>290.5</ele>
        <time>2022-06-05T13:52:11Z</time>
      </trkpt>
      <trkpt lat="44.42205" lon="1.74461">
        <ele>291</ele>
        <time>2022-06-05T13:52:20Z</time>
      </trkpt>
      <trkpt lat="44.42206" lon="1.74468">
        <ele>291.1</ele>
        <time>2022-06-05T13:52:46Z</time>
      </trkpt>
      <trkpt lat="44.42204" lon="1.74475">
        <ele>291.3</ele>
        <time>2022-06-05T13:52:55Z</time>
      </trkpt>
      <trkpt lat="44.42204" lon="1.74481">
        <ele>290.9</ele>
        <time>2022-06-05T13:53:03Z</time>
      </trkpt>
      <trkpt lat="44.42203" lon="1.74488">
        <ele>290</ele>
        <time>2022-06-05T13:53:09Z</time>
      </trkpt>
      <trkpt lat="44.42202" lon="1.74495">
        <ele>289.4</ele>
        <time>2022-06-05T13:53:15Z</time>
      </trkpt>
      <trkpt lat="44.42202" lon="1.74501">
        <ele>289</ele>
        <time>2022-06-05T13:53:21Z</time>
      </trkpt>
      <trkpt lat="44.42201" lon="1.74508">
        <ele>288.7</ele>
        <time>2022-06-05T13:53:27Z</time>
      </trkpt>
      <trkpt lat="44.42201" lon="1.74514">
        <ele>288.8</ele>
        <time>2022-06-05T13:53:34Z</time>
      </trkpt>
      <trkpt lat="44.422" lon="1.74521">
        <ele>288.7</ele>
        <time>2022-06-05T13:53:42Z</time>
      </trkpt>
      <trkpt lat="44.422" lon="1.74528">
        <ele>288.2</ele>
        <time>2022-06-05T13:53:50Z</time>
      </trkpt>
      <trkpt lat="44.42201" lon="1.74535">
        <ele>287.4</ele>
        <time>2022-06-05T13:53:56Z</time>
      </trkpt>
      <trkpt lat="44.42202" lon="1.74541">
        <ele>286.4</ele>
        <time>2022-06-05T13:54:02Z</time>
      </trkpt>
      <trkpt lat="44.42203" lon="1.74548">
        <ele>285.4</ele>
        <time>2022-06-05T13:54:08Z</time>
      </trkpt>
      <trkpt lat="44.42204" lon="1.74555">
        <ele>285</ele>
        <time>2022-06-05T13:54:13Z</time>
      </trkpt>
      <trkpt lat="44.42205" lon="1.74561">
        <ele>285</ele>
        <time>2022-06-05T13:54:19Z</time>
      </trkpt>
      <trkpt lat="44.42208" lon="1.74567">
        <ele>284.7</ele>
        <time>2022-06-05T13:54:25Z</time>
      </trkpt>
      <trkpt lat="44.4221" lon="1.74574">
        <ele>284.6</ele>
        <time>2022-06-05T13:54:31Z</time>
      </trkpt>
      <trkpt lat="44.42212" lon="1.7458">
        <ele>284.1</ele>
        <time>2022-06-05T13:54:37Z</time>
      </trkpt>
      <trkpt lat="44.42214" lon="1.74587">
        <ele>284</ele>
        <time>2022-06-05T13:54:43Z</time>
      </trkpt>
      <trkpt lat="44.42216" lon="1.74593">
        <ele>283.7</ele>
        <time>2022-06-05T13:54:49Z</time>
      </trkpt>
      <trkpt lat="44.42218" lon="1.746">
        <ele>283.8</ele>
        <time>2022-06-05T13:54:55Z</time>
      </trkpt>
      <trkpt lat="44.42219" lon="1.74606">
        <ele>284</ele>
        <time>2022-06-05T13:55:00Z</time>
      </trkpt>
      <trkpt lat="44.42219" lon="1.74614">
        <ele>283.2</ele>
        <time>2022-06-05T13:55:06Z</time>
      </trkpt>
      <trkpt lat="44.42223" lon="1.74618">
        <ele>281.8</ele>
        <time>2022-06-05T13:55:17Z</time>
      </trkpt>
      <trkpt lat="44.42223" lon="1.74624">
        <ele>282.4</ele>
        <time>2022-06-05T13:55:23Z</time>
      </trkpt>
      <trkpt lat="44.42223" lon="1.74631">
        <ele>283</ele>
        <time>2022-06-05T13:55:29Z</time>
      </trkpt>
      <trkpt lat="44.42223" lon="1.74638">
        <ele>283.2</ele>
        <time>2022-06-05T13:55:35Z</time>
      </trkpt>
      <trkpt lat="44.42224" lon="1.74645">
        <ele>284.1</ele>
        <time>2022-06-05T13:55:41Z</time>
      </trkpt>
      <trkpt lat="44.42225" lon="1.74652">
        <ele>286</ele>
        <time>2022-06-05T13:55:47Z</time>
      </trkpt>
      <trkpt lat="44.42228" lon="1.74657">
        <ele>286.7</ele>
        <time>2022-06-05T13:55:57Z</time>
      </trkpt>
      <trkpt lat="44.42231" lon="1.74661">
        <ele>285.1</ele>
        <time>2022-06-05T13:56:06Z</time>
      </trkpt>
      <trkpt lat="44.42236" lon="1.74662">
        <ele>284</ele>
        <time>2022-06-05T13:56:15Z</time>
      </trkpt>
      <trkpt lat="44.42238" lon="1.74668">
        <ele>284.6</ele>
        <time>2022-06-05T13:56:22Z</time>
      </trkpt>
      <trkpt lat="44.4224" lon="1.74674">
        <ele>284.5</ele>
        <time>2022-06-05T13:56:28Z</time>
      </trkpt>
      <trkpt lat="44.42243" lon="1.74679">
        <ele>284.2</ele>
        <time>2022-06-05T13:56:33Z</time>
      </trkpt>
      <trkpt lat="44.42246" lon="1.74685">
        <ele>284.1</ele>
        <time>2022-06-05T13:56:39Z</time>
      </trkpt>
      <trkpt lat="44.42249" lon="1.7469">
        <ele>284.2</ele>
        <time>2022-06-05T13:56:45Z</time>
      </trkpt>
      <trkpt lat="44.42252" lon="1.74695">
        <ele>283.7</ele>
        <time>2022-06-05T13:56:52Z</time>
      </trkpt>
      <trkpt lat="44.42255" lon="1.747">
        <ele>283.9</ele>
        <time>2022-06-05T13:56:59Z</time>
      </trkpt>
      <trkpt lat="44.42258" lon="1.74705">
        <ele>282.5</ele>
        <time>2022-06-05T13:57:06Z</time>
      </trkpt>
      <trkpt lat="44.42262" lon="1.74708">
        <ele>280.9</ele>
        <time>2022-06-05T13:57:13Z</time>
      </trkpt>
      <trkpt lat="44.42266" lon="1.74712">
        <ele>280.3</ele>
        <time>2022-06-05T13:57:20Z</time>
      </trkpt>
      <trkpt lat="44.42271" lon="1.74715">
        <ele>280</ele>
        <time>2022-06-05T13:57:29Z</time>
      </trkpt>
      <trkpt lat="44.42273" lon="1.7472">
        <ele>279.6</ele>
        <time>2022-06-05T13:57:34Z</time>
      </trkpt>
      <trkpt lat="44.42275" lon="1.74727">
        <ele>278.9</ele>
        <time>2022-06-05T13:57:39Z</time>
      </trkpt>
      <trkpt lat="44.42278" lon="1.74733">
        <ele>278.2</ele>
        <time>2022-06-05T13:57:44Z</time>
      </trkpt>
      <trkpt lat="44.4228" lon="1.74738">
        <ele>277.7</ele>
        <time>2022-06-05T13:57:49Z</time>
      </trkpt>
      <trkpt lat="44.42282" lon="1.74745">
        <ele>277.4</ele>
        <time>2022-06-05T13:57:55Z</time>
      </trkpt>
      <trkpt lat="44.42284" lon="1.74751">
        <ele>277.2</ele>
        <time>2022-06-05T13:58:00Z</time>
      </trkpt>
      <trkpt lat="44.42285" lon="1.74758">
        <ele>277.1</ele>
        <time>2022-06-05T13:58:05Z</time>
      </trkpt>
      <trkpt lat="44.42287" lon="1.74764">
        <ele>276.7</ele>
        <time>2022-06-05T13:58:10Z</time>
      </trkpt>
      <trkpt lat="44.42289" lon="1.74771">
        <ele>276.3</ele>
        <time>2022-06-05T13:58:15Z</time>
      </trkpt>
      <trkpt lat="44.4229" lon="1.74778">
        <ele>275.7</ele>
        <time>2022-06-05T13:58:20Z</time>
      </trkpt>
      <trkpt lat="44.42291" lon="1.74784">
        <ele>275.5</ele>
        <time>2022-06-05T13:58:25Z</time>
      </trkpt>
      <trkpt lat="44.42293" lon="1.74791">
        <ele>275</ele>
        <time>2022-06-05T13:58:30Z</time>
      </trkpt>
      <trkpt lat="44.42295" lon="1.74798">
        <ele>274.5</ele>
        <time>2022-06-05T13:58:35Z</time>
      </trkpt>
      <trkpt lat="44.42296" lon="1.74805">
        <ele>274.2</ele>
        <time>2022-06-05T13:58:40Z</time>
      </trkpt>
      <trkpt lat="44.42298" lon="1.74811">
        <ele>273.5</ele>
        <time>2022-06-05T13:58:45Z</time>
      </trkpt>
      <trkpt lat="44.423" lon="1.74818">
        <ele>273.3</ele>
        <time>2022-06-05T13:58:50Z</time>
      </trkpt>
      <trkpt lat="44.42303" lon="1.74824">
        <ele>274.3</ele>
        <time>2022-06-05T13:58:55Z</time>
      </trkpt>
      <trkpt lat="44.42306" lon="1.7483">
        <ele>275.1</ele>
        <time>2022-06-05T13:59:00Z</time>
      </trkpt>
      <trkpt lat="44.42308" lon="1.74837">
        <ele>274.4</ele>
        <time>2022-06-05T13:59:05Z</time>
      </trkpt>
      <trkpt lat="44.42311" lon="1.74844">
        <ele>273.1</ele>
        <time>2022-06-05T13:59:10Z</time>
      </trkpt>
      <trkpt lat="44.42314" lon="1.74851">
        <ele>272.5</ele>
        <time>2022-06-05T13:59:15Z</time>
      </trkpt>
      <trkpt lat="44.42318" lon="1.74856">
        <ele>272.4</ele>
        <time>2022-06-05T13:59:20Z</time>
      </trkpt>
      <trkpt lat="44.42321" lon="1.74862">
        <ele>272.2</ele>
        <time>2022-06-05T13:59:25Z</time>
      </trkpt>
      <trkpt lat="44.42324" lon="1.74867">
        <ele>271.6</ele>
        <time>2022-06-05T13:59:30Z</time>
      </trkpt>
      <trkpt lat="44.42327" lon="1.74873">
        <ele>271.1</ele>
        <time>2022-06-05T13:59:35Z</time>
      </trkpt>
      <trkpt lat="44.4233" lon="1.74879">
        <ele>270.8</ele>
        <time>2022-06-05T13:59:40Z</time>
      </trkpt>
      <trkpt lat="44.42333" lon="1.74884">
        <ele>270.4</ele>
        <time>2022-06-05T13:59:45Z</time>
      </trkpt>
      <trkpt lat="44.42336" lon="1.74889">
        <ele>270.3</ele>
        <time>2022-06-05T13:59:50Z</time>
      </trkpt>
      <trkpt lat="44.4234" lon="1.74895">
        <ele>270.7</ele>
        <time>2022-06-05T13:59:55Z</time>
      </trkpt>
      <trkpt lat="44.42343" lon="1.74901">
        <ele>271.1</ele>
        <time>2022-06-05T14:00:00Z</time>
      </trkpt>
      <trkpt lat="44.42346" lon="1.74908">
        <ele>271.2</ele>
        <time>2022-06-05T14:00:05Z</time>
      </trkpt>
      <trkpt lat="44.42348" lon="1.74915">
        <ele>271.7</ele>
        <time>2022-06-05T14:00:10Z</time>
      </trkpt>
      <trkpt lat="44.4235" lon="1.74922">
        <ele>270.7</ele>
        <time>2022-06-05T14:00:15Z</time>
      </trkpt>
      <trkpt lat="44.42351" lon="1.74929">
        <ele>270.5</ele>
        <time>2022-06-05T14:00:20Z</time>
      </trkpt>
      <trkpt lat="44.42353" lon="1.74936">
        <ele>270.9</ele>
        <time>2022-06-05T14:00:25Z</time>
      </trkpt>
      <trkpt lat="44.42355" lon="1.74943">
        <ele>271</ele>
        <time>2022-06-05T14:00:30Z</time>
      </trkpt>
      <trkpt lat="44.42357" lon="1.7495">
        <ele>270.9</ele>
        <time>2022-06-05T14:00:35Z</time>
      </trkpt>
      <trkpt lat="44.42359" lon="1.74957">
        <ele>270.9</ele>
        <time>2022-06-05T14:00:40Z</time>
      </trkpt>
      <trkpt lat="44.4236" lon="1.74963">
        <ele>270.9</ele>
        <time>2022-06-05T14:00:45Z</time>
      </trkpt>
      <trkpt lat="44.42362" lon="1.7497">
        <ele>270.9</ele>
        <time>2022-06-05T14:00:50Z</time>
      </trkpt>
      <trkpt lat="44.42364" lon="1.74977">
        <ele>271</ele>
        <time>2022-06-05T14:00:55Z</time>
      </trkpt>
      <trkpt lat="44.42366" lon="1.74983">
        <ele>270.5</ele>
        <time>2022-06-05T14:01:00Z</time>
      </trkpt>
      <trkpt lat="44.42368" lon="1.74989">
        <ele>270.1</ele>
        <time>2022-06-05T14:01:05Z</time>
      </trkpt>
      <trkpt lat="44.4237" lon="1.74996">
        <ele>269.3</ele>
        <time>2022-06-05T14:01:10Z</time>
      </trkpt>
      <trkpt lat="44.42371" lon="1.75003">
        <ele>269</ele>
        <time>2022-06-05T14:01:15Z</time>
      </trkpt>
      <trkpt lat="44.42374" lon="1.7501">
        <ele>268.8</ele>
        <time>2022-06-05T14:01:20Z</time>
      </trkpt>
      <trkpt lat="44.42376" lon="1.75017">
        <ele>268.8</ele>
        <time>2022-06-05T14:01:25Z</time>
      </trkpt>
      <trkpt lat="44.42378" lon="1.75023">
        <ele>269.2</ele>
        <time>2022-06-05T14:01:30Z</time>
      </trkpt>
      <trkpt lat="44.4238" lon="1.7503">
        <ele>269.4</ele>
        <time>2022-06-05T14:01:35Z</time>
      </trkpt>
      <trkpt lat="44.42382" lon="1.75036">
        <ele>269.7</ele>
        <time>2022-06-05T14:01:40Z</time>
      </trkpt>
      <trkpt lat="44.42384" lon="1.75043">
        <ele>269.7</ele>
        <time>2022-06-05T14:01:45Z</time>
      </trkpt>
      <trkpt lat="44.42386" lon="1.7505">
        <ele>269.1</ele>
        <time>2022-06-05T14:01:50Z</time>
      </trkpt>
      <trkpt lat="44.42388" lon="1.75057">
        <ele>268.6</ele>
        <time>2022-06-05T14:01:55Z</time>
      </trkpt>
      <trkpt lat="44.42389" lon="1.75064">
        <ele>268.6</ele>
        <time>2022-06-05T14:02:00Z</time>
      </trkpt>
      <trkpt lat="44.42391" lon="1.75071">
        <ele>268.5</ele>
        <time>2022-06-05T14:02:05Z</time>
      </trkpt>
      <trkpt lat="44.42393" lon="1.75078">
        <ele>268.1</ele>
        <time>2022-06-05T14:02:10Z</time>
      </trkpt>
      <trkpt lat="44.42395" lon="1.75084">
        <ele>267.5</ele>
        <time>2022-06-05T14:02:15Z</time>
      </trkpt>
      <trkpt lat="44.42397" lon="1.75091">
        <ele>267</ele>
        <time>2022-06-05T14:02:20Z</time>
      </trkpt>
      <trkpt lat="44.42399" lon="1.75097">
        <ele>266.6</ele>
        <time>2022-06-05T14:02:25Z</time>
      </trkpt>
      <trkpt lat="44.42403" lon="1.75102">
        <ele>266.3</ele>
        <time>2022-06-05T14:02:30Z</time>
      </trkpt>
      <trkpt lat="44.42405" lon="1.75107">
        <ele>266.3</ele>
        <time>2022-06-05T14:02:36Z</time>
      </trkpt>
      <trkpt lat="44.42409" lon="1.75111">
        <ele>265.4</ele>
        <time>2022-06-05T14:04:02Z</time>
      </trkpt>
      <trkpt lat="44.42414" lon="1.75112">
        <ele>265.5</ele>
        <time>2022-06-05T14:04:18Z</time>
      </trkpt>
      <trkpt lat="44.42419" lon="1.75113">
        <ele>265.2</ele>
        <time>2022-06-05T14:04:24Z</time>
      </trkpt>
      <trkpt lat="44.42424" lon="1.75113">
        <ele>264.9</ele>
        <time>2022-06-05T14:04:29Z</time>
      </trkpt>
      <trkpt lat="44.42428" lon="1.75114">
        <ele>265.2</ele>
        <time>2022-06-05T14:04:34Z</time>
      </trkpt>
      <trkpt lat="44.42434" lon="1.75115">
        <ele>265.4</ele>
        <time>2022-06-05T14:04:39Z</time>
      </trkpt>
      <trkpt lat="44.42438" lon="1.75118">
        <ele>265</ele>
        <time>2022-06-05T14:04:43Z</time>
      </trkpt>
      <trkpt lat="44.42443" lon="1.75121">
        <ele>265.4</ele>
        <time>2022-06-05T14:04:47Z</time>
      </trkpt>
      <trkpt lat="44.42447" lon="1.75126">
        <ele>265.5</ele>
        <time>2022-06-05T14:04:52Z</time>
      </trkpt>
      <trkpt lat="44.4245" lon="1.75133">
        <ele>265.4</ele>
        <time>2022-06-05T14:04:56Z</time>
      </trkpt>
      <trkpt lat="44.42452" lon="1.7514">
        <ele>265</ele>
        <time>2022-06-05T14:05:00Z</time>
      </trkpt>
      <trkpt lat="44.42453" lon="1.75147">
        <ele>265.1</ele>
        <time>2022-06-05T14:05:04Z</time>
      </trkpt>
      <trkpt lat="44.42455" lon="1.75154">
        <ele>265.2</ele>
        <time>2022-06-05T14:05:08Z</time>
      </trkpt>
      <trkpt lat="44.42457" lon="1.7516">
        <ele>265.6</ele>
        <time>2022-06-05T14:05:12Z</time>
      </trkpt>
      <trkpt lat="44.42459" lon="1.75167">
        <ele>265.8</ele>
        <time>2022-06-05T14:05:16Z</time>
      </trkpt>
      <trkpt lat="44.42461" lon="1.75173">
        <ele>266.1</ele>
        <time>2022-06-05T14:05:20Z</time>
      </trkpt>
      <trkpt lat="44.42462" lon="1.75179">
        <ele>266</ele>
        <time>2022-06-05T14:05:24Z</time>
      </trkpt>
      <trkpt lat="44.42465" lon="1.75184">
        <ele>266.1</ele>
        <time>2022-06-05T14:05:28Z</time>
      </trkpt>
      <trkpt lat="44.42466" lon="1.7519">
        <ele>266.2</ele>
        <time>2022-06-05T14:05:32Z</time>
      </trkpt>
      <trkpt lat="44.42468" lon="1.75196">
        <ele>266.6</ele>
        <time>2022-06-05T14:05:36Z</time>
      </trkpt>
      <trkpt lat="44.4247" lon="1.75203">
        <ele>266.3</ele>
        <time>2022-06-05T14:05:41Z</time>
      </trkpt>
      <trkpt lat="44.42473" lon="1.7521">
        <ele>265.8</ele>
        <time>2022-06-05T14:05:46Z</time>
      </trkpt>
      <trkpt lat="44.42476" lon="1.75215">
        <ele>265.7</ele>
        <time>2022-06-05T14:05:50Z</time>
      </trkpt>
      <trkpt lat="44.42479" lon="1.75219">
        <ele>265.5</ele>
        <time>2022-06-05T14:05:54Z</time>
      </trkpt>
      <trkpt lat="44.42482" lon="1.75224">
        <ele>265.3</ele>
        <time>2022-06-05T14:05:58Z</time>
      </trkpt>
      <trkpt lat="44.42486" lon="1.75227">
        <ele>265.3</ele>
        <time>2022-06-05T14:06:02Z</time>
      </trkpt>
      <trkpt lat="44.4249" lon="1.7523">
        <ele>265.3</ele>
        <time>2022-06-05T14:06:06Z</time>
      </trkpt>
      <trkpt lat="44.42494" lon="1.75233">
        <ele>265.3</ele>
        <time>2022-06-05T14:06:10Z</time>
      </trkpt>
      <trkpt lat="44.42498" lon="1.75237">
        <ele>265.6</ele>
        <time>2022-06-05T14:06:14Z</time>
      </trkpt>
      <trkpt lat="44.42502" lon="1.75241">
        <ele>265.9</ele>
        <time>2022-06-05T14:06:18Z</time>
      </trkpt>
      <trkpt lat="44.42506" lon="1.75246">
        <ele>266.4</ele>
        <time>2022-06-05T14:06:22Z</time>
      </trkpt>
      <trkpt lat="44.4251" lon="1.75251">
        <ele>266.7</ele>
        <time>2022-06-05T14:06:26Z</time>
      </trkpt>
      <trkpt lat="44.42514" lon="1.75256">
        <ele>267.2</ele>
        <time>2022-06-05T14:06:30Z</time>
      </trkpt>
      <trkpt lat="44.42516" lon="1.75262">
        <ele>267.2</ele>
        <time>2022-06-05T14:06:34Z</time>
      </trkpt>
      <trkpt lat="44.42519" lon="1.75267">
        <ele>267.3</ele>
        <time>2022-06-05T14:06:38Z</time>
      </trkpt>
      <trkpt lat="44.42521" lon="1.75272">
        <ele>267.1</ele>
        <time>2022-06-05T14:06:42Z</time>
      </trkpt>
      <trkpt lat="44.42523" lon="1.7528">
        <ele>266.8</ele>
        <time>2022-06-05T14:06:47Z</time>
      </trkpt>
      <trkpt lat="44.42525" lon="1.75286">
        <ele>266.9</ele>
        <time>2022-06-05T14:06:52Z</time>
      </trkpt>
      <trkpt lat="44.42526" lon="1.75294">
        <ele>267</ele>
        <time>2022-06-05T14:06:57Z</time>
      </trkpt>
      <trkpt lat="44.42527" lon="1.753">
        <ele>266.7</ele>
        <time>2022-06-05T14:07:01Z</time>
      </trkpt>
      <trkpt lat="44.42528" lon="1.75307">
        <ele>266.3</ele>
        <time>2022-06-05T14:07:06Z</time>
      </trkpt>
      <trkpt lat="44.42528" lon="1.75314">
        <ele>265.5</ele>
        <time>2022-06-05T14:07:11Z</time>
      </trkpt>
      <trkpt lat="44.4253" lon="1.75321">
        <ele>265</ele>
        <time>2022-06-05T14:07:17Z</time>
      </trkpt>
      <trkpt lat="44.42531" lon="1.75327">
        <ele>265.3</ele>
        <time>2022-06-05T14:07:22Z</time>
      </trkpt>
      <trkpt lat="44.42533" lon="1.75333">
        <ele>263.8</ele>
        <time>2022-06-05T14:07:36Z</time>
      </trkpt>
      <trkpt lat="44.42538" lon="1.75336">
        <ele>263.3</ele>
        <time>2022-06-05T14:07:43Z</time>
      </trkpt>
      <trkpt lat="44.42542" lon="1.7534">
        <ele>262.9</ele>
        <time>2022-06-05T14:07:49Z</time>
      </trkpt>
      <trkpt lat="44.42545" lon="1.75345">
        <ele>262.3</ele>
        <time>2022-06-05T14:07:54Z</time>
      </trkpt>
      <trkpt lat="44.42548" lon="1.75349">
        <ele>262.5</ele>
        <time>2022-06-05T14:07:59Z</time>
      </trkpt>
      <trkpt lat="44.42552" lon="1.75353">
        <ele>264.1</ele>
        <time>2022-06-05T14:08:49Z</time>
      </trkpt>
      <trkpt lat="44.42553" lon="1.7536">
        <ele>265.8</ele>
        <time>2022-06-05T14:09:07Z</time>
      </trkpt>
      <trkpt lat="44.42556" lon="1.75367">
        <ele>266.4</ele>
        <time>2022-06-05T14:09:35Z</time>
      </trkpt>
      <trkpt lat="44.42558" lon="1.75372">
        <ele>266.1</ele>
        <time>2022-06-05T14:09:41Z</time>
      </trkpt>
      <trkpt lat="44.42562" lon="1.75377">
        <ele>264.7</ele>
        <time>2022-06-05T14:09:47Z</time>
      </trkpt>
      <trkpt lat="44.42565" lon="1.75383">
        <ele>264</ele>
        <time>2022-06-05T14:09:53Z</time>
      </trkpt>
      <trkpt lat="44.42566" lon="1.7539">
        <ele>263.4</ele>
        <time>2022-06-05T14:09:58Z</time>
      </trkpt>
      <trkpt lat="44.42565" lon="1.75396">
        <ele>262.5</ele>
        <time>2022-06-05T14:10:08Z</time>
      </trkpt>
      <trkpt lat="44.42562" lon="1.754">
        <ele>262.8</ele>
        <time>2022-06-05T14:10:15Z</time>
      </trkpt>
      <trkpt lat="44.42558" lon="1.75406">
        <ele>262.3</ele>
        <time>2022-06-05T14:10:22Z</time>
      </trkpt>
      <trkpt lat="44.42555" lon="1.75411">
        <ele>261.9</ele>
        <time>2022-06-05T14:10:28Z</time>
      </trkpt>
      <trkpt lat="44.42551" lon="1.75415">
        <ele>263.5</ele>
        <time>2022-06-05T14:10:41Z</time>
      </trkpt>
      <trkpt lat="44.42548" lon="1.7542">
        <ele>260.8</ele>
        <time>2022-06-05T14:12:13Z</time>
      </trkpt>
      <trkpt lat="44.42544" lon="1.75425">
        <ele>260.3</ele>
        <time>2022-06-05T14:12:19Z</time>
      </trkpt>
      <trkpt lat="44.42541" lon="1.75429">
        <ele>260.2</ele>
        <time>2022-06-05T14:12:24Z</time>
      </trkpt>
      <trkpt lat="44.42537" lon="1.75434">
        <ele>260.6</ele>
        <time>2022-06-05T14:12:30Z</time>
      </trkpt>
      <trkpt lat="44.42534" lon="1.75439">
        <ele>260.7</ele>
        <time>2022-06-05T14:12:37Z</time>
      </trkpt>
      <trkpt lat="44.42531" lon="1.75445">
        <ele>260.9</ele>
        <time>2022-06-05T14:12:45Z</time>
      </trkpt>
      <trkpt lat="44.42534" lon="1.75449">
        <ele>259.1</ele>
        <time>2022-06-05T14:12:55Z</time>
      </trkpt>
      <trkpt lat="44.42538" lon="1.75453">
        <ele>258.8</ele>
        <time>2022-06-05T14:13:02Z</time>
      </trkpt>
      <trkpt lat="44.42542" lon="1.75458">
        <ele>256.7</ele>
        <time>2022-06-05T14:13:15Z</time>
      </trkpt>
      <trkpt lat="44.42542" lon="1.75464">
        <ele>256.6</ele>
        <time>2022-06-05T14:13:23Z</time>
      </trkpt>
      <trkpt lat="44.42546" lon="1.75469">
        <ele>259.5</ele>
        <time>2022-06-05T14:13:29Z</time>
      </trkpt>
      <trkpt lat="44.42551" lon="1.7547">
        <ele>261.2</ele>
        <time>2022-06-05T14:13:35Z</time>
      </trkpt>
      <trkpt lat="44.42555" lon="1.75472">
        <ele>261.5</ele>
        <time>2022-06-05T14:13:42Z</time>
      </trkpt>
      <trkpt lat="44.42559" lon="1.75475">
        <ele>259.5</ele>
        <time>2022-06-05T14:13:53Z</time>
      </trkpt>
      <trkpt lat="44.42564" lon="1.75477">
        <ele>258.6</ele>
        <time>2022-06-05T14:13:59Z</time>
      </trkpt>
      <trkpt lat="44.4257" lon="1.7548">
        <ele>258.7</ele>
        <time>2022-06-05T14:14:03Z</time>
      </trkpt>
      <trkpt lat="44.42574" lon="1.75483">
        <ele>257.6</ele>
        <time>2022-06-05T14:14:08Z</time>
      </trkpt>
      <trkpt lat="44.42578" lon="1.75485">
        <ele>257.4</ele>
        <time>2022-06-05T14:14:13Z</time>
      </trkpt>
      <trkpt lat="44.42583" lon="1.75487">
        <ele>256.8</ele>
        <time>2022-06-05T14:14:18Z</time>
      </trkpt>
      <trkpt lat="44.42588" lon="1.75491">
        <ele>256.2</ele>
        <time>2022-06-05T14:14:23Z</time>
      </trkpt>
      <trkpt lat="44.42592" lon="1.75495">
        <ele>256.2</ele>
        <time>2022-06-05T14:14:28Z</time>
      </trkpt>
      <trkpt lat="44.42597" lon="1.75498">
        <ele>255.5</ele>
        <time>2022-06-05T14:14:33Z</time>
      </trkpt>
      <trkpt lat="44.42602" lon="1.75502">
        <ele>255.1</ele>
        <time>2022-06-05T14:14:38Z</time>
      </trkpt>
      <trkpt lat="44.42606" lon="1.75507">
        <ele>255.4</ele>
        <time>2022-06-05T14:14:43Z</time>
      </trkpt>
      <trkpt lat="44.4261" lon="1.75512">
        <ele>255.7</ele>
        <time>2022-06-05T14:14:48Z</time>
      </trkpt>
      <trkpt lat="44.42615" lon="1.75516">
        <ele>255.8</ele>
        <time>2022-06-05T14:14:53Z</time>
      </trkpt>
      <trkpt lat="44.4262" lon="1.7552">
        <ele>254.8</ele>
        <time>2022-06-05T14:14:58Z</time>
      </trkpt>
      <trkpt lat="44.42624" lon="1.75523">
        <ele>254</ele>
        <time>2022-06-05T14:15:03Z</time>
      </trkpt>
      <trkpt lat="44.42629" lon="1.75527">
        <ele>254.4</ele>
        <time>2022-06-05T14:15:08Z</time>
      </trkpt>
      <trkpt lat="44.42633" lon="1.75532">
        <ele>254.6</ele>
        <time>2022-06-05T14:15:13Z</time>
      </trkpt>
      <trkpt lat="44.42638" lon="1.75535">
        <ele>254.6</ele>
        <time>2022-06-05T14:15:18Z</time>
      </trkpt>
      <trkpt lat="44.42642" lon="1.75537">
        <ele>255</ele>
        <time>2022-06-05T14:15:23Z</time>
      </trkpt>
      <trkpt lat="44.42647" lon="1.75538">
        <ele>254.3</ele>
        <time>2022-06-05T14:15:30Z</time>
      </trkpt>
      <trkpt lat="44.42651" lon="1.7554">
        <ele>253.6</ele>
        <time>2022-06-05T14:15:40Z</time>
      </trkpt>
      <trkpt lat="44.42647" lon="1.7554">
        <ele>255.9</ele>
        <time>2022-06-05T14:19:14Z</time>
      </trkpt>
      <trkpt lat="44.42642" lon="1.75538">
        <ele>253.1</ele>
        <time>2022-06-05T14:21:10Z</time>
      </trkpt>
      <trkpt lat="44.42638" lon="1.75534">
        <ele>251.2</ele>
        <time>2022-06-05T14:21:43Z</time>
      </trkpt>
      <trkpt lat="44.42634" lon="1.75534">
        <ele>251.8</ele>
        <time>2022-06-05T14:22:13Z</time>
      </trkpt>
      <trkpt lat="44.4263" lon="1.75531">
        <ele>251.3</ele>
        <time>2022-06-05T14:22:18Z</time>
      </trkpt>
      <trkpt lat="44.42625" lon="1.75528">
        <ele>250.8</ele>
        <time>2022-06-05T14:22:23Z</time>
      </trkpt>
      <trkpt lat="44.42621" lon="1.7553">
        <ele>251</ele>
        <time>2022-06-05T14:22:37Z</time>
      </trkpt>
      <trkpt lat="44.42617" lon="1.75527">
        <ele>251.5</ele>
        <time>2022-06-05T14:22:43Z</time>
      </trkpt>
      <trkpt lat="44.42613" lon="1.75523">
        <ele>251.8</ele>
        <time>2022-06-05T14:22:48Z</time>
      </trkpt>
      <trkpt lat="44.42608" lon="1.75519">
        <ele>251.9</ele>
        <time>2022-06-05T14:22:53Z</time>
      </trkpt>
      <trkpt lat="44.42605" lon="1.75516">
        <ele>251.7</ele>
        <time>2022-06-05T14:22:57Z</time>
      </trkpt>
      <trkpt lat="44.42601" lon="1.75511">
        <ele>252.2</ele>
        <time>2022-06-05T14:23:01Z</time>
      </trkpt>
      <trkpt lat="44.42597" lon="1.75506">
        <ele>252.3</ele>
        <time>2022-06-05T14:23:05Z</time>
      </trkpt>
      <trkpt lat="44.42593" lon="1.75502">
        <ele>252.8</ele>
        <time>2022-06-05T14:23:09Z</time>
      </trkpt>
      <trkpt lat="44.42589" lon="1.75498">
        <ele>253</ele>
        <time>2022-06-05T14:23:14Z</time>
      </trkpt>
      <trkpt lat="44.42585" lon="1.75495">
        <ele>253.5</ele>
        <time>2022-06-05T14:23:18Z</time>
      </trkpt>
      <trkpt lat="44.42581" lon="1.75491">
        <ele>253.7</ele>
        <time>2022-06-05T14:23:22Z</time>
      </trkpt>
      <trkpt lat="44.42576" lon="1.75487">
        <ele>253.7</ele>
        <time>2022-06-05T14:23:27Z</time>
      </trkpt>
      <trkpt lat="44.42572" lon="1.75485">
        <ele>253.7</ele>
        <time>2022-06-05T14:23:31Z</time>
      </trkpt>
      <trkpt lat="44.42568" lon="1.75482">
        <ele>253.5</ele>
        <time>2022-06-05T14:23:35Z</time>
      </trkpt>
      <trkpt lat="44.42564" lon="1.75479">
        <ele>253.7</ele>
        <time>2022-06-05T14:23:39Z</time>
      </trkpt>
      <trkpt lat="44.42559" lon="1.75474">
        <ele>253.9</ele>
        <time>2022-06-05T14:23:44Z</time>
      </trkpt>
      <trkpt lat="44.42556" lon="1.75469">
        <ele>253.5</ele>
        <time>2022-06-05T14:23:49Z</time>
      </trkpt>
      <trkpt lat="44.42551" lon="1.75465">
        <ele>253.2</ele>
        <time>2022-06-05T14:23:54Z</time>
      </trkpt>
      <trkpt lat="44.42547" lon="1.75461">
        <ele>253.5</ele>
        <time>2022-06-05T14:23:59Z</time>
      </trkpt>
      <trkpt lat="44.42542" lon="1.75458">
        <ele>254.1</ele>
        <time>2022-06-05T14:24:04Z</time>
      </trkpt>
      <trkpt lat="44.42536" lon="1.75456">
        <ele>255</ele>
        <time>2022-06-05T14:24:09Z</time>
      </trkpt>
      <trkpt lat="44.42533" lon="1.75451">
        <ele>255.8</ele>
        <time>2022-06-05T14:24:14Z</time>
      </trkpt>
      <trkpt lat="44.42532" lon="1.75444">
        <ele>257.1</ele>
        <time>2022-06-05T14:24:19Z</time>
      </trkpt>
      <trkpt lat="44.42535" lon="1.75438">
        <ele>257.2</ele>
        <time>2022-06-05T14:24:24Z</time>
      </trkpt>
      <trkpt lat="44.42538" lon="1.75433">
        <ele>258</ele>
        <time>2022-06-05T14:24:29Z</time>
      </trkpt>
      <trkpt lat="44.42541" lon="1.75428">
        <ele>259.2</ele>
        <time>2022-06-05T14:24:34Z</time>
      </trkpt>
      <trkpt lat="44.42544" lon="1.75423">
        <ele>260.3</ele>
        <time>2022-06-05T14:24:39Z</time>
      </trkpt>
      <trkpt lat="44.42547" lon="1.75418">
        <ele>260.2</ele>
        <time>2022-06-05T14:24:44Z</time>
      </trkpt>
      <trkpt lat="44.42551" lon="1.75414">
        <ele>259.4</ele>
        <time>2022-06-05T14:24:49Z</time>
      </trkpt>
      <trkpt lat="44.42554" lon="1.75409">
        <ele>257.6</ele>
        <time>2022-06-05T14:25:59Z</time>
      </trkpt>
      <trkpt lat="44.42558" lon="1.75405">
        <ele>259.5</ele>
        <time>2022-06-05T14:26:10Z</time>
      </trkpt>
      <trkpt lat="44.42561" lon="1.754">
        <ele>259.3</ele>
        <time>2022-06-05T14:26:18Z</time>
      </trkpt>
      <trkpt lat="44.42566" lon="1.75397">
        <ele>259.1</ele>
        <time>2022-06-05T14:26:24Z</time>
      </trkpt>
      <trkpt lat="44.42571" lon="1.75398">
        <ele>258.6</ele>
        <time>2022-06-05T14:26:29Z</time>
      </trkpt>
      <trkpt lat="44.42575" lon="1.75401">
        <ele>260.1</ele>
        <time>2022-06-05T14:26:35Z</time>
      </trkpt>
      <trkpt lat="44.42572" lon="1.75396">
        <ele>261.8</ele>
        <time>2022-06-05T14:27:10Z</time>
      </trkpt>
      <trkpt lat="44.42569" lon="1.75391">
        <ele>262.6</ele>
        <time>2022-06-05T14:27:14Z</time>
      </trkpt>
      <trkpt lat="44.42566" lon="1.75386">
        <ele>263</ele>
        <time>2022-06-05T14:27:18Z</time>
      </trkpt>
      <trkpt lat="44.42562" lon="1.7538">
        <ele>263.4</ele>
        <time>2022-06-05T14:27:23Z</time>
      </trkpt>
      <trkpt lat="44.42559" lon="1.75376">
        <ele>264</ele>
        <time>2022-06-05T14:27:28Z</time>
      </trkpt>
      <trkpt lat="44.42556" lon="1.7537">
        <ele>265.1</ele>
        <time>2022-06-05T14:27:33Z</time>
      </trkpt>
      <trkpt lat="44.42553" lon="1.75364">
        <ele>265.7</ele>
        <time>2022-06-05T14:27:39Z</time>
      </trkpt>
      <trkpt lat="44.4255" lon="1.75359">
        <ele>265.6</ele>
        <time>2022-06-05T14:27:45Z</time>
      </trkpt>
      <trkpt lat="44.42547" lon="1.75354">
        <ele>265.4</ele>
        <time>2022-06-05T14:27:50Z</time>
      </trkpt>
      <trkpt lat="44.42544" lon="1.75348">
        <ele>264.8</ele>
        <time>2022-06-05T14:27:56Z</time>
      </trkpt>
      <trkpt lat="44.42541" lon="1.75343">
        <ele>264.5</ele>
        <time>2022-06-05T14:28:01Z</time>
      </trkpt>
      <trkpt lat="44.42538" lon="1.75337">
        <ele>264.3</ele>
        <time>2022-06-05T14:28:06Z</time>
      </trkpt>
      <trkpt lat="44.42535" lon="1.75332">
        <ele>264.3</ele>
        <time>2022-06-05T14:28:11Z</time>
      </trkpt>
      <trkpt lat="44.42531" lon="1.75326">
        <ele>264.1</ele>
        <time>2022-06-05T14:28:17Z</time>
      </trkpt>
      <trkpt lat="44.42527" lon="1.75322">
        <ele>264.5</ele>
        <time>2022-06-05T14:28:23Z</time>
      </trkpt>
      <trkpt lat="44.42522" lon="1.7532">
        <ele>264.3</ele>
        <time>2022-06-05T14:28:30Z</time>
      </trkpt>
      <trkpt lat="44.42525" lon="1.75315">
        <ele>265</ele>
        <time>2022-06-05T14:30:10Z</time>
      </trkpt>
      <trkpt lat="44.42526" lon="1.75308">
        <ele>266</ele>
        <time>2022-06-05T14:30:18Z</time>
      </trkpt>
      <trkpt lat="44.42526" lon="1.75301">
        <ele>267</ele>
        <time>2022-06-05T14:30:24Z</time>
      </trkpt>
      <trkpt lat="44.42524" lon="1.75294">
        <ele>266.8</ele>
        <time>2022-06-05T14:30:30Z</time>
      </trkpt>
      <trkpt lat="44.42523" lon="1.75288">
        <ele>266.5</ele>
        <time>2022-06-05T14:30:35Z</time>
      </trkpt>
      <trkpt lat="44.42521" lon="1.75282">
        <ele>266.4</ele>
        <time>2022-06-05T14:30:41Z</time>
      </trkpt>
      <trkpt lat="44.42519" lon="1.75276">
        <ele>266</ele>
        <time>2022-06-05T14:30:47Z</time>
      </trkpt>
      <trkpt lat="44.42518" lon="1.75269">
        <ele>265.8</ele>
        <time>2022-06-05T14:30:53Z</time>
      </trkpt>
      <trkpt lat="44.42515" lon="1.75262">
        <ele>265.1</ele>
        <time>2022-06-05T14:30:59Z</time>
      </trkpt>
      <trkpt lat="44.42512" lon="1.75257">
        <ele>264.6</ele>
        <time>2022-06-05T14:31:05Z</time>
      </trkpt>
      <trkpt lat="44.42508" lon="1.75253">
        <ele>264.5</ele>
        <time>2022-06-05T14:31:10Z</time>
      </trkpt>
      <trkpt lat="44.42503" lon="1.75251">
        <ele>264.3</ele>
        <time>2022-06-05T14:31:16Z</time>
      </trkpt>
      <trkpt lat="44.42499" lon="1.75248">
        <ele>264.1</ele>
        <time>2022-06-05T14:31:21Z</time>
      </trkpt>
      <trkpt lat="44.42495" lon="1.75244">
        <ele>264.2</ele>
        <time>2022-06-05T14:31:26Z</time>
      </trkpt>
      <trkpt lat="44.4249" lon="1.7524">
        <ele>264.5</ele>
        <time>2022-06-05T14:31:31Z</time>
      </trkpt>
      <trkpt lat="44.42487" lon="1.75236">
        <ele>264.8</ele>
        <time>2022-06-05T14:31:35Z</time>
      </trkpt>
      <trkpt lat="44.42482" lon="1.75232">
        <ele>265.3</ele>
        <time>2022-06-05T14:31:40Z</time>
      </trkpt>
      <trkpt lat="44.42478" lon="1.75228">
        <ele>265.4</ele>
        <time>2022-06-05T14:31:45Z</time>
      </trkpt>
      <trkpt lat="44.42474" lon="1.75222">
        <ele>265.3</ele>
        <time>2022-06-05T14:31:50Z</time>
      </trkpt>
      <trkpt lat="44.42472" lon="1.75217">
        <ele>264.9</ele>
        <time>2022-06-05T14:31:54Z</time>
      </trkpt>
      <trkpt lat="44.42468" lon="1.75211">
        <ele>264.5</ele>
        <time>2022-06-05T14:31:59Z</time>
      </trkpt>
      <trkpt lat="44.42466" lon="1.75205">
        <ele>264.6</ele>
        <time>2022-06-05T14:32:03Z</time>
      </trkpt>
      <trkpt lat="44.42465" lon="1.75198">
        <ele>264.9</ele>
        <time>2022-06-05T14:32:07Z</time>
      </trkpt>
      <trkpt lat="44.42462" lon="1.75191">
        <ele>265.2</ele>
        <time>2022-06-05T14:32:12Z</time>
      </trkpt>
      <trkpt lat="44.4246" lon="1.75186">
        <ele>265.3</ele>
        <time>2022-06-05T14:32:16Z</time>
      </trkpt>
      <trkpt lat="44.42459" lon="1.7518">
        <ele>264.8</ele>
        <time>2022-06-05T14:32:20Z</time>
      </trkpt>
      <trkpt lat="44.42456" lon="1.75173">
        <ele>264.9</ele>
        <time>2022-06-05T14:32:25Z</time>
      </trkpt>
      <trkpt lat="44.42454" lon="1.75165">
        <ele>264.7</ele>
        <time>2022-06-05T14:32:30Z</time>
      </trkpt>
      <trkpt lat="44.42453" lon="1.75158">
        <ele>264.4</ele>
        <time>2022-06-05T14:32:35Z</time>
      </trkpt>
      <trkpt lat="44.42451" lon="1.75151">
        <ele>264.4</ele>
        <time>2022-06-05T14:32:40Z</time>
      </trkpt>
      <trkpt lat="44.4245" lon="1.75145">
        <ele>264.6</ele>
        <time>2022-06-05T14:32:45Z</time>
      </trkpt>
      <trkpt lat="44.42448" lon="1.75138">
        <ele>264.5</ele>
        <time>2022-06-05T14:32:50Z</time>
      </trkpt>
      <trkpt lat="44.42445" lon="1.75132">
        <ele>264.5</ele>
        <time>2022-06-05T14:32:55Z</time>
      </trkpt>
      <trkpt lat="44.42441" lon="1.75127">
        <ele>264.2</ele>
        <time>2022-06-05T14:33:00Z</time>
      </trkpt>
      <trkpt lat="44.42437" lon="1.75124">
        <ele>264</ele>
        <time>2022-06-05T14:33:05Z</time>
      </trkpt>
      <trkpt lat="44.42432" lon="1.75122">
        <ele>264.5</ele>
        <time>2022-06-05T14:33:10Z</time>
      </trkpt>
      <trkpt lat="44.42427" lon="1.75121">
        <ele>265.2</ele>
        <time>2022-06-05T14:33:15Z</time>
      </trkpt>
      <trkpt lat="44.42421" lon="1.7512">
        <ele>265.4</ele>
        <time>2022-06-05T14:33:20Z</time>
      </trkpt>
      <trkpt lat="44.42417" lon="1.75119">
        <ele>265.4</ele>
        <time>2022-06-05T14:33:25Z</time>
      </trkpt>
      <trkpt lat="44.42412" lon="1.75118">
        <ele>265.3</ele>
        <time>2022-06-05T14:33:31Z</time>
      </trkpt>
      <trkpt lat="44.42407" lon="1.75116">
        <ele>264.9</ele>
        <time>2022-06-05T14:33:37Z</time>
      </trkpt>
      <trkpt lat="44.42402" lon="1.75117">
        <ele>264.7</ele>
        <time>2022-06-05T14:33:43Z</time>
      </trkpt>
      <trkpt lat="44.42397" lon="1.75119">
        <ele>264.5</ele>
        <time>2022-06-05T14:33:49Z</time>
      </trkpt>
      <trkpt lat="44.42393" lon="1.75123">
        <ele>264.9</ele>
        <time>2022-06-05T14:33:55Z</time>
      </trkpt>
      <trkpt lat="44.42388" lon="1.75125">
        <ele>265.3</ele>
        <time>2022-06-05T14:34:01Z</time>
      </trkpt>
      <trkpt lat="44.42384" lon="1.75128">
        <ele>265.6</ele>
        <time>2022-06-05T14:34:06Z</time>
      </trkpt>
      <trkpt lat="44.42379" lon="1.75131">
        <ele>266.1</ele>
        <time>2022-06-05T14:34:12Z</time>
      </trkpt>
      <trkpt lat="44.42375" lon="1.75134">
        <ele>266.6</ele>
        <time>2022-06-05T14:34:18Z</time>
      </trkpt>
      <trkpt lat="44.4237" lon="1.75136">
        <ele>266.9</ele>
        <time>2022-06-05T14:34:24Z</time>
      </trkpt>
      <trkpt lat="44.42365" lon="1.75139">
        <ele>266.9</ele>
        <time>2022-06-05T14:34:30Z</time>
      </trkpt>
      <trkpt lat="44.4236" lon="1.75142">
        <ele>267</ele>
        <time>2022-06-05T14:34:36Z</time>
      </trkpt>
      <trkpt lat="44.42356" lon="1.75144">
        <ele>267.3</ele>
        <time>2022-06-05T14:34:41Z</time>
      </trkpt>
      <trkpt lat="44.42351" lon="1.75146">
        <ele>267.2</ele>
        <time>2022-06-05T14:34:46Z</time>
      </trkpt>
      <trkpt lat="44.42346" lon="1.75147">
        <ele>267.2</ele>
        <time>2022-06-05T14:34:51Z</time>
      </trkpt>
      <trkpt lat="44.42342" lon="1.75149">
        <ele>267.2</ele>
        <time>2022-06-05T14:34:56Z</time>
      </trkpt>
      <trkpt lat="44.42338" lon="1.7515">
        <ele>267.3</ele>
        <time>2022-06-05T14:35:01Z</time>
      </trkpt>
      <trkpt lat="44.42333" lon="1.75153">
        <ele>267.3</ele>
        <time>2022-06-05T14:35:06Z</time>
      </trkpt>
      <trkpt lat="44.42328" lon="1.75155">
        <ele>267.2</ele>
        <time>2022-06-05T14:35:11Z</time>
      </trkpt>
      <trkpt lat="44.42324" lon="1.75158">
        <ele>267.1</ele>
        <time>2022-06-05T14:35:16Z</time>
      </trkpt>
      <trkpt lat="44.42319" lon="1.75161">
        <ele>268</ele>
        <time>2022-06-05T14:35:21Z</time>
      </trkpt>
      <trkpt lat="44.42315" lon="1.75164">
        <ele>268.1</ele>
        <time>2022-06-05T14:35:26Z</time>
      </trkpt>
      <trkpt lat="44.4231" lon="1.75166">
        <ele>268</ele>
        <time>2022-06-05T14:35:31Z</time>
      </trkpt>
      <trkpt lat="44.42305" lon="1.75168">
        <ele>267.8</ele>
        <time>2022-06-05T14:35:36Z</time>
      </trkpt>
      <trkpt lat="44.42301" lon="1.75171">
        <ele>268.5</ele>
        <time>2022-06-05T14:35:41Z</time>
      </trkpt>
      <trkpt lat="44.42295" lon="1.75172">
        <ele>268.4</ele>
        <time>2022-06-05T14:35:46Z</time>
      </trkpt>
      <trkpt lat="44.42291" lon="1.75174">
        <ele>267.9</ele>
        <time>2022-06-05T14:35:51Z</time>
      </trkpt>
      <trkpt lat="44.42286" lon="1.75176">
        <ele>267.6</ele>
        <time>2022-06-05T14:35:56Z</time>
      </trkpt>
      <trkpt lat="44.42281" lon="1.75178">
        <ele>267.5</ele>
        <time>2022-06-05T14:36:01Z</time>
      </trkpt>
      <trkpt lat="44.42276" lon="1.7518">
        <ele>268.1</ele>
        <time>2022-06-05T14:36:06Z</time>
      </trkpt>
      <trkpt lat="44.42271" lon="1.75183">
        <ele>268.2</ele>
        <time>2022-06-05T14:36:11Z</time>
      </trkpt>
      <trkpt lat="44.42267" lon="1.75185">
        <ele>268.1</ele>
        <time>2022-06-05T14:36:16Z</time>
      </trkpt>
      <trkpt lat="44.42263" lon="1.75188">
        <ele>268.4</ele>
        <time>2022-06-05T14:36:20Z</time>
      </trkpt>
      <trkpt lat="44.42257" lon="1.7519">
        <ele>268.6</ele>
        <time>2022-06-05T14:36:25Z</time>
      </trkpt>
      <trkpt lat="44.42252" lon="1.75192">
        <ele>268.3</ele>
        <time>2022-06-05T14:36:30Z</time>
      </trkpt>
      <trkpt lat="44.42248" lon="1.75195">
        <ele>267.7</ele>
        <time>2022-06-05T14:36:35Z</time>
      </trkpt>
      <trkpt lat="44.42242" lon="1.75196">
        <ele>266.7</ele>
        <time>2022-06-05T14:36:40Z</time>
      </trkpt>
      <trkpt lat="44.42237" lon="1.75198">
        <ele>266.5</ele>
        <time>2022-06-05T14:36:45Z</time>
      </trkpt>
      <trkpt lat="44.42232" lon="1.75199">
        <ele>267.1</ele>
        <time>2022-06-05T14:36:50Z</time>
      </trkpt>
      <trkpt lat="44.42227" lon="1.75202">
        <ele>267.8</ele>
        <time>2022-06-05T14:36:55Z</time>
      </trkpt>
      <trkpt lat="44.42222" lon="1.75203">
        <ele>268.3</ele>
        <time>2022-06-05T14:37:00Z</time>
      </trkpt>
      <trkpt lat="44.42217" lon="1.75205">
        <ele>268.2</ele>
        <time>2022-06-05T14:37:05Z</time>
      </trkpt>
      <trkpt lat="44.42212" lon="1.75207">
        <ele>267.9</ele>
        <time>2022-06-05T14:37:10Z</time>
      </trkpt>
      <trkpt lat="44.42207" lon="1.75208">
        <ele>267.7</ele>
        <time>2022-06-05T14:37:15Z</time>
      </trkpt>
      <trkpt lat="44.42202" lon="1.75211">
        <ele>267.7</ele>
        <time>2022-06-05T14:37:20Z</time>
      </trkpt>
      <trkpt lat="44.42197" lon="1.75212">
        <ele>267.4</ele>
        <time>2022-06-05T14:37:25Z</time>
      </trkpt>
      <trkpt lat="44.42193" lon="1.75213">
        <ele>267.1</ele>
        <time>2022-06-05T14:37:30Z</time>
      </trkpt>
      <trkpt lat="44.42188" lon="1.75216">
        <ele>267</ele>
        <time>2022-06-05T14:37:35Z</time>
      </trkpt>
      <trkpt lat="44.42183" lon="1.75219">
        <ele>267.4</ele>
        <time>2022-06-05T14:37:40Z</time>
      </trkpt>
      <trkpt lat="44.42179" lon="1.75222">
        <ele>268.2</ele>
        <time>2022-06-05T14:37:45Z</time>
      </trkpt>
      <trkpt lat="44.42175" lon="1.75225">
        <ele>268.8</ele>
        <time>2022-06-05T14:37:50Z</time>
      </trkpt>
      <trkpt lat="44.4217" lon="1.75228">
        <ele>268.6</ele>
        <time>2022-06-05T14:37:55Z</time>
      </trkpt>
      <trkpt lat="44.42166" lon="1.75231">
        <ele>268.3</ele>
        <time>2022-06-05T14:37:59Z</time>
      </trkpt>
      <trkpt lat="44.42161" lon="1.75235">
        <ele>268.3</ele>
        <time>2022-06-05T14:38:04Z</time>
      </trkpt>
      <trkpt lat="44.42157" lon="1.75239">
        <ele>268.5</ele>
        <time>2022-06-05T14:38:09Z</time>
      </trkpt>
      <trkpt lat="44.42153" lon="1.75242">
        <ele>268.7</ele>
        <time>2022-06-05T14:38:14Z</time>
      </trkpt>
      <trkpt lat="44.42147" lon="1.75245">
        <ele>268.7</ele>
        <time>2022-06-05T14:38:19Z</time>
      </trkpt>
      <trkpt lat="44.42142" lon="1.75247">
        <ele>268.5</ele>
        <time>2022-06-05T14:38:24Z</time>
      </trkpt>
      <trkpt lat="44.42138" lon="1.75249">
        <ele>268.2</ele>
        <time>2022-06-05T14:38:29Z</time>
      </trkpt>
      <trkpt lat="44.42133" lon="1.75251">
        <ele>267.8</ele>
        <time>2022-06-05T14:38:34Z</time>
      </trkpt>
      <trkpt lat="44.42129" lon="1.75253">
        <ele>267.7</ele>
        <time>2022-06-05T14:38:39Z</time>
      </trkpt>
      <trkpt lat="44.42124" lon="1.75255">
        <ele>267.6</ele>
        <time>2022-06-05T14:38:44Z</time>
      </trkpt>
      <trkpt lat="44.4212" lon="1.75257">
        <ele>267.5</ele>
        <time>2022-06-05T14:38:48Z</time>
      </trkpt>
      <trkpt lat="44.42115" lon="1.75261">
        <ele>267.9</ele>
        <time>2022-06-05T14:38:53Z</time>
      </trkpt>
      <trkpt lat="44.42111" lon="1.75264">
        <ele>268.2</ele>
        <time>2022-06-05T14:38:58Z</time>
      </trkpt>
      <trkpt lat="44.42106" lon="1.75268">
        <ele>268.8</ele>
        <time>2022-06-05T14:39:03Z</time>
      </trkpt>
      <trkpt lat="44.42102" lon="1.75272">
        <ele>269.2</ele>
        <time>2022-06-05T14:39:08Z</time>
      </trkpt>
      <trkpt lat="44.42098" lon="1.75276">
        <ele>268.8</ele>
        <time>2022-06-05T14:39:13Z</time>
      </trkpt>
      <trkpt lat="44.42094" lon="1.75281">
        <ele>268.8</ele>
        <time>2022-06-05T14:39:18Z</time>
      </trkpt>
      <trkpt lat="44.4209" lon="1.75286">
        <ele>269.1</ele>
        <time>2022-06-05T14:39:23Z</time>
      </trkpt>
      <trkpt lat="44.42087" lon="1.75291">
        <ele>269.4</ele>
        <time>2022-06-05T14:39:28Z</time>
      </trkpt>
      <trkpt lat="44.42083" lon="1.75296">
        <ele>270.2</ele>
        <time>2022-06-05T14:39:33Z</time>
      </trkpt>
      <trkpt lat="44.4208" lon="1.753">
        <ele>270.3</ele>
        <time>2022-06-05T14:39:38Z</time>
      </trkpt>
      <trkpt lat="44.42076" lon="1.75305">
        <ele>270.7</ele>
        <time>2022-06-05T14:39:43Z</time>
      </trkpt>
      <trkpt lat="44.42072" lon="1.75309">
        <ele>270.4</ele>
        <time>2022-06-05T14:39:48Z</time>
      </trkpt>
      <trkpt lat="44.42069" lon="1.75314">
        <ele>270.6</ele>
        <time>2022-06-05T14:39:53Z</time>
      </trkpt>
      <trkpt lat="44.42065" lon="1.7532">
        <ele>270.7</ele>
        <time>2022-06-05T14:39:58Z</time>
      </trkpt>
      <trkpt lat="44.42061" lon="1.75324">
        <ele>270.4</ele>
        <time>2022-06-05T14:40:03Z</time>
      </trkpt>
      <trkpt lat="44.42057" lon="1.75327">
        <ele>270.7</ele>
        <time>2022-06-05T14:40:08Z</time>
      </trkpt>
      <trkpt lat="44.42052" lon="1.75332">
        <ele>271.1</ele>
        <time>2022-06-05T14:40:13Z</time>
      </trkpt>
      <trkpt lat="44.42048" lon="1.75335">
        <ele>271.3</ele>
        <time>2022-06-05T14:40:18Z</time>
      </trkpt>
      <trkpt lat="44.42043" lon="1.75338">
        <ele>271.5</ele>
        <time>2022-06-05T14:40:23Z</time>
      </trkpt>
      <trkpt lat="44.42039" lon="1.75342">
        <ele>271.5</ele>
        <time>2022-06-05T14:40:28Z</time>
      </trkpt>
      <trkpt lat="44.42034" lon="1.75345">
        <ele>271.5</ele>
        <time>2022-06-05T14:40:33Z</time>
      </trkpt>
      <trkpt lat="44.4203" lon="1.75349">
        <ele>271.4</ele>
        <time>2022-06-05T14:40:38Z</time>
      </trkpt>
      <trkpt lat="44.42026" lon="1.75353">
        <ele>271.7</ele>
        <time>2022-06-05T14:40:43Z</time>
      </trkpt>
      <trkpt lat="44.42023" lon="1.75357">
        <ele>272.4</ele>
        <time>2022-06-05T14:40:48Z</time>
      </trkpt>
      <trkpt lat="44.42019" lon="1.75361">
        <ele>273.4</ele>
        <time>2022-06-05T14:40:53Z</time>
      </trkpt>
      <trkpt lat="44.42016" lon="1.75366">
        <ele>274.1</ele>
        <time>2022-06-05T14:40:58Z</time>
      </trkpt>
      <trkpt lat="44.42012" lon="1.7537">
        <ele>274.3</ele>
        <time>2022-06-05T14:41:03Z</time>
      </trkpt>
      <trkpt lat="44.42008" lon="1.75374">
        <ele>274.9</ele>
        <time>2022-06-05T14:41:09Z</time>
      </trkpt>
      <trkpt lat="44.42004" lon="1.75378">
        <ele>274.9</ele>
        <time>2022-06-05T14:41:14Z</time>
      </trkpt>
      <trkpt lat="44.42" lon="1.75382">
        <ele>275.3</ele>
        <time>2022-06-05T14:41:19Z</time>
      </trkpt>
      <trkpt lat="44.41996" lon="1.75386">
        <ele>275.9</ele>
        <time>2022-06-05T14:41:24Z</time>
      </trkpt>
      <trkpt lat="44.41993" lon="1.75391">
        <ele>276.4</ele>
        <time>2022-06-05T14:41:29Z</time>
      </trkpt>
      <trkpt lat="44.41989" lon="1.75396">
        <ele>277.3</ele>
        <time>2022-06-05T14:41:34Z</time>
      </trkpt>
      <trkpt lat="44.41986" lon="1.754">
        <ele>277.9</ele>
        <time>2022-06-05T14:41:39Z</time>
      </trkpt>
      <trkpt lat="44.41982" lon="1.75405">
        <ele>277.9</ele>
        <time>2022-06-05T14:41:44Z</time>
      </trkpt>
      <trkpt lat="44.41978" lon="1.75408">
        <ele>278.1</ele>
        <time>2022-06-05T14:41:49Z</time>
      </trkpt>
      <trkpt lat="44.41973" lon="1.75413">
        <ele>278</ele>
        <time>2022-06-05T14:41:55Z</time>
      </trkpt>
      <trkpt lat="44.4197" lon="1.75417">
        <ele>278.1</ele>
        <time>2022-06-05T14:41:59Z</time>
      </trkpt>
      <trkpt lat="44.41966" lon="1.75421">
        <ele>278.4</ele>
        <time>2022-06-05T14:42:04Z</time>
      </trkpt>
      <trkpt lat="44.41961" lon="1.75425">
        <ele>278.5</ele>
        <time>2022-06-05T14:42:09Z</time>
      </trkpt>
      <trkpt lat="44.41957" lon="1.75428">
        <ele>278.3</ele>
        <time>2022-06-05T14:42:14Z</time>
      </trkpt>
      <trkpt lat="44.41952" lon="1.75431">
        <ele>277.7</ele>
        <time>2022-06-05T14:42:19Z</time>
      </trkpt>
      <trkpt lat="44.41947" lon="1.75432">
        <ele>277.3</ele>
        <time>2022-06-05T14:42:24Z</time>
      </trkpt>
      <trkpt lat="44.41942" lon="1.75433">
        <ele>277</ele>
        <time>2022-06-05T14:42:29Z</time>
      </trkpt>
      <trkpt lat="44.41938" lon="1.75434">
        <ele>276.5</ele>
        <time>2022-06-05T14:42:33Z</time>
      </trkpt>
      <trkpt lat="44.41932" lon="1.75434">
        <ele>276.2</ele>
        <time>2022-06-05T14:42:38Z</time>
      </trkpt>
      <trkpt lat="44.41927" lon="1.75434">
        <ele>275.8</ele>
        <time>2022-06-05T14:42:43Z</time>
      </trkpt>
      <trkpt lat="44.41921" lon="1.75434">
        <ele>275.7</ele>
        <time>2022-06-05T14:42:48Z</time>
      </trkpt>
      <trkpt lat="44.41916" lon="1.75434">
        <ele>276</ele>
        <time>2022-06-05T14:42:53Z</time>
      </trkpt>
      <trkpt lat="44.41911" lon="1.75432">
        <ele>275.2</ele>
        <time>2022-06-05T14:42:58Z</time>
      </trkpt>
      <trkpt lat="44.41906" lon="1.7543">
        <ele>275.1</ele>
        <time>2022-06-05T14:43:03Z</time>
      </trkpt>
      <trkpt lat="44.41901" lon="1.75428">
        <ele>275.2</ele>
        <time>2022-06-05T14:43:07Z</time>
      </trkpt>
      <trkpt lat="44.41897" lon="1.75426">
        <ele>275.4</ele>
        <time>2022-06-05T14:43:11Z</time>
      </trkpt>
      <trkpt lat="44.41892" lon="1.75424">
        <ele>275.3</ele>
        <time>2022-06-05T14:43:16Z</time>
      </trkpt>
      <trkpt lat="44.41886" lon="1.75423">
        <ele>275.2</ele>
        <time>2022-06-05T14:43:21Z</time>
      </trkpt>
      <trkpt lat="44.41881" lon="1.75422">
        <ele>275.4</ele>
        <time>2022-06-05T14:43:26Z</time>
      </trkpt>
      <trkpt lat="44.41876" lon="1.75421">
        <ele>275.5</ele>
        <time>2022-06-05T14:43:31Z</time>
      </trkpt>
      <trkpt lat="44.41871" lon="1.75419">
        <ele>275.5</ele>
        <time>2022-06-05T14:43:36Z</time>
      </trkpt>
      <trkpt lat="44.41866" lon="1.75418">
        <ele>275.6</ele>
        <time>2022-06-05T14:43:41Z</time>
      </trkpt>
      <trkpt lat="44.41861" lon="1.75416">
        <ele>275.3</ele>
        <time>2022-06-05T14:43:46Z</time>
      </trkpt>
      <trkpt lat="44.41857" lon="1.75414">
        <ele>275.8</ele>
        <time>2022-06-05T14:43:51Z</time>
      </trkpt>
      <trkpt lat="44.41852" lon="1.75416">
        <ele>275.9</ele>
        <time>2022-06-05T14:43:57Z</time>
      </trkpt>
      <trkpt lat="44.41849" lon="1.75411">
        <ele>275.7</ele>
        <time>2022-06-05T14:46:23Z</time>
      </trkpt>
      <trkpt lat="44.41847" lon="1.75405">
        <ele>275.7</ele>
        <time>2022-06-05T14:46:29Z</time>
      </trkpt>
      <trkpt lat="44.41841" lon="1.75405">
        <ele>276</ele>
        <time>2022-06-05T14:46:39Z</time>
      </trkpt>
      <trkpt lat="44.41837" lon="1.75403">
        <ele>276.6</ele>
        <time>2022-06-05T14:46:44Z</time>
      </trkpt>
      <trkpt lat="44.41832" lon="1.75402">
        <ele>276.9</ele>
        <time>2022-06-05T14:46:50Z</time>
      </trkpt>
      <trkpt lat="44.41827" lon="1.754">
        <ele>277.3</ele>
        <time>2022-06-05T14:46:55Z</time>
      </trkpt>
      <trkpt lat="44.41823" lon="1.75396">
        <ele>276.7</ele>
        <time>2022-06-05T14:47:00Z</time>
      </trkpt>
      <trkpt lat="44.4182" lon="1.75393">
        <ele>276</ele>
        <time>2022-06-05T14:47:05Z</time>
      </trkpt>
      <trkpt lat="44.41815" lon="1.75389">
        <ele>276</ele>
        <time>2022-06-05T14:47:10Z</time>
      </trkpt>
      <trkpt lat="44.4181" lon="1.75387">
        <ele>276.9</ele>
        <time>2022-06-05T14:47:15Z</time>
      </trkpt>
      <trkpt lat="44.41806" lon="1.75384">
        <ele>277.3</ele>
        <time>2022-06-05T14:47:20Z</time>
      </trkpt>
      <trkpt lat="44.41802" lon="1.75381">
        <ele>277.5</ele>
        <time>2022-06-05T14:47:25Z</time>
      </trkpt>
      <trkpt lat="44.41797" lon="1.75377">
        <ele>277.6</ele>
        <time>2022-06-05T14:47:30Z</time>
      </trkpt>
      <trkpt lat="44.41793" lon="1.75374">
        <ele>278.1</ele>
        <time>2022-06-05T14:47:35Z</time>
      </trkpt>
      <trkpt lat="44.41788" lon="1.75371">
        <ele>278.5</ele>
        <time>2022-06-05T14:47:40Z</time>
      </trkpt>
      <trkpt lat="44.41783" lon="1.75368">
        <ele>279.3</ele>
        <time>2022-06-05T14:47:45Z</time>
      </trkpt>
      <trkpt lat="44.41779" lon="1.75365">
        <ele>280.1</ele>
        <time>2022-06-05T14:47:50Z</time>
      </trkpt>
      <trkpt lat="44.41774" lon="1.75362">
        <ele>280.7</ele>
        <time>2022-06-05T14:47:55Z</time>
      </trkpt>
      <trkpt lat="44.41769" lon="1.75359">
        <ele>281.2</ele>
        <time>2022-06-05T14:48:00Z</time>
      </trkpt>
      <trkpt lat="44.41765" lon="1.75356">
        <ele>281.4</ele>
        <time>2022-06-05T14:48:05Z</time>
      </trkpt>
      <trkpt lat="44.4176" lon="1.75354">
        <ele>282.5</ele>
        <time>2022-06-05T14:48:10Z</time>
      </trkpt>
      <trkpt lat="44.41755" lon="1.75351">
        <ele>283.2</ele>
        <time>2022-06-05T14:48:15Z</time>
      </trkpt>
      <trkpt lat="44.4175" lon="1.75348">
        <ele>283.7</ele>
        <time>2022-06-05T14:48:20Z</time>
      </trkpt>
      <trkpt lat="44.41746" lon="1.75345">
        <ele>284.4</ele>
        <time>2022-06-05T14:48:25Z</time>
      </trkpt>
      <trkpt lat="44.41741" lon="1.75341">
        <ele>284.4</ele>
        <time>2022-06-05T14:48:30Z</time>
      </trkpt>
      <trkpt lat="44.41737" lon="1.75338">
        <ele>284.5</ele>
        <time>2022-06-05T14:48:35Z</time>
      </trkpt>
      <trkpt lat="44.41733" lon="1.75334">
        <ele>284.2</ele>
        <time>2022-06-05T14:48:40Z</time>
      </trkpt>
      <trkpt lat="44.41729" lon="1.75329">
        <ele>283.6</ele>
        <time>2022-06-05T14:48:45Z</time>
      </trkpt>
      <trkpt lat="44.41726" lon="1.75323">
        <ele>283.3</ele>
        <time>2022-06-05T14:48:50Z</time>
      </trkpt>
      <trkpt lat="44.41723" lon="1.75318">
        <ele>283.2</ele>
        <time>2022-06-05T14:48:55Z</time>
      </trkpt>
      <trkpt lat="44.4172" lon="1.75312">
        <ele>283.5</ele>
        <time>2022-06-05T14:49:00Z</time>
      </trkpt>
      <trkpt lat="44.41718" lon="1.75307">
        <ele>283.7</ele>
        <time>2022-06-05T14:49:05Z</time>
      </trkpt>
      <trkpt lat="44.41716" lon="1.75301">
        <ele>284.6</ele>
        <time>2022-06-05T14:49:37Z</time>
      </trkpt>
      <trkpt lat="44.41712" lon="1.75296">
        <ele>284.5</ele>
        <time>2022-06-05T14:49:43Z</time>
      </trkpt>
      <trkpt lat="44.41709" lon="1.7529">
        <ele>284.2</ele>
        <time>2022-06-05T14:49:49Z</time>
      </trkpt>
      <trkpt lat="44.4171" lon="1.75283">
        <ele>283.4</ele>
        <time>2022-06-05T14:49:55Z</time>
      </trkpt>
      <trkpt lat="44.41706" lon="1.75278">
        <ele>281.9</ele>
        <time>2022-06-05T14:50:02Z</time>
      </trkpt>
      <trkpt lat="44.41702" lon="1.75275">
        <ele>282</ele>
        <time>2022-06-05T14:50:08Z</time>
      </trkpt>
      <trkpt lat="44.41698" lon="1.7527">
        <ele>282.1</ele>
        <time>2022-06-05T14:50:14Z</time>
      </trkpt>
      <trkpt lat="44.41695" lon="1.75266">
        <ele>282.4</ele>
        <time>2022-06-05T14:50:19Z</time>
      </trkpt>
      <trkpt lat="44.41692" lon="1.75261">
        <ele>283</ele>
        <time>2022-06-05T14:50:24Z</time>
      </trkpt>
      <trkpt lat="44.41688" lon="1.75257">
        <ele>283.4</ele>
        <time>2022-06-05T14:50:29Z</time>
      </trkpt>
      <trkpt lat="44.41684" lon="1.75251">
        <ele>283.4</ele>
        <time>2022-06-05T14:50:34Z</time>
      </trkpt>
      <trkpt lat="44.4168" lon="1.75246">
        <ele>283.1</ele>
        <time>2022-06-05T14:50:39Z</time>
      </trkpt>
      <trkpt lat="44.41677" lon="1.75241">
        <ele>283</ele>
        <time>2022-06-05T14:50:44Z</time>
      </trkpt>
      <trkpt lat="44.41673" lon="1.75235">
        <ele>283.3</ele>
        <time>2022-06-05T14:50:49Z</time>
      </trkpt>
      <trkpt lat="44.41669" lon="1.75229">
        <ele>283.8</ele>
        <time>2022-06-05T14:50:54Z</time>
      </trkpt>
      <trkpt lat="44.41666" lon="1.75224">
        <ele>283.7</ele>
        <time>2022-06-05T14:50:59Z</time>
      </trkpt>
      <trkpt lat="44.41663" lon="1.75217">
        <ele>283.9</ele>
        <time>2022-06-05T14:51:04Z</time>
      </trkpt>
      <trkpt lat="44.41659" lon="1.75211">
        <ele>284.2</ele>
        <time>2022-06-05T14:51:09Z</time>
      </trkpt>
      <trkpt lat="44.41657" lon="1.75206">
        <ele>284.5</ele>
        <time>2022-06-05T14:51:13Z</time>
      </trkpt>
      <trkpt lat="44.41654" lon="1.75201">
        <ele>284.5</ele>
        <time>2022-06-05T14:51:17Z</time>
      </trkpt>
      <trkpt lat="44.41651" lon="1.75194">
        <ele>285</ele>
        <time>2022-06-05T14:51:22Z</time>
      </trkpt>
      <trkpt lat="44.41648" lon="1.75188">
        <ele>285.2</ele>
        <time>2022-06-05T14:51:27Z</time>
      </trkpt>
      <trkpt lat="44.41645" lon="1.75182">
        <ele>285.3</ele>
        <time>2022-06-05T14:51:31Z</time>
      </trkpt>
      <trkpt lat="44.41642" lon="1.75176">
        <ele>285.3</ele>
        <time>2022-06-05T14:51:35Z</time>
      </trkpt>
      <trkpt lat="44.4164" lon="1.75171">
        <ele>285.8</ele>
        <time>2022-06-05T14:51:39Z</time>
      </trkpt>
      <trkpt lat="44.41637" lon="1.75165">
        <ele>286</ele>
        <time>2022-06-05T14:51:44Z</time>
      </trkpt>
      <trkpt lat="44.41635" lon="1.75159">
        <ele>286</ele>
        <time>2022-06-05T14:51:48Z</time>
      </trkpt>
      <trkpt lat="44.41632" lon="1.75153">
        <ele>286.1</ele>
        <time>2022-06-05T14:51:52Z</time>
      </trkpt>
      <trkpt lat="44.4163" lon="1.75147">
        <ele>286</ele>
        <time>2022-06-05T14:51:57Z</time>
      </trkpt>
      <trkpt lat="44.41628" lon="1.7514">
        <ele>286</ele>
        <time>2022-06-05T14:52:02Z</time>
      </trkpt>
      <trkpt lat="44.41627" lon="1.75133">
        <ele>285.8</ele>
        <time>2022-06-05T14:52:07Z</time>
      </trkpt>
      <trkpt lat="44.41625" lon="1.75127">
        <ele>285.4</ele>
        <time>2022-06-05T14:52:12Z</time>
      </trkpt>
      <trkpt lat="44.41623" lon="1.75121">
        <ele>285.2</ele>
        <time>2022-06-05T14:52:18Z</time>
      </trkpt>
      <trkpt lat="44.4162" lon="1.75115">
        <ele>285.4</ele>
        <time>2022-06-05T14:52:24Z</time>
      </trkpt>
      <trkpt lat="44.41617" lon="1.75109">
        <ele>287</ele>
        <time>2022-06-05T14:52:30Z</time>
      </trkpt>
      <trkpt lat="44.41615" lon="1.75103">
        <ele>287.9</ele>
        <time>2022-06-05T14:52:35Z</time>
      </trkpt>
      <trkpt lat="44.41613" lon="1.75097">
        <ele>288.5</ele>
        <time>2022-06-05T14:52:40Z</time>
      </trkpt>
      <trkpt lat="44.4161" lon="1.75092">
        <ele>288.8</ele>
        <time>2022-06-05T14:52:45Z</time>
      </trkpt>
      <trkpt lat="44.41606" lon="1.75089">
        <ele>289.2</ele>
        <time>2022-06-05T14:52:50Z</time>
      </trkpt>
      <trkpt lat="44.41601" lon="1.75086">
        <ele>289.9</ele>
        <time>2022-06-05T14:52:55Z</time>
      </trkpt>
      <trkpt lat="44.41597" lon="1.75085">
        <ele>290.5</ele>
        <time>2022-06-05T14:53:00Z</time>
      </trkpt>
      <trkpt lat="44.41591" lon="1.75085">
        <ele>291.6</ele>
        <time>2022-06-05T14:53:06Z</time>
      </trkpt>
      <trkpt lat="44.41586" lon="1.75084">
        <ele>292.1</ele>
        <time>2022-06-05T14:53:12Z</time>
      </trkpt>
      <trkpt lat="44.41581" lon="1.75083">
        <ele>292.4</ele>
        <time>2022-06-05T14:53:18Z</time>
      </trkpt>
      <trkpt lat="44.41576" lon="1.75082">
        <ele>293.3</ele>
        <time>2022-06-05T14:53:23Z</time>
      </trkpt>
      <trkpt lat="44.41572" lon="1.75082">
        <ele>294.1</ele>
        <time>2022-06-05T14:53:28Z</time>
      </trkpt>
      <trkpt lat="44.41567" lon="1.7508">
        <ele>294.9</ele>
        <time>2022-06-05T14:53:33Z</time>
      </trkpt>
      <trkpt lat="44.41562" lon="1.75079">
        <ele>295.3</ele>
        <time>2022-06-05T14:53:38Z</time>
      </trkpt>
      <trkpt lat="44.41557" lon="1.75077">
        <ele>295.3</ele>
        <time>2022-06-05T14:53:43Z</time>
      </trkpt>
      <trkpt lat="44.41553" lon="1.75074">
        <ele>295.4</ele>
        <time>2022-06-05T14:53:48Z</time>
      </trkpt>
      <trkpt lat="44.41548" lon="1.75072">
        <ele>295.8</ele>
        <time>2022-06-05T14:53:53Z</time>
      </trkpt>
      <trkpt lat="44.41544" lon="1.75069">
        <ele>296.6</ele>
        <time>2022-06-05T14:53:58Z</time>
      </trkpt>
      <trkpt lat="44.41539" lon="1.75066">
        <ele>297.3</ele>
        <time>2022-06-05T14:54:04Z</time>
      </trkpt>
      <trkpt lat="44.41535" lon="1.75062">
        <ele>297.5</ele>
        <time>2022-06-05T14:54:09Z</time>
      </trkpt>
      <trkpt lat="44.41531" lon="1.75058">
        <ele>297.9</ele>
        <time>2022-06-05T14:54:14Z</time>
      </trkpt>
      <trkpt lat="44.41526" lon="1.75055">
        <ele>298.5</ele>
        <time>2022-06-05T14:54:20Z</time>
      </trkpt>
      <trkpt lat="44.41522" lon="1.75051">
        <ele>298.5</ele>
        <time>2022-06-05T14:54:26Z</time>
      </trkpt>
      <trkpt lat="44.41518" lon="1.75047">
        <ele>298.7</ele>
        <time>2022-06-05T14:54:32Z</time>
      </trkpt>
      <trkpt lat="44.41514" lon="1.75043">
        <ele>299.5</ele>
        <time>2022-06-05T14:54:38Z</time>
      </trkpt>
      <trkpt lat="44.4151" lon="1.7504">
        <ele>299.9</ele>
        <time>2022-06-05T14:54:43Z</time>
      </trkpt>
      <trkpt lat="44.41505" lon="1.75037">
        <ele>298.7</ele>
        <time>2022-06-05T14:54:49Z</time>
      </trkpt>
      <trkpt lat="44.415" lon="1.75039">
        <ele>298</ele>
        <time>2022-06-05T14:54:55Z</time>
      </trkpt>
      <trkpt lat="44.41495" lon="1.75041">
        <ele>297.5</ele>
        <time>2022-06-05T14:55:01Z</time>
      </trkpt>
      <trkpt lat="44.41491" lon="1.75044">
        <ele>295.2</ele>
        <time>2022-06-05T14:55:10Z</time>
      </trkpt>
      <trkpt lat="44.41486" lon="1.75047">
        <ele>300.5</ele>
        <time>2022-06-05T14:56:12Z</time>
      </trkpt>
      <trkpt lat="44.41482" lon="1.75049">
        <ele>301.2</ele>
        <time>2022-06-05T14:56:17Z</time>
      </trkpt>
      <trkpt lat="44.41478" lon="1.75053">
        <ele>302.7</ele>
        <time>2022-06-05T14:56:24Z</time>
      </trkpt>
      <trkpt lat="44.41474" lon="1.75057">
        <ele>303.5</ele>
        <time>2022-06-05T14:56:29Z</time>
      </trkpt>
      <trkpt lat="44.4147" lon="1.7506">
        <ele>303</ele>
        <time>2022-06-05T14:56:37Z</time>
      </trkpt>
      <trkpt lat="44.41466" lon="1.75062">
        <ele>303.5</ele>
        <time>2022-06-05T14:56:45Z</time>
      </trkpt>
      <trkpt lat="44.41461" lon="1.75065">
        <ele>305</ele>
        <time>2022-06-05T14:56:52Z</time>
      </trkpt>
      <trkpt lat="44.41456" lon="1.75066">
        <ele>305.9</ele>
        <time>2022-06-05T14:56:58Z</time>
      </trkpt>
      <trkpt lat="44.41451" lon="1.75068">
        <ele>305.9</ele>
        <time>2022-06-05T14:57:04Z</time>
      </trkpt>
      <trkpt lat="44.41446" lon="1.75071">
        <ele>305.6</ele>
        <time>2022-06-05T14:57:10Z</time>
      </trkpt>
      <trkpt lat="44.41443" lon="1.75074">
        <ele>306.3</ele>
        <time>2022-06-05T14:57:18Z</time>
      </trkpt>
      <trkpt lat="44.41438" lon="1.75077">
        <ele>306.6</ele>
        <time>2022-06-05T14:57:27Z</time>
      </trkpt>
      <trkpt lat="44.41434" lon="1.7508">
        <ele>306</ele>
        <time>2022-06-05T14:57:34Z</time>
      </trkpt>
      <trkpt lat="44.41432" lon="1.75085">
        <ele>305.4</ele>
        <time>2022-06-05T14:57:41Z</time>
      </trkpt>
      <trkpt lat="44.41427" lon="1.75087">
        <ele>305.6</ele>
        <time>2022-06-05T15:01:44Z</time>
      </trkpt>
      <trkpt lat="44.41423" lon="1.75089">
        <ele>306</ele>
        <time>2022-06-05T15:01:51Z</time>
      </trkpt>
      <trkpt lat="44.41418" lon="1.75092">
        <ele>306.4</ele>
        <time>2022-06-05T15:01:58Z</time>
      </trkpt>
      <trkpt lat="44.41413" lon="1.75094">
        <ele>306.6</ele>
        <time>2022-06-05T15:02:04Z</time>
      </trkpt>
      <trkpt lat="44.41408" lon="1.75093">
        <ele>307</ele>
        <time>2022-06-05T15:02:10Z</time>
      </trkpt>
      <trkpt lat="44.41404" lon="1.75089">
        <ele>306.3</ele>
        <time>2022-06-05T15:02:14Z</time>
      </trkpt>
      <trkpt lat="44.41401" lon="1.75086">
        <ele>306</ele>
        <time>2022-06-05T15:02:18Z</time>
      </trkpt>
      <trkpt lat="44.41397" lon="1.75082">
        <ele>305.5</ele>
        <time>2022-06-05T15:02:23Z</time>
      </trkpt>
      <trkpt lat="44.41394" lon="1.75076">
        <ele>306</ele>
        <time>2022-06-05T15:02:28Z</time>
      </trkpt>
      <trkpt lat="44.41391" lon="1.7507">
        <ele>306.6</ele>
        <time>2022-06-05T15:02:33Z</time>
      </trkpt>
      <trkpt lat="44.41389" lon="1.75065">
        <ele>306.9</ele>
        <time>2022-06-05T15:02:38Z</time>
      </trkpt>
      <trkpt lat="44.41386" lon="1.75059">
        <ele>307.2</ele>
        <time>2022-06-05T15:02:43Z</time>
      </trkpt>
      <trkpt lat="44.41383" lon="1.75052">
        <ele>307.7</ele>
        <time>2022-06-05T15:02:49Z</time>
      </trkpt>
      <trkpt lat="44.41381" lon="1.75047">
        <ele>308.3</ele>
        <time>2022-06-05T15:02:54Z</time>
      </trkpt>
      <trkpt lat="44.41379" lon="1.75041">
        <ele>308.7</ele>
        <time>2022-06-05T15:02:59Z</time>
      </trkpt>
      <trkpt lat="44.41376" lon="1.75035">
        <ele>309.4</ele>
        <time>2022-06-05T15:03:05Z</time>
      </trkpt>
      <trkpt lat="44.41374" lon="1.75028">
        <ele>309.8</ele>
        <time>2022-06-05T15:03:10Z</time>
      </trkpt>
      <trkpt lat="44.41372" lon="1.75022">
        <ele>310.5</ele>
        <time>2022-06-05T15:03:16Z</time>
      </trkpt>
      <trkpt lat="44.41371" lon="1.75014">
        <ele>311.2</ele>
        <time>2022-06-05T15:03:22Z</time>
      </trkpt>
      <trkpt lat="44.4137" lon="1.75007">
        <ele>311.1</ele>
        <time>2022-06-05T15:03:28Z</time>
      </trkpt>
      <trkpt lat="44.41365" lon="1.75009">
        <ele>312.4</ele>
        <time>2022-06-05T15:05:22Z</time>
      </trkpt>
      <trkpt lat="44.41362" lon="1.75014">
        <ele>310.6</ele>
        <time>2022-06-05T15:05:33Z</time>
      </trkpt>
      <trkpt lat="44.4136" lon="1.7502">
        <ele>309.1</ele>
        <time>2022-06-05T15:05:40Z</time>
      </trkpt>
      <trkpt lat="44.41358" lon="1.75027">
        <ele>308.6</ele>
        <time>2022-06-05T15:05:46Z</time>
      </trkpt>
      <trkpt lat="44.41355" lon="1.75031">
        <ele>308.3</ele>
        <time>2022-06-05T15:05:54Z</time>
      </trkpt>
      <trkpt lat="44.4135" lon="1.75034">
        <ele>308.3</ele>
        <time>2022-06-05T15:06:00Z</time>
      </trkpt>
      <trkpt lat="44.41346" lon="1.75034">
        <ele>308.1</ele>
        <time>2022-06-05T15:06:05Z</time>
      </trkpt>
      <trkpt lat="44.41341" lon="1.75032">
        <ele>308.5</ele>
        <time>2022-06-05T15:06:10Z</time>
      </trkpt>
      <trkpt lat="44.41337" lon="1.75029">
        <ele>309.2</ele>
        <time>2022-06-05T15:06:15Z</time>
      </trkpt>
      <trkpt lat="44.41332" lon="1.75026">
        <ele>309.5</ele>
        <time>2022-06-05T15:06:20Z</time>
      </trkpt>
      <trkpt lat="44.41328" lon="1.75023">
        <ele>309.7</ele>
        <time>2022-06-05T15:06:25Z</time>
      </trkpt>
      <trkpt lat="44.41323" lon="1.75022">
        <ele>310</ele>
        <time>2022-06-05T15:06:30Z</time>
      </trkpt>
      <trkpt lat="44.41318" lon="1.75022">
        <ele>309.9</ele>
        <time>2022-06-05T15:06:35Z</time>
      </trkpt>
      <trkpt lat="44.41314" lon="1.75025">
        <ele>309.5</ele>
        <time>2022-06-05T15:06:40Z</time>
      </trkpt>
      <trkpt lat="44.4131" lon="1.75028">
        <ele>309</ele>
        <time>2022-06-05T15:06:45Z</time>
      </trkpt>
      <trkpt lat="44.41306" lon="1.75033">
        <ele>308.4</ele>
        <time>2022-06-05T15:06:51Z</time>
      </trkpt>
      <trkpt lat="44.41302" lon="1.75036">
        <ele>307.6</ele>
        <time>2022-06-05T15:06:56Z</time>
      </trkpt>
      <trkpt lat="44.41298" lon="1.7504">
        <ele>306.9</ele>
        <time>2022-06-05T15:07:01Z</time>
      </trkpt>
      <trkpt lat="44.41293" lon="1.75043">
        <ele>305.9</ele>
        <time>2022-06-05T15:07:06Z</time>
      </trkpt>
      <trkpt lat="44.41289" lon="1.75047">
        <ele>305.2</ele>
        <time>2022-06-05T15:07:11Z</time>
      </trkpt>
      <trkpt lat="44.41285" lon="1.7505">
        <ele>304.4</ele>
        <time>2022-06-05T15:07:16Z</time>
      </trkpt>
      <trkpt lat="44.41281" lon="1.75055">
        <ele>304.1</ele>
        <time>2022-06-05T15:07:21Z</time>
      </trkpt>
      <trkpt lat="44.41277" lon="1.7506">
        <ele>304.1</ele>
        <time>2022-06-05T15:07:26Z</time>
      </trkpt>
      <trkpt lat="44.41273" lon="1.75065">
        <ele>304.2</ele>
        <time>2022-06-05T15:07:31Z</time>
      </trkpt>
      <trkpt lat="44.41269" lon="1.75071">
        <ele>304.1</ele>
        <time>2022-06-05T15:07:36Z</time>
      </trkpt>
      <trkpt lat="44.41267" lon="1.75077">
        <ele>303.4</ele>
        <time>2022-06-05T15:07:41Z</time>
      </trkpt>
      <trkpt lat="44.41264" lon="1.75083">
        <ele>302.6</ele>
        <time>2022-06-05T15:07:46Z</time>
      </trkpt>
      <trkpt lat="44.41261" lon="1.75088">
        <ele>302.2</ele>
        <time>2022-06-05T15:07:50Z</time>
      </trkpt>
      <trkpt lat="44.41258" lon="1.75095">
        <ele>301.5</ele>
        <time>2022-06-05T15:07:55Z</time>
      </trkpt>
      <trkpt lat="44.41255" lon="1.75101">
        <ele>301.1</ele>
        <time>2022-06-05T15:08:00Z</time>
      </trkpt>
      <trkpt lat="44.41252" lon="1.75107">
        <ele>300.5</ele>
        <time>2022-06-05T15:08:05Z</time>
      </trkpt>
      <trkpt lat="44.41249" lon="1.75113">
        <ele>300.2</ele>
        <time>2022-06-05T15:08:10Z</time>
      </trkpt>
      <trkpt lat="44.41246" lon="1.7512">
        <ele>300.3</ele>
        <time>2022-06-05T15:08:15Z</time>
      </trkpt>
      <trkpt lat="44.41243" lon="1.75126">
        <ele>300.4</ele>
        <time>2022-06-05T15:08:20Z</time>
      </trkpt>
      <trkpt lat="44.4124" lon="1.75132">
        <ele>300.6</ele>
        <time>2022-06-05T15:08:25Z</time>
      </trkpt>
      <trkpt lat="44.41237" lon="1.75138">
        <ele>301</ele>
        <time>2022-06-05T15:08:30Z</time>
      </trkpt>
      <trkpt lat="44.41234" lon="1.75145">
        <ele>301.4</ele>
        <time>2022-06-05T15:08:35Z</time>
      </trkpt>
      <trkpt lat="44.41231" lon="1.75151">
        <ele>301.4</ele>
        <time>2022-06-05T15:08:40Z</time>
      </trkpt>
      <trkpt lat="44.41228" lon="1.75157">
        <ele>301.7</ele>
        <time>2022-06-05T15:08:45Z</time>
      </trkpt>
      <trkpt lat="44.41225" lon="1.75163">
        <ele>302.2</ele>
        <time>2022-06-05T15:08:50Z</time>
      </trkpt>
      <trkpt lat="44.41222" lon="1.75168">
        <ele>302.4</ele>
        <time>2022-06-05T15:08:55Z</time>
      </trkpt>
      <trkpt lat="44.41219" lon="1.75173">
        <ele>302.9</ele>
        <time>2022-06-05T15:09:00Z</time>
      </trkpt>
      <trkpt lat="44.41216" lon="1.75179">
        <ele>303.2</ele>
        <time>2022-06-05T15:09:05Z</time>
      </trkpt>
      <trkpt lat="44.41213" lon="1.75184">
        <ele>304</ele>
        <time>2022-06-05T15:09:09Z</time>
      </trkpt>
      <trkpt lat="44.4121" lon="1.75191">
        <ele>304.8</ele>
        <time>2022-06-05T15:09:14Z</time>
      </trkpt>
      <trkpt lat="44.41207" lon="1.75197">
        <ele>305.2</ele>
        <time>2022-06-05T15:09:19Z</time>
      </trkpt>
      <trkpt lat="44.41205" lon="1.75202">
        <ele>305.4</ele>
        <time>2022-06-05T15:09:24Z</time>
      </trkpt>
      <trkpt lat="44.41202" lon="1.75207">
        <ele>305.3</ele>
        <time>2022-06-05T15:09:29Z</time>
      </trkpt>
      <trkpt lat="44.41199" lon="1.75212">
        <ele>305.5</ele>
        <time>2022-06-05T15:09:34Z</time>
      </trkpt>
      <trkpt lat="44.41196" lon="1.75218">
        <ele>306.2</ele>
        <time>2022-06-05T15:09:39Z</time>
      </trkpt>
      <trkpt lat="44.41194" lon="1.75224">
        <ele>307.5</ele>
        <time>2022-06-05T15:09:44Z</time>
      </trkpt>
      <trkpt lat="44.41191" lon="1.75229">
        <ele>308.5</ele>
        <time>2022-06-05T15:09:49Z</time>
      </trkpt>
      <trkpt lat="44.41188" lon="1.75235">
        <ele>309.7</ele>
        <time>2022-06-05T15:09:54Z</time>
      </trkpt>
      <trkpt lat="44.41186" lon="1.75241">
        <ele>310.3</ele>
        <time>2022-06-05T15:09:59Z</time>
      </trkpt>
      <trkpt lat="44.41184" lon="1.75247">
        <ele>309.8</ele>
        <time>2022-06-05T15:10:04Z</time>
      </trkpt>
      <trkpt lat="44.41182" lon="1.75253">
        <ele>310.7</ele>
        <time>2022-06-05T15:10:09Z</time>
      </trkpt>
      <trkpt lat="44.4118" lon="1.75259">
        <ele>311</ele>
        <time>2022-06-05T15:10:14Z</time>
      </trkpt>
      <trkpt lat="44.41177" lon="1.75265">
        <ele>311</ele>
        <time>2022-06-05T15:10:19Z</time>
      </trkpt>
      <trkpt lat="44.41175" lon="1.75272">
        <ele>311.1</ele>
        <time>2022-06-05T15:10:24Z</time>
      </trkpt>
      <trkpt lat="44.41172" lon="1.75278">
        <ele>311.1</ele>
        <time>2022-06-05T15:10:36Z</time>
      </trkpt>
      <trkpt lat="44.4117" lon="1.75284">
        <ele>311</ele>
        <time>2022-06-05T15:10:41Z</time>
      </trkpt>
      <trkpt lat="44.41168" lon="1.7529">
        <ele>310.7</ele>
        <time>2022-06-05T15:10:46Z</time>
      </trkpt>
      <trkpt lat="44.41166" lon="1.75296">
        <ele>310.5</ele>
        <time>2022-06-05T15:10:51Z</time>
      </trkpt>
      <trkpt lat="44.41163" lon="1.75303">
        <ele>311</ele>
        <time>2022-06-05T15:10:56Z</time>
      </trkpt>
      <trkpt lat="44.41161" lon="1.7531">
        <ele>310.6</ele>
        <time>2022-06-05T15:11:01Z</time>
      </trkpt>
      <trkpt lat="44.41159" lon="1.75316">
        <ele>311</ele>
        <time>2022-06-05T15:11:05Z</time>
      </trkpt>
      <trkpt lat="44.41157" lon="1.75322">
        <ele>310.7</ele>
        <time>2022-06-05T15:11:09Z</time>
      </trkpt>
      <trkpt lat="44.41154" lon="1.75327">
        <ele>310.2</ele>
        <time>2022-06-05T15:11:13Z</time>
      </trkpt>
      <trkpt lat="44.4115" lon="1.75333">
        <ele>309.8</ele>
        <time>2022-06-05T15:11:18Z</time>
      </trkpt>
      <trkpt lat="44.41146" lon="1.75338">
        <ele>309.4</ele>
        <time>2022-06-05T15:11:23Z</time>
      </trkpt>
      <trkpt lat="44.41142" lon="1.75343">
        <ele>309</ele>
        <time>2022-06-05T15:11:28Z</time>
      </trkpt>
      <trkpt lat="44.41139" lon="1.75347">
        <ele>308.7</ele>
        <time>2022-06-05T15:11:32Z</time>
      </trkpt>
      <trkpt lat="44.41135" lon="1.75352">
        <ele>308.7</ele>
        <time>2022-06-05T15:11:37Z</time>
      </trkpt>
      <trkpt lat="44.41131" lon="1.75357">
        <ele>308.4</ele>
        <time>2022-06-05T15:11:42Z</time>
      </trkpt>
      <trkpt lat="44.41127" lon="1.75362">
        <ele>307.5</ele>
        <time>2022-06-05T15:11:47Z</time>
      </trkpt>
      <trkpt lat="44.41123" lon="1.75366">
        <ele>306.9</ele>
        <time>2022-06-05T15:11:52Z</time>
      </trkpt>
      <trkpt lat="44.4112" lon="1.75371">
        <ele>306.2</ele>
        <time>2022-06-05T15:11:56Z</time>
      </trkpt>
      <trkpt lat="44.41116" lon="1.75376">
        <ele>305.7</ele>
        <time>2022-06-05T15:12:01Z</time>
      </trkpt>
      <trkpt lat="44.41112" lon="1.7538">
        <ele>305</ele>
        <time>2022-06-05T15:12:06Z</time>
      </trkpt>
      <trkpt lat="44.41108" lon="1.75385">
        <ele>304.4</ele>
        <time>2022-06-05T15:12:11Z</time>
      </trkpt>
      <trkpt lat="44.41104" lon="1.75388">
        <ele>303.8</ele>
        <time>2022-06-05T15:12:15Z</time>
      </trkpt>
      <trkpt lat="44.411" lon="1.75392">
        <ele>303.7</ele>
        <time>2022-06-05T15:12:19Z</time>
      </trkpt>
      <trkpt lat="44.41095" lon="1.75396">
        <ele>303.3</ele>
        <time>2022-06-05T15:12:24Z</time>
      </trkpt>
      <trkpt lat="44.41091" lon="1.754">
        <ele>303.4</ele>
        <time>2022-06-05T15:12:29Z</time>
      </trkpt>
      <trkpt lat="44.41087" lon="1.75405">
        <ele>304.1</ele>
        <time>2022-06-05T15:12:34Z</time>
      </trkpt>
      <trkpt lat="44.41082" lon="1.75409">
        <ele>304.3</ele>
        <time>2022-06-05T15:12:39Z</time>
      </trkpt>
      <trkpt lat="44.41078" lon="1.75413">
        <ele>304.6</ele>
        <time>2022-06-05T15:12:44Z</time>
      </trkpt>
      <trkpt lat="44.41073" lon="1.75417">
        <ele>304.4</ele>
        <time>2022-06-05T15:12:49Z</time>
      </trkpt>
      <trkpt lat="44.41069" lon="1.75419">
        <ele>304.1</ele>
        <time>2022-06-05T15:12:54Z</time>
      </trkpt>
      <trkpt lat="44.41064" lon="1.75422">
        <ele>303.6</ele>
        <time>2022-06-05T15:12:59Z</time>
      </trkpt>
      <trkpt lat="44.41059" lon="1.75426">
        <ele>303.1</ele>
        <time>2022-06-05T15:13:04Z</time>
      </trkpt>
      <trkpt lat="44.41055" lon="1.7543">
        <ele>302.5</ele>
        <time>2022-06-05T15:13:09Z</time>
      </trkpt>
      <trkpt lat="44.41051" lon="1.75432">
        <ele>301.9</ele>
        <time>2022-06-05T15:13:13Z</time>
      </trkpt>
      <trkpt lat="44.41046" lon="1.75436">
        <ele>301.7</ele>
        <time>2022-06-05T15:13:17Z</time>
      </trkpt>
      <trkpt lat="44.41043" lon="1.75439">
        <ele>301.4</ele>
        <time>2022-06-05T15:13:21Z</time>
      </trkpt>
      <trkpt lat="44.41038" lon="1.75442">
        <ele>301.2</ele>
        <time>2022-06-05T15:13:26Z</time>
      </trkpt>
      <trkpt lat="44.41034" lon="1.75446">
        <ele>301.1</ele>
        <time>2022-06-05T15:13:30Z</time>
      </trkpt>
      <trkpt lat="44.41029" lon="1.7545">
        <ele>301</ele>
        <time>2022-06-05T15:13:35Z</time>
      </trkpt>
      <trkpt lat="44.41025" lon="1.75454">
        <ele>300.7</ele>
        <time>2022-06-05T15:13:40Z</time>
      </trkpt>
      <trkpt lat="44.41021" lon="1.75458">
        <ele>300.5</ele>
        <time>2022-06-05T15:13:44Z</time>
      </trkpt>
      <trkpt lat="44.41016" lon="1.75461">
        <ele>300.6</ele>
        <time>2022-06-05T15:13:48Z</time>
      </trkpt>
      <trkpt lat="44.41012" lon="1.75465">
        <ele>300.8</ele>
        <time>2022-06-05T15:13:52Z</time>
      </trkpt>
      <trkpt lat="44.41009" lon="1.75469">
        <ele>301</ele>
        <time>2022-06-05T15:13:56Z</time>
      </trkpt>
      <trkpt lat="44.41004" lon="1.75473">
        <ele>300.7</ele>
        <time>2022-06-05T15:14:01Z</time>
      </trkpt>
      <trkpt lat="44.41001" lon="1.75478">
        <ele>300.3</ele>
        <time>2022-06-05T15:14:06Z</time>
      </trkpt>
      <trkpt lat="44.40999" lon="1.75484">
        <ele>299.8</ele>
        <time>2022-06-05T15:14:10Z</time>
      </trkpt>
      <trkpt lat="44.40997" lon="1.7549">
        <ele>299.1</ele>
        <time>2022-06-05T15:14:14Z</time>
      </trkpt>
      <trkpt lat="44.40995" lon="1.75496">
        <ele>298.5</ele>
        <time>2022-06-05T15:14:18Z</time>
      </trkpt>
      <trkpt lat="44.40994" lon="1.75503">
        <ele>298.1</ele>
        <time>2022-06-05T15:14:23Z</time>
      </trkpt>
      <trkpt lat="44.40993" lon="1.75509">
        <ele>297.9</ele>
        <time>2022-06-05T15:14:27Z</time>
      </trkpt>
      <trkpt lat="44.40991" lon="1.75517">
        <ele>297.9</ele>
        <time>2022-06-05T15:14:32Z</time>
      </trkpt>
      <trkpt lat="44.40989" lon="1.75522">
        <ele>297.7</ele>
        <time>2022-06-05T15:14:36Z</time>
      </trkpt>
      <trkpt lat="44.40986" lon="1.75528">
        <ele>297.4</ele>
        <time>2022-06-05T15:14:41Z</time>
      </trkpt>
      <trkpt lat="44.40982" lon="1.75533">
        <ele>296.5</ele>
        <time>2022-06-05T15:14:46Z</time>
      </trkpt>
      <trkpt lat="44.40978" lon="1.75537">
        <ele>295.9</ele>
        <time>2022-06-05T15:14:51Z</time>
      </trkpt>
      <trkpt lat="44.40973" lon="1.75542">
        <ele>295.6</ele>
        <time>2022-06-05T15:14:56Z</time>
      </trkpt>
      <trkpt lat="44.40968" lon="1.75545">
        <ele>295.3</ele>
        <time>2022-06-05T15:15:01Z</time>
      </trkpt>
      <trkpt lat="44.40964" lon="1.75549">
        <ele>295.6</ele>
        <time>2022-06-05T15:15:06Z</time>
      </trkpt>
      <trkpt lat="44.40959" lon="1.75552">
        <ele>295.9</ele>
        <time>2022-06-05T15:15:11Z</time>
      </trkpt>
      <trkpt lat="44.40955" lon="1.75553">
        <ele>296.9</ele>
        <time>2022-06-05T15:15:16Z</time>
      </trkpt>
      <trkpt lat="44.4095" lon="1.75555">
        <ele>296.9</ele>
        <time>2022-06-05T15:15:36Z</time>
      </trkpt>
      <trkpt lat="44.40955" lon="1.75557">
        <ele>297.5</ele>
        <time>2022-06-05T15:16:26Z</time>
      </trkpt>
      <trkpt lat="44.40951" lon="1.7556">
        <ele>299.1</ele>
        <time>2022-06-05T15:17:03Z</time>
      </trkpt>
      <trkpt lat="44.40945" lon="1.75562">
        <ele>299.1</ele>
        <time>2022-06-05T15:17:08Z</time>
      </trkpt>
      <trkpt lat="44.4094" lon="1.75565">
        <ele>298.7</ele>
        <time>2022-06-05T15:17:13Z</time>
      </trkpt>
      <trkpt lat="44.40935" lon="1.75565">
        <ele>298.6</ele>
        <time>2022-06-05T15:17:18Z</time>
      </trkpt>
      <trkpt lat="44.40931" lon="1.75563">
        <ele>299</ele>
        <time>2022-06-05T15:17:23Z</time>
      </trkpt>
      <trkpt lat="44.40926" lon="1.75561">
        <ele>299.5</ele>
        <time>2022-06-05T15:17:28Z</time>
      </trkpt>
      <trkpt lat="44.40921" lon="1.75561">
        <ele>300.1</ele>
        <time>2022-06-05T15:17:33Z</time>
      </trkpt>
      <trkpt lat="44.40916" lon="1.75564">
        <ele>300.2</ele>
        <time>2022-06-05T15:17:38Z</time>
      </trkpt>
      <trkpt lat="44.40912" lon="1.75567">
        <ele>299.9</ele>
        <time>2022-06-05T15:17:42Z</time>
      </trkpt>
      <trkpt lat="44.40908" lon="1.75571">
        <ele>300.4</ele>
        <time>2022-06-05T15:17:47Z</time>
      </trkpt>
      <trkpt lat="44.40904" lon="1.75576">
        <ele>300.8</ele>
        <time>2022-06-05T15:17:51Z</time>
      </trkpt>
      <trkpt lat="44.409" lon="1.7558">
        <ele>301.2</ele>
        <time>2022-06-05T15:17:56Z</time>
      </trkpt>
      <trkpt lat="44.40895" lon="1.75585">
        <ele>301.8</ele>
        <time>2022-06-05T15:18:01Z</time>
      </trkpt>
      <trkpt lat="44.40892" lon="1.75589">
        <ele>302.5</ele>
        <time>2022-06-05T15:18:05Z</time>
      </trkpt>
      <trkpt lat="44.40888" lon="1.75594">
        <ele>303.6</ele>
        <time>2022-06-05T15:18:10Z</time>
      </trkpt>
      <trkpt lat="44.40884" lon="1.75599">
        <ele>304.1</ele>
        <time>2022-06-05T15:18:15Z</time>
      </trkpt>
      <trkpt lat="44.40881" lon="1.75604">
        <ele>304</ele>
        <time>2022-06-05T15:18:20Z</time>
      </trkpt>
      <trkpt lat="44.40877" lon="1.7561">
        <ele>303.7</ele>
        <time>2022-06-05T15:18:25Z</time>
      </trkpt>
      <trkpt lat="44.40874" lon="1.75615">
        <ele>303</ele>
        <time>2022-06-05T15:18:30Z</time>
      </trkpt>
      <trkpt lat="44.40872" lon="1.75622">
        <ele>303</ele>
        <time>2022-06-05T15:18:35Z</time>
      </trkpt>
      <trkpt lat="44.40871" lon="1.75629">
        <ele>302.8</ele>
        <time>2022-06-05T15:18:40Z</time>
      </trkpt>
      <trkpt lat="44.40872" lon="1.75635">
        <ele>302.7</ele>
        <time>2022-06-05T15:18:45Z</time>
      </trkpt>
      <trkpt lat="44.40875" lon="1.75642">
        <ele>302.2</ele>
        <time>2022-06-05T15:18:50Z</time>
      </trkpt>
      <trkpt lat="44.40877" lon="1.75648">
        <ele>301.8</ele>
        <time>2022-06-05T15:18:55Z</time>
      </trkpt>
      <trkpt lat="44.40878" lon="1.75655">
        <ele>302</ele>
        <time>2022-06-05T15:19:00Z</time>
      </trkpt>
      <trkpt lat="44.40877" lon="1.75663">
        <ele>302.2</ele>
        <time>2022-06-05T15:19:05Z</time>
      </trkpt>
      <trkpt lat="44.40875" lon="1.7567">
        <ele>301.9</ele>
        <time>2022-06-05T15:19:10Z</time>
      </trkpt>
      <trkpt lat="44.40874" lon="1.75677">
        <ele>301.7</ele>
        <time>2022-06-05T15:19:15Z</time>
      </trkpt>
      <trkpt lat="44.40872" lon="1.75684">
        <ele>301.9</ele>
        <time>2022-06-05T15:19:20Z</time>
      </trkpt>
      <trkpt lat="44.4087" lon="1.75691">
        <ele>302.1</ele>
        <time>2022-06-05T15:19:25Z</time>
      </trkpt>
      <trkpt lat="44.40869" lon="1.75699">
        <ele>302</ele>
        <time>2022-06-05T15:19:30Z</time>
      </trkpt>
      <trkpt lat="44.40868" lon="1.75705">
        <ele>301.8</ele>
        <time>2022-06-05T15:19:34Z</time>
      </trkpt>
      <trkpt lat="44.40866" lon="1.75712">
        <ele>301.2</ele>
        <time>2022-06-05T15:19:39Z</time>
      </trkpt>
      <trkpt lat="44.40864" lon="1.75719">
        <ele>300.6</ele>
        <time>2022-06-05T15:19:44Z</time>
      </trkpt>
      <trkpt lat="44.40863" lon="1.75727">
        <ele>300.4</ele>
        <time>2022-06-05T15:19:49Z</time>
      </trkpt>
      <trkpt lat="44.40862" lon="1.75734">
        <ele>300.4</ele>
        <time>2022-06-05T15:19:54Z</time>
      </trkpt>
      <trkpt lat="44.4086" lon="1.75741">
        <ele>300.5</ele>
        <time>2022-06-05T15:19:59Z</time>
      </trkpt>
      <trkpt lat="44.40859" lon="1.75748">
        <ele>300.8</ele>
        <time>2022-06-05T15:20:04Z</time>
      </trkpt>
      <trkpt lat="44.40858" lon="1.75755">
        <ele>300.9</ele>
        <time>2022-06-05T15:20:09Z</time>
      </trkpt>
      <trkpt lat="44.40858" lon="1.75761">
        <ele>301.2</ele>
        <time>2022-06-05T15:20:14Z</time>
      </trkpt>
      <trkpt lat="44.40857" lon="1.75768">
        <ele>301</ele>
        <time>2022-06-05T15:20:19Z</time>
      </trkpt>
      <trkpt lat="44.40857" lon="1.75775">
        <ele>301.1</ele>
        <time>2022-06-05T15:20:24Z</time>
      </trkpt>
      <trkpt lat="44.40858" lon="1.75782">
        <ele>301.2</ele>
        <time>2022-06-05T15:20:29Z</time>
      </trkpt>
      <trkpt lat="44.40858" lon="1.75789">
        <ele>300.7</ele>
        <time>2022-06-05T15:20:34Z</time>
      </trkpt>
      <trkpt lat="44.40858" lon="1.75796">
        <ele>300.1</ele>
        <time>2022-06-05T15:20:39Z</time>
      </trkpt>
      <trkpt lat="44.40859" lon="1.75803">
        <ele>299.7</ele>
        <time>2022-06-05T15:20:44Z</time>
      </trkpt>
      <trkpt lat="44.40859" lon="1.7581">
        <ele>299.3</ele>
        <time>2022-06-05T15:20:49Z</time>
      </trkpt>
      <trkpt lat="44.40859" lon="1.75817">
        <ele>298.6</ele>
        <time>2022-06-05T15:20:54Z</time>
      </trkpt>
      <trkpt lat="44.40859" lon="1.75823">
        <ele>298.5</ele>
        <time>2022-06-05T15:20:58Z</time>
      </trkpt>
      <trkpt lat="44.40859" lon="1.7583">
        <ele>297.7</ele>
        <time>2022-06-05T15:21:03Z</time>
      </trkpt>
      <trkpt lat="44.40859" lon="1.75838">
        <ele>297.2</ele>
        <time>2022-06-05T15:21:08Z</time>
      </trkpt>
      <trkpt lat="44.4086" lon="1.75845">
        <ele>297.2</ele>
        <time>2022-06-05T15:21:13Z</time>
      </trkpt>
      <trkpt lat="44.40862" lon="1.75853">
        <ele>296.7</ele>
        <time>2022-06-05T15:21:18Z</time>
      </trkpt>
      <trkpt lat="44.40862" lon="1.7586">
        <ele>297.1</ele>
        <time>2022-06-05T15:21:23Z</time>
      </trkpt>
      <trkpt lat="44.40863" lon="1.75866">
        <ele>297.5</ele>
        <time>2022-06-05T15:21:27Z</time>
      </trkpt>
      <trkpt lat="44.40863" lon="1.75874">
        <ele>298</ele>
        <time>2022-06-05T15:21:32Z</time>
      </trkpt>
      <trkpt lat="44.40864" lon="1.75882">
        <ele>297.9</ele>
        <time>2022-06-05T15:21:37Z</time>
      </trkpt>
      <trkpt lat="44.40865" lon="1.75889">
        <ele>297.9</ele>
        <time>2022-06-05T15:21:42Z</time>
      </trkpt>
      <trkpt lat="44.40865" lon="1.75896">
        <ele>298</ele>
        <time>2022-06-05T15:21:47Z</time>
      </trkpt>
      <trkpt lat="44.40866" lon="1.75903">
        <ele>298.3</ele>
        <time>2022-06-05T15:21:52Z</time>
      </trkpt>
      <trkpt lat="44.40868" lon="1.7591">
        <ele>298.5</ele>
        <time>2022-06-05T15:21:57Z</time>
      </trkpt>
      <trkpt lat="44.40867" lon="1.75903">
        <ele>299.9</ele>
        <time>2022-06-05T15:22:51Z</time>
      </trkpt>
      <trkpt lat="44.40867" lon="1.75896">
        <ele>300.4</ele>
        <time>2022-06-05T15:22:56Z</time>
      </trkpt>
      <trkpt lat="44.40864" lon="1.7589">
        <ele>300.6</ele>
        <time>2022-06-05T15:23:00Z</time>
      </trkpt>
      <trkpt lat="44.40861" lon="1.75886">
        <ele>300.7</ele>
        <time>2022-06-05T15:23:08Z</time>
      </trkpt>
      <trkpt lat="44.40862" lon="1.75894">
        <ele>300.3</ele>
        <time>2022-06-05T15:23:54Z</time>
      </trkpt>
      <trkpt lat="44.40865" lon="1.75901">
        <ele>298.8</ele>
        <time>2022-06-05T15:23:58Z</time>
      </trkpt>
      <trkpt lat="44.40867" lon="1.75908">
        <ele>297.7</ele>
        <time>2022-06-05T15:24:02Z</time>
      </trkpt>
      <trkpt lat="44.40869" lon="1.75914">
        <ele>297.5</ele>
        <time>2022-06-05T15:24:06Z</time>
      </trkpt>
      <trkpt lat="44.40871" lon="1.75921">
        <ele>297.9</ele>
        <time>2022-06-05T15:24:11Z</time>
      </trkpt>
      <trkpt lat="44.40872" lon="1.75928">
        <ele>298.7</ele>
        <time>2022-06-05T15:24:16Z</time>
      </trkpt>
      <trkpt lat="44.40872" lon="1.75935">
        <ele>299.2</ele>
        <time>2022-06-05T15:24:21Z</time>
      </trkpt>
      <trkpt lat="44.40873" lon="1.75942">
        <ele>299.8</ele>
        <time>2022-06-05T15:24:27Z</time>
      </trkpt>
      <trkpt lat="44.40874" lon="1.75949">
        <ele>299.9</ele>
        <time>2022-06-05T15:24:32Z</time>
      </trkpt>
      <trkpt lat="44.40875" lon="1.75957">
        <ele>299.2</ele>
        <time>2022-06-05T15:24:37Z</time>
      </trkpt>
      <trkpt lat="44.40876" lon="1.75963">
        <ele>299.6</ele>
        <time>2022-06-05T15:24:42Z</time>
      </trkpt>
      <trkpt lat="44.40877" lon="1.7597">
        <ele>300.1</ele>
        <time>2022-06-05T15:24:47Z</time>
      </trkpt>
      <trkpt lat="44.40877" lon="1.75977">
        <ele>300.2</ele>
        <time>2022-06-05T15:24:52Z</time>
      </trkpt>
      <trkpt lat="44.40876" lon="1.75984">
        <ele>300</ele>
        <time>2022-06-05T15:24:57Z</time>
      </trkpt>
      <trkpt lat="44.40875" lon="1.75991">
        <ele>299.4</ele>
        <time>2022-06-05T15:25:02Z</time>
      </trkpt>
      <trkpt lat="44.40875" lon="1.75999">
        <ele>299</ele>
        <time>2022-06-05T15:25:07Z</time>
      </trkpt>
      <trkpt lat="44.40874" lon="1.76005">
        <ele>299.4</ele>
        <time>2022-06-05T15:25:11Z</time>
      </trkpt>
      <trkpt lat="44.40873" lon="1.76012">
        <ele>299.7</ele>
        <time>2022-06-05T15:25:16Z</time>
      </trkpt>
      <trkpt lat="44.40874" lon="1.76019">
        <ele>299.8</ele>
        <time>2022-06-05T15:25:21Z</time>
      </trkpt>
      <trkpt lat="44.40874" lon="1.76026">
        <ele>300.8</ele>
        <time>2022-06-05T15:25:26Z</time>
      </trkpt>
      <trkpt lat="44.40875" lon="1.76032">
        <ele>300.4</ele>
        <time>2022-06-05T15:25:31Z</time>
      </trkpt>
      <trkpt lat="44.40876" lon="1.76039">
        <ele>299.9</ele>
        <time>2022-06-05T15:25:36Z</time>
      </trkpt>
      <trkpt lat="44.40874" lon="1.76045">
        <ele>298.9</ele>
        <time>2022-06-05T15:25:42Z</time>
      </trkpt>
      <trkpt lat="44.40871" lon="1.7605">
        <ele>298.8</ele>
        <time>2022-06-05T15:25:49Z</time>
      </trkpt>
      <trkpt lat="44.40867" lon="1.76054">
        <ele>300.3</ele>
        <time>2022-06-05T15:26:06Z</time>
      </trkpt>
      <trkpt lat="44.40863" lon="1.76058">
        <ele>301.3</ele>
        <time>2022-06-05T15:26:12Z</time>
      </trkpt>
      <trkpt lat="44.40859" lon="1.76062">
        <ele>301.7</ele>
        <time>2022-06-05T15:26:18Z</time>
      </trkpt>
      <trkpt lat="44.40855" lon="1.76066">
        <ele>301.8</ele>
        <time>2022-06-05T15:26:23Z</time>
      </trkpt>
      <trkpt lat="44.40851" lon="1.7607">
        <ele>301.9</ele>
        <time>2022-06-05T15:26:28Z</time>
      </trkpt>
      <trkpt lat="44.40847" lon="1.76074">
        <ele>302.2</ele>
        <time>2022-06-05T15:26:33Z</time>
      </trkpt>
      <trkpt lat="44.40844" lon="1.76079">
        <ele>302.1</ele>
        <time>2022-06-05T15:26:38Z</time>
      </trkpt>
      <trkpt lat="44.4084" lon="1.76084">
        <ele>301.5</ele>
        <time>2022-06-05T15:26:43Z</time>
      </trkpt>
      <trkpt lat="44.40836" lon="1.76089">
        <ele>300.7</ele>
        <time>2022-06-05T15:26:48Z</time>
      </trkpt>
      <trkpt lat="44.40832" lon="1.76093">
        <ele>300.1</ele>
        <time>2022-06-05T15:26:53Z</time>
      </trkpt>
      <trkpt lat="44.40828" lon="1.76098">
        <ele>299.6</ele>
        <time>2022-06-05T15:26:58Z</time>
      </trkpt>
      <trkpt lat="44.40824" lon="1.76104">
        <ele>298.8</ele>
        <time>2022-06-05T15:27:03Z</time>
      </trkpt>
      <trkpt lat="44.4082" lon="1.76109">
        <ele>298.5</ele>
        <time>2022-06-05T15:27:08Z</time>
      </trkpt>
      <trkpt lat="44.40816" lon="1.76114">
        <ele>299</ele>
        <time>2022-06-05T15:27:13Z</time>
      </trkpt>
      <trkpt lat="44.40812" lon="1.76119">
        <ele>298.9</ele>
        <time>2022-06-05T15:27:18Z</time>
      </trkpt>
      <trkpt lat="44.40809" lon="1.76123">
        <ele>298.3</ele>
        <time>2022-06-05T15:27:31Z</time>
      </trkpt>
      <trkpt lat="44.40805" lon="1.76124">
        <ele>300.5</ele>
        <time>2022-06-05T15:27:53Z</time>
      </trkpt>
      <trkpt lat="44.408" lon="1.76125">
        <ele>301.8</ele>
        <time>2022-06-05T15:31:27Z</time>
      </trkpt>
      <trkpt lat="44.40796" lon="1.76121">
        <ele>299.4</ele>
        <time>2022-06-05T15:42:01Z</time>
      </trkpt>
      <trkpt lat="44.40794" lon="1.76116">
        <ele>300</ele>
        <time>2022-06-05T15:42:06Z</time>
      </trkpt>
      <trkpt lat="44.4079" lon="1.7611">
        <ele>300.9</ele>
        <time>2022-06-05T15:42:11Z</time>
      </trkpt>
      <trkpt lat="44.40786" lon="1.76105">
        <ele>302.4</ele>
        <time>2022-06-05T15:42:17Z</time>
      </trkpt>
      <trkpt lat="44.40783" lon="1.76099">
        <ele>303.2</ele>
        <time>2022-06-05T15:42:22Z</time>
      </trkpt>
      <trkpt lat="44.4078" lon="1.76093">
        <ele>303.2</ele>
        <time>2022-06-05T15:42:27Z</time>
      </trkpt>
      <trkpt lat="44.40776" lon="1.76088">
        <ele>302.6</ele>
        <time>2022-06-05T15:42:32Z</time>
      </trkpt>
      <trkpt lat="44.40773" lon="1.76082">
        <ele>302.2</ele>
        <time>2022-06-05T15:42:37Z</time>
      </trkpt>
      <trkpt lat="44.40774" lon="1.76075">
        <ele>300.9</ele>
        <time>2022-06-05T15:42:41Z</time>
      </trkpt>
      <trkpt lat="44.40771" lon="1.76071">
        <ele>300.1</ele>
        <time>2022-06-05T15:42:45Z</time>
      </trkpt>
      <trkpt lat="44.40765" lon="1.76069">
        <ele>300.7</ele>
        <time>2022-06-05T15:42:50Z</time>
      </trkpt>
      <trkpt lat="44.4076" lon="1.76068">
        <ele>301.2</ele>
        <time>2022-06-05T15:42:54Z</time>
      </trkpt>
      <trkpt lat="44.40755" lon="1.76068">
        <ele>302</ele>
        <time>2022-06-05T15:42:58Z</time>
      </trkpt>
      <trkpt lat="44.4075" lon="1.76068">
        <ele>302.7</ele>
        <time>2022-06-05T15:43:02Z</time>
      </trkpt>
      <trkpt lat="44.40745" lon="1.76068">
        <ele>303.6</ele>
        <time>2022-06-05T15:43:06Z</time>
      </trkpt>
      <trkpt lat="44.4074" lon="1.76067">
        <ele>305</ele>
        <time>2022-06-05T15:43:10Z</time>
      </trkpt>
      <trkpt lat="44.40735" lon="1.76067">
        <ele>306.2</ele>
        <time>2022-06-05T15:43:14Z</time>
      </trkpt>
      <trkpt lat="44.4073" lon="1.76068">
        <ele>307.7</ele>
        <time>2022-06-05T15:43:18Z</time>
      </trkpt>
      <trkpt lat="44.40725" lon="1.76068">
        <ele>308.4</ele>
        <time>2022-06-05T15:43:22Z</time>
      </trkpt>
      <trkpt lat="44.4072" lon="1.76067">
        <ele>308.4</ele>
        <time>2022-06-05T15:43:26Z</time>
      </trkpt>
      <trkpt lat="44.40715" lon="1.76068">
        <ele>308.5</ele>
        <time>2022-06-05T15:43:30Z</time>
      </trkpt>
      <trkpt lat="44.4071" lon="1.76067">
        <ele>307.9</ele>
        <time>2022-06-05T15:43:34Z</time>
      </trkpt>
      <trkpt lat="44.40705" lon="1.76068">
        <ele>307.1</ele>
        <time>2022-06-05T15:43:38Z</time>
      </trkpt>
      <trkpt lat="44.407" lon="1.76068">
        <ele>306.5</ele>
        <time>2022-06-05T15:43:42Z</time>
      </trkpt>
      <trkpt lat="44.40695" lon="1.76068">
        <ele>306.3</ele>
        <time>2022-06-05T15:43:46Z</time>
      </trkpt>
      <trkpt lat="44.4069" lon="1.76068">
        <ele>306</ele>
        <time>2022-06-05T15:43:50Z</time>
      </trkpt>
      <trkpt lat="44.40685" lon="1.76068">
        <ele>305.5</ele>
        <time>2022-06-05T15:43:54Z</time>
      </trkpt>
      <trkpt lat="44.4068" lon="1.76068">
        <ele>305.1</ele>
        <time>2022-06-05T15:43:58Z</time>
      </trkpt>
      <trkpt lat="44.40676" lon="1.76068">
        <ele>304.7</ele>
        <time>2022-06-05T15:44:02Z</time>
      </trkpt>
      <trkpt lat="44.4067" lon="1.76068">
        <ele>304.2</ele>
        <time>2022-06-05T15:44:07Z</time>
      </trkpt>
      <trkpt lat="44.40665" lon="1.76067">
        <ele>304.2</ele>
        <time>2022-06-05T15:44:12Z</time>
      </trkpt>
      <trkpt lat="44.4066" lon="1.76067">
        <ele>304.1</ele>
        <time>2022-06-05T15:44:17Z</time>
      </trkpt>
      <trkpt lat="44.40655" lon="1.76065">
        <ele>304.5</ele>
        <time>2022-06-05T15:44:22Z</time>
      </trkpt>
      <trkpt lat="44.4065" lon="1.76063">
        <ele>304.8</ele>
        <time>2022-06-05T15:44:27Z</time>
      </trkpt>
      <trkpt lat="44.40645" lon="1.76062">
        <ele>305.7</ele>
        <time>2022-06-05T15:44:32Z</time>
      </trkpt>
      <trkpt lat="44.4064" lon="1.76059">
        <ele>306.1</ele>
        <time>2022-06-05T15:44:37Z</time>
      </trkpt>
      <trkpt lat="44.40637" lon="1.76054">
        <ele>306.6</ele>
        <time>2022-06-05T15:44:42Z</time>
      </trkpt>
      <trkpt lat="44.40633" lon="1.7605">
        <ele>307.2</ele>
        <time>2022-06-05T15:44:46Z</time>
      </trkpt>
      <trkpt lat="44.40628" lon="1.76049">
        <ele>307.3</ele>
        <time>2022-06-05T15:44:50Z</time>
      </trkpt>
      <trkpt lat="44.40624" lon="1.76048">
        <ele>307.8</ele>
        <time>2022-06-05T15:44:54Z</time>
      </trkpt>
      <trkpt lat="44.40619" lon="1.76047">
        <ele>307.3</ele>
        <time>2022-06-05T15:44:58Z</time>
      </trkpt>
      <trkpt lat="44.40614" lon="1.76047">
        <ele>306.9</ele>
        <time>2022-06-05T15:45:02Z</time>
      </trkpt>
      <trkpt lat="44.4061" lon="1.76047">
        <ele>306.4</ele>
        <time>2022-06-05T15:45:06Z</time>
      </trkpt>
      <trkpt lat="44.40605" lon="1.76048">
        <ele>306</ele>
        <time>2022-06-05T15:45:10Z</time>
      </trkpt>
      <trkpt lat="44.406" lon="1.76048">
        <ele>305.7</ele>
        <time>2022-06-05T15:45:14Z</time>
      </trkpt>
      <trkpt lat="44.40595" lon="1.76049">
        <ele>305.6</ele>
        <time>2022-06-05T15:45:18Z</time>
      </trkpt>
      <trkpt lat="44.4059" lon="1.76049">
        <ele>305.5</ele>
        <time>2022-06-05T15:45:22Z</time>
      </trkpt>
      <trkpt lat="44.40586" lon="1.76048">
        <ele>305.9</ele>
        <time>2022-06-05T15:45:26Z</time>
      </trkpt>
      <trkpt lat="44.4058" lon="1.76047">
        <ele>306.3</ele>
        <time>2022-06-05T15:45:31Z</time>
      </trkpt>
      <trkpt lat="44.40576" lon="1.76045">
        <ele>308.3</ele>
        <time>2022-06-05T15:45:36Z</time>
      </trkpt>
      <trkpt lat="44.40572" lon="1.76041">
        <ele>308.9</ele>
        <time>2022-06-05T15:45:40Z</time>
      </trkpt>
      <trkpt lat="44.40568" lon="1.76037">
        <ele>309</ele>
        <time>2022-06-05T15:45:44Z</time>
      </trkpt>
      <trkpt lat="44.40565" lon="1.76032">
        <ele>309.5</ele>
        <time>2022-06-05T15:45:48Z</time>
      </trkpt>
      <trkpt lat="44.40561" lon="1.76026">
        <ele>311</ele>
        <time>2022-06-05T15:45:53Z</time>
      </trkpt>
      <trkpt lat="44.40558" lon="1.7602">
        <ele>311.6</ele>
        <time>2022-06-05T15:45:58Z</time>
      </trkpt>
      <trkpt lat="44.40555" lon="1.76015">
        <ele>312</ele>
        <time>2022-06-05T15:46:02Z</time>
      </trkpt>
      <trkpt lat="44.40552" lon="1.76008">
        <ele>311.9</ele>
        <time>2022-06-05T15:46:07Z</time>
      </trkpt>
      <trkpt lat="44.4055" lon="1.76002">
        <ele>311.3</ele>
        <time>2022-06-05T15:46:11Z</time>
      </trkpt>
      <trkpt lat="44.40548" lon="1.75996">
        <ele>310.9</ele>
        <time>2022-06-05T15:46:15Z</time>
      </trkpt>
      <trkpt lat="44.40545" lon="1.75989">
        <ele>310.5</ele>
        <time>2022-06-05T15:46:20Z</time>
      </trkpt>
      <trkpt lat="44.40543" lon="1.75984">
        <ele>310.7</ele>
        <time>2022-06-05T15:46:24Z</time>
      </trkpt>
      <trkpt lat="44.40541" lon="1.75978">
        <ele>310.2</ele>
        <time>2022-06-05T15:46:28Z</time>
      </trkpt>
      <trkpt lat="44.40539" lon="1.75972">
        <ele>310.4</ele>
        <time>2022-06-05T15:46:32Z</time>
      </trkpt>
      <trkpt lat="44.40536" lon="1.75966">
        <ele>310.9</ele>
        <time>2022-06-05T15:46:36Z</time>
      </trkpt>
      <trkpt lat="44.40533" lon="1.75961">
        <ele>311.7</ele>
        <time>2022-06-05T15:46:41Z</time>
      </trkpt>
      <trkpt lat="44.40529" lon="1.75956">
        <ele>312.5</ele>
        <time>2022-06-05T15:46:46Z</time>
      </trkpt>
      <trkpt lat="44.40526" lon="1.75951">
        <ele>312.3</ele>
        <time>2022-06-05T15:46:50Z</time>
      </trkpt>
      <trkpt lat="44.40522" lon="1.75947">
        <ele>312.3</ele>
        <time>2022-06-05T15:46:54Z</time>
      </trkpt>
      <trkpt lat="44.40518" lon="1.75943">
        <ele>311.8</ele>
        <time>2022-06-05T15:46:59Z</time>
      </trkpt>
      <trkpt lat="44.40515" lon="1.75937">
        <ele>311</ele>
        <time>2022-06-05T15:47:04Z</time>
      </trkpt>
      <trkpt lat="44.40511" lon="1.75932">
        <ele>309.8</ele>
        <time>2022-06-05T15:47:08Z</time>
      </trkpt>
      <trkpt lat="44.40508" lon="1.75927">
        <ele>308.5</ele>
        <time>2022-06-05T15:47:12Z</time>
      </trkpt>
      <trkpt lat="44.40505" lon="1.75922">
        <ele>307.9</ele>
        <time>2022-06-05T15:47:16Z</time>
      </trkpt>
      <trkpt lat="44.40503" lon="1.75916">
        <ele>307.9</ele>
        <time>2022-06-05T15:47:20Z</time>
      </trkpt>
      <trkpt lat="44.40501" lon="1.7591">
        <ele>307.5</ele>
        <time>2022-06-05T15:47:24Z</time>
      </trkpt>
      <trkpt lat="44.40499" lon="1.75904">
        <ele>307.3</ele>
        <time>2022-06-05T15:47:28Z</time>
      </trkpt>
      <trkpt lat="44.40498" lon="1.75898">
        <ele>307</ele>
        <time>2022-06-05T15:47:32Z</time>
      </trkpt>
      <trkpt lat="44.40496" lon="1.75892">
        <ele>306.6</ele>
        <time>2022-06-05T15:47:36Z</time>
      </trkpt>
      <trkpt lat="44.40494" lon="1.75886">
        <ele>306.5</ele>
        <time>2022-06-05T15:47:40Z</time>
      </trkpt>
      <trkpt lat="44.40493" lon="1.75879">
        <ele>305.9</ele>
        <time>2022-06-05T15:47:44Z</time>
      </trkpt>
      <trkpt lat="44.40492" lon="1.75872">
        <ele>305.1</ele>
        <time>2022-06-05T15:47:49Z</time>
      </trkpt>
      <trkpt lat="44.4049" lon="1.75866">
        <ele>304.5</ele>
        <time>2022-06-05T15:47:53Z</time>
      </trkpt>
      <trkpt lat="44.40488" lon="1.7586">
        <ele>303.9</ele>
        <time>2022-06-05T15:47:57Z</time>
      </trkpt>
      <trkpt lat="44.40487" lon="1.75854">
        <ele>303.9</ele>
        <time>2022-06-05T15:48:01Z</time>
      </trkpt>
      <trkpt lat="44.40485" lon="1.75848">
        <ele>304.1</ele>
        <time>2022-06-05T15:48:05Z</time>
      </trkpt>
      <trkpt lat="44.40484" lon="1.75842">
        <ele>304.4</ele>
        <time>2022-06-05T15:48:09Z</time>
      </trkpt>
      <trkpt lat="44.40482" lon="1.75834">
        <ele>304.2</ele>
        <time>2022-06-05T15:48:14Z</time>
      </trkpt>
      <trkpt lat="44.40481" lon="1.75828">
        <ele>304.3</ele>
        <time>2022-06-05T15:48:18Z</time>
      </trkpt>
      <trkpt lat="44.4048" lon="1.75821">
        <ele>303.9</ele>
        <time>2022-06-05T15:48:23Z</time>
      </trkpt>
      <trkpt lat="44.40478" lon="1.75814">
        <ele>303.3</ele>
        <time>2022-06-05T15:48:28Z</time>
      </trkpt>
      <trkpt lat="44.40477" lon="1.75806">
        <ele>303.3</ele>
        <time>2022-06-05T15:48:33Z</time>
      </trkpt>
      <trkpt lat="44.40477" lon="1.75799">
        <ele>303.4</ele>
        <time>2022-06-05T15:48:38Z</time>
      </trkpt>
      <trkpt lat="44.40478" lon="1.75791">
        <ele>303.8</ele>
        <time>2022-06-05T15:48:43Z</time>
      </trkpt>
      <trkpt lat="44.40479" lon="1.75784">
        <ele>304</ele>
        <time>2022-06-05T15:48:48Z</time>
      </trkpt>
      <trkpt lat="44.40478" lon="1.75778">
        <ele>304.1</ele>
        <time>2022-06-05T15:48:53Z</time>
      </trkpt>
      <trkpt lat="44.40475" lon="1.75773">
        <ele>304.4</ele>
        <time>2022-06-05T15:48:58Z</time>
      </trkpt>
      <trkpt lat="44.40472" lon="1.75767">
        <ele>304.4</ele>
        <time>2022-06-05T15:49:03Z</time>
      </trkpt>
      <trkpt lat="44.40469" lon="1.75763">
        <ele>304.3</ele>
        <time>2022-06-05T15:49:08Z</time>
      </trkpt>
      <trkpt lat="44.40465" lon="1.75758">
        <ele>304.5</ele>
        <time>2022-06-05T15:49:13Z</time>
      </trkpt>
      <trkpt lat="44.40461" lon="1.75754">
        <ele>304.3</ele>
        <time>2022-06-05T15:49:18Z</time>
      </trkpt>
      <trkpt lat="44.40457" lon="1.75751">
        <ele>304.2</ele>
        <time>2022-06-05T15:49:23Z</time>
      </trkpt>
      <trkpt lat="44.40451" lon="1.7575">
        <ele>304.1</ele>
        <time>2022-06-05T15:49:28Z</time>
      </trkpt>
      <trkpt lat="44.40446" lon="1.7575">
        <ele>304.4</ele>
        <time>2022-06-05T15:49:33Z</time>
      </trkpt>
      <trkpt lat="44.40442" lon="1.7575">
        <ele>304.4</ele>
        <time>2022-06-05T15:49:38Z</time>
      </trkpt>
      <trkpt lat="44.40437" lon="1.75749">
        <ele>304.1</ele>
        <time>2022-06-05T15:49:43Z</time>
      </trkpt>
      <trkpt lat="44.40432" lon="1.75748">
        <ele>303.2</ele>
        <time>2022-06-05T15:49:48Z</time>
      </trkpt>
      <trkpt lat="44.40427" lon="1.75748">
        <ele>302</ele>
        <time>2022-06-05T15:49:53Z</time>
      </trkpt>
      <trkpt lat="44.40422" lon="1.75747">
        <ele>301</ele>
        <time>2022-06-05T15:49:58Z</time>
      </trkpt>
      <trkpt lat="44.40417" lon="1.75747">
        <ele>300.4</ele>
        <time>2022-06-05T15:50:03Z</time>
      </trkpt>
      <trkpt lat="44.40411" lon="1.75748">
        <ele>299.2</ele>
        <time>2022-06-05T15:50:08Z</time>
      </trkpt>
      <trkpt lat="44.40406" lon="1.75749">
        <ele>298.6</ele>
        <time>2022-06-05T15:50:13Z</time>
      </trkpt>
      <trkpt lat="44.40401" lon="1.7575">
        <ele>298.4</ele>
        <time>2022-06-05T15:50:18Z</time>
      </trkpt>
      <trkpt lat="44.40396" lon="1.75751">
        <ele>298.3</ele>
        <time>2022-06-05T15:50:23Z</time>
      </trkpt>
      <trkpt lat="44.40391" lon="1.75752">
        <ele>298</ele>
        <time>2022-06-05T15:50:28Z</time>
      </trkpt>
      <trkpt lat="44.40385" lon="1.75753">
        <ele>297.7</ele>
        <time>2022-06-05T15:50:33Z</time>
      </trkpt>
      <trkpt lat="44.4038" lon="1.75754">
        <ele>298.5</ele>
        <time>2022-06-05T15:50:38Z</time>
      </trkpt>
      <trkpt lat="44.40375" lon="1.75755">
        <ele>298.5</ele>
        <time>2022-06-05T15:50:42Z</time>
      </trkpt>
      <trkpt lat="44.4037" lon="1.75756">
        <ele>298</ele>
        <time>2022-06-05T15:50:47Z</time>
      </trkpt>
      <trkpt lat="44.40365" lon="1.75757">
        <ele>298.4</ele>
        <time>2022-06-05T15:50:52Z</time>
      </trkpt>
      <trkpt lat="44.4036" lon="1.75758">
        <ele>298.6</ele>
        <time>2022-06-05T15:50:57Z</time>
      </trkpt>
      <trkpt lat="44.40354" lon="1.75759">
        <ele>299.2</ele>
        <time>2022-06-05T15:51:02Z</time>
      </trkpt>
      <trkpt lat="44.40349" lon="1.75759">
        <ele>300</ele>
        <time>2022-06-05T15:51:07Z</time>
      </trkpt>
      <trkpt lat="44.40343" lon="1.75759">
        <ele>299.5</ele>
        <time>2022-06-05T15:51:12Z</time>
      </trkpt>
      <trkpt lat="44.40338" lon="1.7576">
        <ele>298.7</ele>
        <time>2022-06-05T15:51:17Z</time>
      </trkpt>
      <trkpt lat="44.40333" lon="1.75761">
        <ele>298.6</ele>
        <time>2022-06-05T15:51:22Z</time>
      </trkpt>
      <trkpt lat="44.40328" lon="1.75762">
        <ele>298.1</ele>
        <time>2022-06-05T15:51:27Z</time>
      </trkpt>
      <trkpt lat="44.40322" lon="1.75764">
        <ele>297.5</ele>
        <time>2022-06-05T15:51:32Z</time>
      </trkpt>
      <trkpt lat="44.40317" lon="1.75765">
        <ele>296.5</ele>
        <time>2022-06-05T15:51:37Z</time>
      </trkpt>
      <trkpt lat="44.40312" lon="1.75767">
        <ele>295.7</ele>
        <time>2022-06-05T15:51:42Z</time>
      </trkpt>
      <trkpt lat="44.40307" lon="1.7577">
        <ele>294.7</ele>
        <time>2022-06-05T15:51:47Z</time>
      </trkpt>
      <trkpt lat="44.40302" lon="1.75772">
        <ele>293.9</ele>
        <time>2022-06-05T15:51:52Z</time>
      </trkpt>
      <trkpt lat="44.40297" lon="1.75774">
        <ele>292.5</ele>
        <time>2022-06-05T15:51:57Z</time>
      </trkpt>
      <trkpt lat="44.40292" lon="1.75777">
        <ele>291.1</ele>
        <time>2022-06-05T15:52:02Z</time>
      </trkpt>
      <trkpt lat="44.40287" lon="1.7578">
        <ele>290.2</ele>
        <time>2022-06-05T15:52:07Z</time>
      </trkpt>
      <trkpt lat="44.40282" lon="1.75781">
        <ele>289.3</ele>
        <time>2022-06-05T15:52:12Z</time>
      </trkpt>
      <trkpt lat="44.40276" lon="1.75782">
        <ele>288.8</ele>
        <time>2022-06-05T15:52:17Z</time>
      </trkpt>
      <trkpt lat="44.40272" lon="1.75783">
        <ele>289.1</ele>
        <time>2022-06-05T15:52:21Z</time>
      </trkpt>
      <trkpt lat="44.40266" lon="1.75782">
        <ele>289.4</ele>
        <time>2022-06-05T15:52:26Z</time>
      </trkpt>
      <trkpt lat="44.40261" lon="1.7578">
        <ele>289.6</ele>
        <time>2022-06-05T15:52:31Z</time>
      </trkpt>
      <trkpt lat="44.40256" lon="1.75776">
        <ele>290.8</ele>
        <time>2022-06-05T15:52:36Z</time>
      </trkpt>
      <trkpt lat="44.40251" lon="1.75773">
        <ele>292.1</ele>
        <time>2022-06-05T15:52:41Z</time>
      </trkpt>
      <trkpt lat="44.40246" lon="1.75771">
        <ele>291.9</ele>
        <time>2022-06-05T15:52:46Z</time>
      </trkpt>
      <trkpt lat="44.40241" lon="1.75771">
        <ele>291.2</ele>
        <time>2022-06-05T15:52:51Z</time>
      </trkpt>
      <trkpt lat="44.40236" lon="1.75773">
        <ele>289.7</ele>
        <time>2022-06-05T15:52:56Z</time>
      </trkpt>
      <trkpt lat="44.40233" lon="1.75778">
        <ele>288.6</ele>
        <time>2022-06-05T15:53:01Z</time>
      </trkpt>
      <trkpt lat="44.40231" lon="1.75785">
        <ele>289.6</ele>
        <time>2022-06-05T15:53:06Z</time>
      </trkpt>
      <trkpt lat="44.40228" lon="1.7579">
        <ele>290.4</ele>
        <time>2022-06-05T15:53:10Z</time>
      </trkpt>
      <trkpt lat="44.40223" lon="1.75793">
        <ele>290.5</ele>
        <time>2022-06-05T15:53:14Z</time>
      </trkpt>
      <trkpt lat="44.40218" lon="1.75794">
        <ele>290.5</ele>
        <time>2022-06-05T15:53:19Z</time>
      </trkpt>
      <trkpt lat="44.40213" lon="1.75794">
        <ele>291.1</ele>
        <time>2022-06-05T15:53:24Z</time>
      </trkpt>
      <trkpt lat="44.40208" lon="1.75794">
        <ele>292.1</ele>
        <time>2022-06-05T15:53:29Z</time>
      </trkpt>
      <trkpt lat="44.40203" lon="1.75793">
        <ele>292.7</ele>
        <time>2022-06-05T15:53:34Z</time>
      </trkpt>
      <trkpt lat="44.40198" lon="1.75791">
        <ele>293.4</ele>
        <time>2022-06-05T15:53:39Z</time>
      </trkpt>
      <trkpt lat="44.40194" lon="1.75786">
        <ele>293.5</ele>
        <time>2022-06-05T15:53:44Z</time>
      </trkpt>
      <trkpt lat="44.40193" lon="1.75779">
        <ele>293</ele>
        <time>2022-06-05T15:53:49Z</time>
      </trkpt>
      <trkpt lat="44.40192" lon="1.75771">
        <ele>293.2</ele>
        <time>2022-06-05T15:53:54Z</time>
      </trkpt>
      <trkpt lat="44.4019" lon="1.75764">
        <ele>293.4</ele>
        <time>2022-06-05T15:53:59Z</time>
      </trkpt>
      <trkpt lat="44.40189" lon="1.75758">
        <ele>294</ele>
        <time>2022-06-05T15:54:04Z</time>
      </trkpt>
      <trkpt lat="44.40187" lon="1.75752">
        <ele>294.6</ele>
        <time>2022-06-05T15:54:09Z</time>
      </trkpt>
      <trkpt lat="44.40184" lon="1.75745">
        <ele>295.7</ele>
        <time>2022-06-05T15:54:15Z</time>
      </trkpt>
      <trkpt lat="44.40181" lon="1.75741">
        <ele>295.7</ele>
        <time>2022-06-05T15:54:20Z</time>
      </trkpt>
      <trkpt lat="44.40176" lon="1.75737">
        <ele>296.2</ele>
        <time>2022-06-05T15:54:26Z</time>
      </trkpt>
      <trkpt lat="44.40172" lon="1.75737">
        <ele>297.3</ele>
        <time>2022-06-05T15:54:31Z</time>
      </trkpt>
      <trkpt lat="44.40167" lon="1.75736">
        <ele>298</ele>
        <time>2022-06-05T15:54:36Z</time>
      </trkpt>
      <trkpt lat="44.40162" lon="1.75735">
        <ele>298.7</ele>
        <time>2022-06-05T15:54:41Z</time>
      </trkpt>
      <trkpt lat="44.40157" lon="1.75735">
        <ele>299.4</ele>
        <time>2022-06-05T15:54:46Z</time>
      </trkpt>
      <trkpt lat="44.40152" lon="1.75735">
        <ele>300.7</ele>
        <time>2022-06-05T15:54:51Z</time>
      </trkpt>
      <trkpt lat="44.40148" lon="1.75734">
        <ele>300.7</ele>
        <time>2022-06-05T15:54:56Z</time>
      </trkpt>
      <trkpt lat="44.40143" lon="1.75734">
        <ele>301.6</ele>
        <time>2022-06-05T15:55:01Z</time>
      </trkpt>
      <trkpt lat="44.40138" lon="1.75733">
        <ele>302</ele>
        <time>2022-06-05T15:55:06Z</time>
      </trkpt>
      <trkpt lat="44.40133" lon="1.75732">
        <ele>301.7</ele>
        <time>2022-06-05T15:55:11Z</time>
      </trkpt>
      <trkpt lat="44.40128" lon="1.7573">
        <ele>301.3</ele>
        <time>2022-06-05T15:55:16Z</time>
      </trkpt>
      <trkpt lat="44.40123" lon="1.75728">
        <ele>301.6</ele>
        <time>2022-06-05T15:55:21Z</time>
      </trkpt>
      <trkpt lat="44.40118" lon="1.75727">
        <ele>302.3</ele>
        <time>2022-06-05T15:55:26Z</time>
      </trkpt>
      <trkpt lat="44.40114" lon="1.75725">
        <ele>303.2</ele>
        <time>2022-06-05T15:55:31Z</time>
      </trkpt>
      <trkpt lat="44.40109" lon="1.75723">
        <ele>304</ele>
        <time>2022-06-05T15:55:36Z</time>
      </trkpt>
      <trkpt lat="44.40104" lon="1.75721">
        <ele>304.1</ele>
        <time>2022-06-05T15:55:41Z</time>
      </trkpt>
      <trkpt lat="44.40099" lon="1.75719">
        <ele>304.6</ele>
        <time>2022-06-05T15:55:46Z</time>
      </trkpt>
      <trkpt lat="44.40094" lon="1.75717">
        <ele>305.6</ele>
        <time>2022-06-05T15:55:51Z</time>
      </trkpt>
      <trkpt lat="44.4009" lon="1.75715">
        <ele>306.5</ele>
        <time>2022-06-05T15:55:56Z</time>
      </trkpt>
      <trkpt lat="44.40085" lon="1.75712">
        <ele>307.3</ele>
        <time>2022-06-05T15:56:01Z</time>
      </trkpt>
      <trkpt lat="44.40081" lon="1.75709">
        <ele>307.4</ele>
        <time>2022-06-05T15:56:06Z</time>
      </trkpt>
      <trkpt lat="44.40076" lon="1.75707">
        <ele>308.1</ele>
        <time>2022-06-05T15:56:11Z</time>
      </trkpt>
      <trkpt lat="44.40071" lon="1.75705">
        <ele>309.3</ele>
        <time>2022-06-05T15:56:16Z</time>
      </trkpt>
      <trkpt lat="44.40066" lon="1.75704">
        <ele>309.6</ele>
        <time>2022-06-05T15:56:21Z</time>
      </trkpt>
      <trkpt lat="44.40062" lon="1.757">
        <ele>308.2</ele>
        <time>2022-06-05T15:56:27Z</time>
      </trkpt>
      <trkpt lat="44.4006" lon="1.75693">
        <ele>309.6</ele>
        <time>2022-06-05T15:56:33Z</time>
      </trkpt>
      <trkpt lat="44.4006" lon="1.75686">
        <ele>308.3</ele>
        <time>2022-06-05T15:57:57Z</time>
      </trkpt>
      <trkpt lat="44.40063" lon="1.7568">
        <ele>308.2</ele>
        <time>2022-06-05T15:58:03Z</time>
      </trkpt>
      <trkpt lat="44.40064" lon="1.75674">
        <ele>308</ele>
        <time>2022-06-05T15:58:08Z</time>
      </trkpt>
      <trkpt lat="44.40066" lon="1.75667">
        <ele>307.7</ele>
        <time>2022-06-05T15:58:13Z</time>
      </trkpt>
      <trkpt lat="44.40069" lon="1.75661">
        <ele>307.7</ele>
        <time>2022-06-05T15:58:18Z</time>
      </trkpt>
      <trkpt lat="44.4007" lon="1.75655">
        <ele>307.3</ele>
        <time>2022-06-05T15:58:23Z</time>
      </trkpt>
      <trkpt lat="44.40071" lon="1.75648">
        <ele>306.8</ele>
        <time>2022-06-05T15:58:28Z</time>
      </trkpt>
      <trkpt lat="44.40073" lon="1.75642">
        <ele>305.7</ele>
        <time>2022-06-05T15:58:33Z</time>
      </trkpt>
      <trkpt lat="44.40074" lon="1.75636">
        <ele>305</ele>
        <time>2022-06-05T15:58:38Z</time>
      </trkpt>
      <trkpt lat="44.40074" lon="1.75629">
        <ele>304.4</ele>
        <time>2022-06-05T15:58:43Z</time>
      </trkpt>
      <trkpt lat="44.40075" lon="1.75623">
        <ele>303.1</ele>
        <time>2022-06-05T15:58:48Z</time>
      </trkpt>
      <trkpt lat="44.40076" lon="1.75616">
        <ele>302</ele>
        <time>2022-06-05T15:58:53Z</time>
      </trkpt>
      <trkpt lat="44.40076" lon="1.75608">
        <ele>301.6</ele>
        <time>2022-06-05T15:58:58Z</time>
      </trkpt>
      <trkpt lat="44.40077" lon="1.75601">
        <ele>302</ele>
        <time>2022-06-05T15:59:02Z</time>
      </trkpt>
      <trkpt lat="44.40079" lon="1.75595">
        <ele>302.9</ele>
        <time>2022-06-05T15:59:06Z</time>
      </trkpt>
      <trkpt lat="44.4008" lon="1.75589">
        <ele>303.3</ele>
        <time>2022-06-05T15:59:10Z</time>
      </trkpt>
      <trkpt lat="44.40083" lon="1.75582">
        <ele>303.6</ele>
        <time>2022-06-05T15:59:15Z</time>
      </trkpt>
      <trkpt lat="44.40085" lon="1.75574">
        <ele>303.8</ele>
        <time>2022-06-05T15:59:20Z</time>
      </trkpt>
      <trkpt lat="44.40086" lon="1.75568">
        <ele>304.2</ele>
        <time>2022-06-05T15:59:24Z</time>
      </trkpt>
      <trkpt lat="44.40087" lon="1.75561">
        <ele>304.8</ele>
        <time>2022-06-05T15:59:29Z</time>
      </trkpt>
      <trkpt lat="44.40089" lon="1.75554">
        <ele>305.3</ele>
        <time>2022-06-05T15:59:34Z</time>
      </trkpt>
      <trkpt lat="44.40092" lon="1.75547">
        <ele>305.3</ele>
        <time>2022-06-05T15:59:39Z</time>
      </trkpt>
      <trkpt lat="44.40094" lon="1.7554">
        <ele>306</ele>
        <time>2022-06-05T15:59:44Z</time>
      </trkpt>
      <trkpt lat="44.40095" lon="1.75534">
        <ele>306.7</ele>
        <time>2022-06-05T15:59:48Z</time>
      </trkpt>
      <trkpt lat="44.40096" lon="1.75526">
        <ele>307.5</ele>
        <time>2022-06-05T15:59:53Z</time>
      </trkpt>
      <trkpt lat="44.40097" lon="1.75519">
        <ele>308.2</ele>
        <time>2022-06-05T15:59:58Z</time>
      </trkpt>
      <trkpt lat="44.40098" lon="1.75513">
        <ele>308.7</ele>
        <time>2022-06-05T16:00:03Z</time>
      </trkpt>
      <trkpt lat="44.40099" lon="1.75506">
        <ele>309</ele>
        <time>2022-06-05T16:00:08Z</time>
      </trkpt>
      <trkpt lat="44.401" lon="1.75499">
        <ele>308.8</ele>
        <time>2022-06-05T16:00:13Z</time>
      </trkpt>
      <trkpt lat="44.40101" lon="1.75493">
        <ele>308.5</ele>
        <time>2022-06-05T16:00:18Z</time>
      </trkpt>
      <trkpt lat="44.40102" lon="1.75486">
        <ele>309.1</ele>
        <time>2022-06-05T16:00:23Z</time>
      </trkpt>
      <trkpt lat="44.40104" lon="1.75479">
        <ele>309.1</ele>
        <time>2022-06-05T16:00:28Z</time>
      </trkpt>
      <trkpt lat="44.40106" lon="1.75473">
        <ele>309.5</ele>
        <time>2022-06-05T16:00:33Z</time>
      </trkpt>
      <trkpt lat="44.40109" lon="1.75467">
        <ele>309.6</ele>
        <time>2022-06-05T16:00:38Z</time>
      </trkpt>
      <trkpt lat="44.40111" lon="1.7546">
        <ele>310.7</ele>
        <time>2022-06-05T16:00:43Z</time>
      </trkpt>
      <trkpt lat="44.40114" lon="1.75454">
        <ele>312</ele>
        <time>2022-06-05T16:00:48Z</time>
      </trkpt>
      <trkpt lat="44.40117" lon="1.75448">
        <ele>312.8</ele>
        <time>2022-06-05T16:00:53Z</time>
      </trkpt>
      <trkpt lat="44.4012" lon="1.75441">
        <ele>313.1</ele>
        <time>2022-06-05T16:00:58Z</time>
      </trkpt>
      <trkpt lat="44.40122" lon="1.75435">
        <ele>313.9</ele>
        <time>2022-06-05T16:01:03Z</time>
      </trkpt>
      <trkpt lat="44.40125" lon="1.75429">
        <ele>314.7</ele>
        <time>2022-06-05T16:01:08Z</time>
      </trkpt>
      <trkpt lat="44.40127" lon="1.75423">
        <ele>315.5</ele>
        <time>2022-06-05T16:01:13Z</time>
      </trkpt>
      <trkpt lat="44.4013" lon="1.75417">
        <ele>316.3</ele>
        <time>2022-06-05T16:01:18Z</time>
      </trkpt>
      <trkpt lat="44.40132" lon="1.75411">
        <ele>317.3</ele>
        <time>2022-06-05T16:01:23Z</time>
      </trkpt>
      <trkpt lat="44.40134" lon="1.75404">
        <ele>317.7</ele>
        <time>2022-06-05T16:01:28Z</time>
      </trkpt>
      <trkpt lat="44.40136" lon="1.75398">
        <ele>318.3</ele>
        <time>2022-06-05T16:01:33Z</time>
      </trkpt>
      <trkpt lat="44.40139" lon="1.75391">
        <ele>318.2</ele>
        <time>2022-06-05T16:01:38Z</time>
      </trkpt>
      <trkpt lat="44.4014" lon="1.75385">
        <ele>317.8</ele>
        <time>2022-06-05T16:01:43Z</time>
      </trkpt>
      <trkpt lat="44.40142" lon="1.75378">
        <ele>317.9</ele>
        <time>2022-06-05T16:01:48Z</time>
      </trkpt>
      <trkpt lat="44.40143" lon="1.75371">
        <ele>318.7</ele>
        <time>2022-06-05T16:01:53Z</time>
      </trkpt>
      <trkpt lat="44.40144" lon="1.75365">
        <ele>319.4</ele>
        <time>2022-06-05T16:01:58Z</time>
      </trkpt>
      <trkpt lat="44.40145" lon="1.75357">
        <ele>318.8</ele>
        <time>2022-06-05T16:02:03Z</time>
      </trkpt>
      <trkpt lat="44.40145" lon="1.7535">
        <ele>319.4</ele>
        <time>2022-06-05T16:02:08Z</time>
      </trkpt>
      <trkpt lat="44.40146" lon="1.75344">
        <ele>320.2</ele>
        <time>2022-06-05T16:02:13Z</time>
      </trkpt>
      <trkpt lat="44.40147" lon="1.75337">
        <ele>320.8</ele>
        <time>2022-06-05T16:02:18Z</time>
      </trkpt>
      <trkpt lat="44.40147" lon="1.7533">
        <ele>320.4</ele>
        <time>2022-06-05T16:02:23Z</time>
      </trkpt>
      <trkpt lat="44.40148" lon="1.75323">
        <ele>320.9</ele>
        <time>2022-06-05T16:02:28Z</time>
      </trkpt>
      <trkpt lat="44.40148" lon="1.75317">
        <ele>321.8</ele>
        <time>2022-06-05T16:02:34Z</time>
      </trkpt>
      <trkpt lat="44.40148" lon="1.75309">
        <ele>322.8</ele>
        <time>2022-06-05T16:02:43Z</time>
      </trkpt>
      <trkpt lat="44.40149" lon="1.75303">
        <ele>323.6</ele>
        <time>2022-06-05T16:02:48Z</time>
      </trkpt>
      <trkpt lat="44.4015" lon="1.75297">
        <ele>324.1</ele>
        <time>2022-06-05T16:02:53Z</time>
      </trkpt>
      <trkpt lat="44.40151" lon="1.7529">
        <ele>323.8</ele>
        <time>2022-06-05T16:02:58Z</time>
      </trkpt>
      <trkpt lat="44.40152" lon="1.75284">
        <ele>324</ele>
        <time>2022-06-05T16:03:03Z</time>
      </trkpt>
      <trkpt lat="44.40153" lon="1.75277">
        <ele>324.1</ele>
        <time>2022-06-05T16:03:08Z</time>
      </trkpt>
      <trkpt lat="44.40153" lon="1.75269">
        <ele>324.6</ele>
        <time>2022-06-05T16:03:13Z</time>
      </trkpt>
      <trkpt lat="44.40155" lon="1.75263">
        <ele>325.8</ele>
        <time>2022-06-05T16:03:18Z</time>
      </trkpt>
      <trkpt lat="44.4016" lon="1.75261">
        <ele>326.9</ele>
        <time>2022-06-05T16:03:26Z</time>
      </trkpt>
      <trkpt lat="44.40163" lon="1.75257">
        <ele>326.5</ele>
        <time>2022-06-05T16:03:31Z</time>
      </trkpt>
      <trkpt lat="44.40168" lon="1.75255">
        <ele>326.4</ele>
        <time>2022-06-05T16:03:37Z</time>
      </trkpt>
      <trkpt lat="44.40173" lon="1.75255">
        <ele>326.7</ele>
        <time>2022-06-05T16:03:45Z</time>
      </trkpt>
      <trkpt lat="44.40177" lon="1.75255">
        <ele>327.1</ele>
        <time>2022-06-05T16:03:53Z</time>
      </trkpt>
      <trkpt lat="44.40179" lon="1.75249">
        <ele>330.9</ele>
        <time>2022-06-05T16:08:46Z</time>
      </trkpt>
      <trkpt lat="44.40175" lon="1.75254">
        <ele>331.1</ele>
        <time>2022-06-05T16:09:59Z</time>
      </trkpt>
      <trkpt lat="44.4017" lon="1.75257">
        <ele>330.3</ele>
        <time>2022-06-05T16:10:05Z</time>
      </trkpt>
      <trkpt lat="44.40165" lon="1.75259">
        <ele>329.9</ele>
        <time>2022-06-05T16:10:09Z</time>
      </trkpt>
      <trkpt lat="44.4016" lon="1.7526">
        <ele>328.7</ele>
        <time>2022-06-05T16:10:14Z</time>
      </trkpt>
      <trkpt lat="44.40156" lon="1.7526">
        <ele>326.8</ele>
        <time>2022-06-05T16:10:21Z</time>
      </trkpt>
      <trkpt lat="44.40158" lon="1.75255">
        <ele>324.8</ele>
        <time>2022-06-05T16:11:14Z</time>
      </trkpt>
      <trkpt lat="44.40158" lon="1.75247">
        <ele>323.9</ele>
        <time>2022-06-05T16:11:19Z</time>
      </trkpt>
      <trkpt lat="44.40159" lon="1.7524">
        <ele>323.7</ele>
        <time>2022-06-05T16:11:24Z</time>
      </trkpt>
      <trkpt lat="44.40159" lon="1.75233">
        <ele>323.4</ele>
        <time>2022-06-05T16:11:28Z</time>
      </trkpt>
      <trkpt lat="44.40159" lon="1.75226">
        <ele>323</ele>
        <time>2022-06-05T16:11:33Z</time>
      </trkpt>
      <trkpt lat="44.4016" lon="1.75219">
        <ele>323.5</ele>
        <time>2022-06-05T16:11:38Z</time>
      </trkpt>
      <trkpt lat="44.40161" lon="1.75211">
        <ele>325.3</ele>
        <time>2022-06-05T16:11:43Z</time>
      </trkpt>
      <trkpt lat="44.40162" lon="1.75204">
        <ele>327</ele>
        <time>2022-06-05T16:11:48Z</time>
      </trkpt>
      <trkpt lat="44.40163" lon="1.75198">
        <ele>328.3</ele>
        <time>2022-06-05T16:11:53Z</time>
      </trkpt>
      <trkpt lat="44.40165" lon="1.75191">
        <ele>329</ele>
        <time>2022-06-05T16:11:58Z</time>
      </trkpt>
      <trkpt lat="44.40167" lon="1.75185">
        <ele>329.2</ele>
        <time>2022-06-05T16:12:03Z</time>
      </trkpt>
      <trkpt lat="44.40169" lon="1.75178">
        <ele>330.1</ele>
        <time>2022-06-05T16:12:08Z</time>
      </trkpt>
      <trkpt lat="44.40171" lon="1.75173">
        <ele>330.1</ele>
        <time>2022-06-05T16:12:12Z</time>
      </trkpt>
      <trkpt lat="44.40174" lon="1.75166">
        <ele>329.7</ele>
        <time>2022-06-05T16:12:17Z</time>
      </trkpt>
      <trkpt lat="44.40176" lon="1.75159">
        <ele>329.4</ele>
        <time>2022-06-05T16:12:22Z</time>
      </trkpt>
      <trkpt lat="44.40178" lon="1.75152">
        <ele>327.9</ele>
        <time>2022-06-05T16:12:27Z</time>
      </trkpt>
      <trkpt lat="44.4018" lon="1.75146">
        <ele>326.6</ele>
        <time>2022-06-05T16:12:31Z</time>
      </trkpt>
      <trkpt lat="44.40181" lon="1.75139">
        <ele>326.3</ele>
        <time>2022-06-05T16:12:35Z</time>
      </trkpt>
      <trkpt lat="44.40182" lon="1.75132">
        <ele>326.5</ele>
        <time>2022-06-05T16:12:40Z</time>
      </trkpt>
      <trkpt lat="44.40185" lon="1.75128">
        <ele>327.9</ele>
        <time>2022-06-05T16:12:46Z</time>
      </trkpt>
      <trkpt lat="44.4019" lon="1.75129">
        <ele>327.9</ele>
        <time>2022-06-05T16:12:54Z</time>
      </trkpt>
      <trkpt lat="44.40189" lon="1.75122">
        <ele>326.5</ele>
        <time>2022-06-05T16:13:23Z</time>
      </trkpt>
      <trkpt lat="44.4019" lon="1.75116">
        <ele>326.1</ele>
        <time>2022-06-05T16:13:28Z</time>
      </trkpt>
      <trkpt lat="44.40194" lon="1.7511">
        <ele>325.5</ele>
        <time>2022-06-05T16:13:33Z</time>
      </trkpt>
      <trkpt lat="44.40197" lon="1.75105">
        <ele>325.1</ele>
        <time>2022-06-05T16:13:37Z</time>
      </trkpt>
      <trkpt lat="44.402" lon="1.751">
        <ele>325.6</ele>
        <time>2022-06-05T16:13:41Z</time>
      </trkpt>
      <trkpt lat="44.40203" lon="1.75094">
        <ele>326.1</ele>
        <time>2022-06-05T16:13:45Z</time>
      </trkpt>
      <trkpt lat="44.40207" lon="1.75088">
        <ele>326.4</ele>
        <time>2022-06-05T16:13:49Z</time>
      </trkpt>
      <trkpt lat="44.4021" lon="1.75083">
        <ele>326.6</ele>
        <time>2022-06-05T16:13:53Z</time>
      </trkpt>
      <trkpt lat="44.40213" lon="1.75078">
        <ele>326.8</ele>
        <time>2022-06-05T16:13:57Z</time>
      </trkpt>
      <trkpt lat="44.40216" lon="1.75072">
        <ele>326.9</ele>
        <time>2022-06-05T16:14:01Z</time>
      </trkpt>
      <trkpt lat="44.4022" lon="1.75067">
        <ele>327</ele>
        <time>2022-06-05T16:14:05Z</time>
      </trkpt>
      <trkpt lat="44.40223" lon="1.75061">
        <ele>327.7</ele>
        <time>2022-06-05T16:14:10Z</time>
      </trkpt>
      <trkpt lat="44.40226" lon="1.75056">
        <ele>327.4</ele>
        <time>2022-06-05T16:14:14Z</time>
      </trkpt>
      <trkpt lat="44.40229" lon="1.7505">
        <ele>326.9</ele>
        <time>2022-06-05T16:14:18Z</time>
      </trkpt>
      <trkpt lat="44.40232" lon="1.75045">
        <ele>326.2</ele>
        <time>2022-06-05T16:14:22Z</time>
      </trkpt>
      <trkpt lat="44.40236" lon="1.7504">
        <ele>326</ele>
        <time>2022-06-05T16:14:26Z</time>
      </trkpt>
      <trkpt lat="44.4024" lon="1.75035">
        <ele>325.8</ele>
        <time>2022-06-05T16:14:30Z</time>
      </trkpt>
      <trkpt lat="44.40244" lon="1.75031">
        <ele>325.6</ele>
        <time>2022-06-05T16:14:34Z</time>
      </trkpt>
      <trkpt lat="44.40248" lon="1.75027">
        <ele>325.1</ele>
        <time>2022-06-05T16:14:38Z</time>
      </trkpt>
      <trkpt lat="44.40253" lon="1.75022">
        <ele>325</ele>
        <time>2022-06-05T16:14:42Z</time>
      </trkpt>
      <trkpt lat="44.40256" lon="1.75018">
        <ele>325</ele>
        <time>2022-06-05T16:14:46Z</time>
      </trkpt>
      <trkpt lat="44.4026" lon="1.75013">
        <ele>324.8</ele>
        <time>2022-06-05T16:14:50Z</time>
      </trkpt>
      <trkpt lat="44.40263" lon="1.75008">
        <ele>324.7</ele>
        <time>2022-06-05T16:14:54Z</time>
      </trkpt>
      <trkpt lat="44.40267" lon="1.75004">
        <ele>325</ele>
        <time>2022-06-05T16:14:58Z</time>
      </trkpt>
      <trkpt lat="44.4027" lon="1.75">
        <ele>325.1</ele>
        <time>2022-06-05T16:15:02Z</time>
      </trkpt>
      <trkpt lat="44.40274" lon="1.74995">
        <ele>325.5</ele>
        <time>2022-06-05T16:15:06Z</time>
      </trkpt>
      <trkpt lat="44.40278" lon="1.7499">
        <ele>325.8</ele>
        <time>2022-06-05T16:15:10Z</time>
      </trkpt>
      <trkpt lat="44.40282" lon="1.74986">
        <ele>325.7</ele>
        <time>2022-06-05T16:15:14Z</time>
      </trkpt>
      <trkpt lat="44.40285" lon="1.74982">
        <ele>325.3</ele>
        <time>2022-06-05T16:15:18Z</time>
      </trkpt>
      <trkpt lat="44.40289" lon="1.74978">
        <ele>325.8</ele>
        <time>2022-06-05T16:15:22Z</time>
      </trkpt>
      <trkpt lat="44.40292" lon="1.74973">
        <ele>326.8</ele>
        <time>2022-06-05T16:15:26Z</time>
      </trkpt>
      <trkpt lat="44.40297" lon="1.74969">
        <ele>327</ele>
        <time>2022-06-05T16:15:31Z</time>
      </trkpt>
      <trkpt lat="44.40301" lon="1.74965">
        <ele>327.3</ele>
        <time>2022-06-05T16:15:35Z</time>
      </trkpt>
      <trkpt lat="44.40305" lon="1.74961">
        <ele>327.2</ele>
        <time>2022-06-05T16:15:39Z</time>
      </trkpt>
      <trkpt lat="44.40308" lon="1.74957">
        <ele>327</ele>
        <time>2022-06-05T16:15:43Z</time>
      </trkpt>
      <trkpt lat="44.40312" lon="1.74953">
        <ele>326.7</ele>
        <time>2022-06-05T16:15:47Z</time>
      </trkpt>
      <trkpt lat="44.40316" lon="1.74948">
        <ele>326.5</ele>
        <time>2022-06-05T16:15:52Z</time>
      </trkpt>
      <trkpt lat="44.4032" lon="1.74943">
        <ele>326.9</ele>
        <time>2022-06-05T16:15:56Z</time>
      </trkpt>
      <trkpt lat="44.40324" lon="1.74939">
        <ele>326.9</ele>
        <time>2022-06-05T16:16:00Z</time>
      </trkpt>
      <trkpt lat="44.40328" lon="1.74934">
        <ele>327</ele>
        <time>2022-06-05T16:16:04Z</time>
      </trkpt>
      <trkpt lat="44.40332" lon="1.7493">
        <ele>327.2</ele>
        <time>2022-06-05T16:16:08Z</time>
      </trkpt>
      <trkpt lat="44.40335" lon="1.74926">
        <ele>327.7</ele>
        <time>2022-06-05T16:16:12Z</time>
      </trkpt>
      <trkpt lat="44.40339" lon="1.74921">
        <ele>328.1</ele>
        <time>2022-06-05T16:16:17Z</time>
      </trkpt>
      <trkpt lat="44.40343" lon="1.74916">
        <ele>328.3</ele>
        <time>2022-06-05T16:16:21Z</time>
      </trkpt>
      <trkpt lat="44.40346" lon="1.74911">
        <ele>328.4</ele>
        <time>2022-06-05T16:16:25Z</time>
      </trkpt>
      <trkpt lat="44.40349" lon="1.74907">
        <ele>328.4</ele>
        <time>2022-06-05T16:16:29Z</time>
      </trkpt>
      <trkpt lat="44.40351" lon="1.74901">
        <ele>329</ele>
        <time>2022-06-05T16:16:33Z</time>
      </trkpt>
      <trkpt lat="44.40354" lon="1.74896">
        <ele>329.4</ele>
        <time>2022-06-05T16:16:37Z</time>
      </trkpt>
      <trkpt lat="44.40357" lon="1.74891">
        <ele>329.3</ele>
        <time>2022-06-05T16:16:41Z</time>
      </trkpt>
      <trkpt lat="44.4036" lon="1.74886">
        <ele>329.5</ele>
        <time>2022-06-05T16:16:45Z</time>
      </trkpt>
      <trkpt lat="44.40363" lon="1.74882">
        <ele>329.9</ele>
        <time>2022-06-05T16:16:49Z</time>
      </trkpt>
      <trkpt lat="44.40367" lon="1.74877">
        <ele>329.9</ele>
        <time>2022-06-05T16:16:53Z</time>
      </trkpt>
      <trkpt lat="44.40371" lon="1.74872">
        <ele>330</ele>
        <time>2022-06-05T16:16:58Z</time>
      </trkpt>
      <trkpt lat="44.40374" lon="1.74866">
        <ele>329.7</ele>
        <time>2022-06-05T16:17:03Z</time>
      </trkpt>
      <trkpt lat="44.40378" lon="1.74861">
        <ele>329.5</ele>
        <time>2022-06-05T16:17:08Z</time>
      </trkpt>
      <trkpt lat="44.40381" lon="1.74855">
        <ele>329.4</ele>
        <time>2022-06-05T16:17:13Z</time>
      </trkpt>
      <trkpt lat="44.40384" lon="1.7485">
        <ele>329.5</ele>
        <time>2022-06-05T16:17:18Z</time>
      </trkpt>
      <trkpt lat="44.40387" lon="1.74844">
        <ele>329.8</ele>
        <time>2022-06-05T16:17:23Z</time>
      </trkpt>
      <trkpt lat="44.40388" lon="1.74838">
        <ele>329.3</ele>
        <time>2022-06-05T16:17:28Z</time>
      </trkpt>
      <trkpt lat="44.40389" lon="1.74832">
        <ele>329.3</ele>
        <time>2022-06-05T16:17:33Z</time>
      </trkpt>
      <trkpt lat="44.40389" lon="1.74825">
        <ele>329.5</ele>
        <time>2022-06-05T16:17:38Z</time>
      </trkpt>
      <trkpt lat="44.40391" lon="1.74817">
        <ele>329.8</ele>
        <time>2022-06-05T16:17:43Z</time>
      </trkpt>
      <trkpt lat="44.40393" lon="1.7481">
        <ele>328.6</ele>
        <time>2022-06-05T16:17:48Z</time>
      </trkpt>
      <trkpt lat="44.40394" lon="1.74804">
        <ele>328</ele>
        <time>2022-06-05T16:17:52Z</time>
      </trkpt>
      <trkpt lat="44.40395" lon="1.74798">
        <ele>327.8</ele>
        <time>2022-06-05T16:17:56Z</time>
      </trkpt>
      <trkpt lat="44.40397" lon="1.74792">
        <ele>327.8</ele>
        <time>2022-06-05T16:18:00Z</time>
      </trkpt>
      <trkpt lat="44.40398" lon="1.74785">
        <ele>327.6</ele>
        <time>2022-06-05T16:18:05Z</time>
      </trkpt>
      <trkpt lat="44.404" lon="1.74778">
        <ele>327.6</ele>
        <time>2022-06-05T16:18:10Z</time>
      </trkpt>
      <trkpt lat="44.40401" lon="1.74771">
        <ele>327.1</ele>
        <time>2022-06-05T16:18:15Z</time>
      </trkpt>
      <trkpt lat="44.40403" lon="1.74764">
        <ele>326.9</ele>
        <time>2022-06-05T16:18:20Z</time>
      </trkpt>
      <trkpt lat="44.40404" lon="1.74757">
        <ele>326.3</ele>
        <time>2022-06-05T16:18:25Z</time>
      </trkpt>
      <trkpt lat="44.40405" lon="1.74749">
        <ele>325.7</ele>
        <time>2022-06-05T16:18:30Z</time>
      </trkpt>
      <trkpt lat="44.40406" lon="1.74742">
        <ele>325.6</ele>
        <time>2022-06-05T16:18:35Z</time>
      </trkpt>
      <trkpt lat="44.40407" lon="1.74735">
        <ele>325.2</ele>
        <time>2022-06-05T16:18:40Z</time>
      </trkpt>
      <trkpt lat="44.40408" lon="1.74728">
        <ele>325.1</ele>
        <time>2022-06-05T16:18:46Z</time>
      </trkpt>
      <trkpt lat="44.40409" lon="1.74721">
        <ele>324.8</ele>
        <time>2022-06-05T16:18:51Z</time>
      </trkpt>
      <trkpt lat="44.4041" lon="1.74715">
        <ele>324.8</ele>
        <time>2022-06-05T16:18:56Z</time>
      </trkpt>
      <trkpt lat="44.40412" lon="1.74708">
        <ele>324.3</ele>
        <time>2022-06-05T16:19:01Z</time>
      </trkpt>
      <trkpt lat="44.40413" lon="1.74701">
        <ele>323.8</ele>
        <time>2022-06-05T16:19:07Z</time>
      </trkpt>
      <trkpt lat="44.40414" lon="1.74694">
        <ele>323.4</ele>
        <time>2022-06-05T16:19:12Z</time>
      </trkpt>
      <trkpt lat="44.40415" lon="1.74687">
        <ele>323.6</ele>
        <time>2022-06-05T16:19:17Z</time>
      </trkpt>
      <trkpt lat="44.40417" lon="1.7468">
        <ele>322.5</ele>
        <time>2022-06-05T16:19:21Z</time>
      </trkpt>
      <trkpt lat="44.40418" lon="1.74673">
        <ele>321.4</ele>
        <time>2022-06-05T16:19:25Z</time>
      </trkpt>
      <trkpt lat="44.40419" lon="1.74667">
        <ele>320.6</ele>
        <time>2022-06-05T16:19:29Z</time>
      </trkpt>
      <trkpt lat="44.40421" lon="1.74659">
        <ele>320.2</ele>
        <time>2022-06-05T16:19:34Z</time>
      </trkpt>
      <trkpt lat="44.40421" lon="1.74652">
        <ele>319.7</ele>
        <time>2022-06-05T16:19:39Z</time>
      </trkpt>
      <trkpt lat="44.40422" lon="1.74645">
        <ele>319.4</ele>
        <time>2022-06-05T16:19:43Z</time>
      </trkpt>
      <trkpt lat="44.40423" lon="1.74638">
        <ele>319.4</ele>
        <time>2022-06-05T16:19:48Z</time>
      </trkpt>
      <trkpt lat="44.40423" lon="1.7463">
        <ele>319.4</ele>
        <time>2022-06-05T16:19:53Z</time>
      </trkpt>
      <trkpt lat="44.40424" lon="1.74623">
        <ele>319.9</ele>
        <time>2022-06-05T16:19:58Z</time>
      </trkpt>
      <trkpt lat="44.40425" lon="1.74615">
        <ele>319.4</ele>
        <time>2022-06-05T16:20:03Z</time>
      </trkpt>
      <trkpt lat="44.40425" lon="1.74608">
        <ele>318.7</ele>
        <time>2022-06-05T16:20:08Z</time>
      </trkpt>
      <trkpt lat="44.40426" lon="1.74601">
        <ele>318.3</ele>
        <time>2022-06-05T16:20:13Z</time>
      </trkpt>
      <trkpt lat="44.40427" lon="1.74593">
        <ele>318.4</ele>
        <time>2022-06-05T16:20:18Z</time>
      </trkpt>
      <trkpt lat="44.40428" lon="1.74586">
        <ele>317.7</ele>
        <time>2022-06-05T16:20:23Z</time>
      </trkpt>
      <trkpt lat="44.40428" lon="1.7458">
        <ele>317.5</ele>
        <time>2022-06-05T16:20:28Z</time>
      </trkpt>
      <trkpt lat="44.40429" lon="1.74573">
        <ele>317.2</ele>
        <time>2022-06-05T16:20:32Z</time>
      </trkpt>
      <trkpt lat="44.4043" lon="1.74566">
        <ele>316.5</ele>
        <time>2022-06-05T16:20:36Z</time>
      </trkpt>
      <trkpt lat="44.4043" lon="1.74559">
        <ele>316</ele>
        <time>2022-06-05T16:20:41Z</time>
      </trkpt>
      <trkpt lat="44.40431" lon="1.74553">
        <ele>315.4</ele>
        <time>2022-06-05T16:20:45Z</time>
      </trkpt>
      <trkpt lat="44.40431" lon="1.74546">
        <ele>314.8</ele>
        <time>2022-06-05T16:20:49Z</time>
      </trkpt>
      <trkpt lat="44.40431" lon="1.74539">
        <ele>313.8</ele>
        <time>2022-06-05T16:20:54Z</time>
      </trkpt>
      <trkpt lat="44.40431" lon="1.74532">
        <ele>313.6</ele>
        <time>2022-06-05T16:20:58Z</time>
      </trkpt>
      <trkpt lat="44.4043" lon="1.74526">
        <ele>313.1</ele>
        <time>2022-06-05T16:21:02Z</time>
      </trkpt>
      <trkpt lat="44.4043" lon="1.74519">
        <ele>313.2</ele>
        <time>2022-06-05T16:21:06Z</time>
      </trkpt>
      <trkpt lat="44.4043" lon="1.74513">
        <ele>313.2</ele>
        <time>2022-06-05T16:21:10Z</time>
      </trkpt>
      <trkpt lat="44.4043" lon="1.74506">
        <ele>313.3</ele>
        <time>2022-06-05T16:21:14Z</time>
      </trkpt>
      <trkpt lat="44.4043" lon="1.74499">
        <ele>313.5</ele>
        <time>2022-06-05T16:21:18Z</time>
      </trkpt>
      <trkpt lat="44.4043" lon="1.74492">
        <ele>313.7</ele>
        <time>2022-06-05T16:21:22Z</time>
      </trkpt>
      <trkpt lat="44.4043" lon="1.74485">
        <ele>314.3</ele>
        <time>2022-06-05T16:21:27Z</time>
      </trkpt>
      <trkpt lat="44.4043" lon="1.74478">
        <ele>314.3</ele>
        <time>2022-06-05T16:21:33Z</time>
      </trkpt>
      <trkpt lat="44.4043" lon="1.74472">
        <ele>314.2</ele>
        <time>2022-06-05T16:21:38Z</time>
      </trkpt>
      <trkpt lat="44.4043" lon="1.74465">
        <ele>313.6</ele>
        <time>2022-06-05T16:21:43Z</time>
      </trkpt>
      <trkpt lat="44.4043" lon="1.74457">
        <ele>313.4</ele>
        <time>2022-06-05T16:21:48Z</time>
      </trkpt>
      <trkpt lat="44.4043" lon="1.7445">
        <ele>313.3</ele>
        <time>2022-06-05T16:21:53Z</time>
      </trkpt>
      <trkpt lat="44.40429" lon="1.74443">
        <ele>312.7</ele>
        <time>2022-06-05T16:21:58Z</time>
      </trkpt>
      <trkpt lat="44.40428" lon="1.74436">
        <ele>312.9</ele>
        <time>2022-06-05T16:22:03Z</time>
      </trkpt>
      <trkpt lat="44.40427" lon="1.74429">
        <ele>313.3</ele>
        <time>2022-06-05T16:22:08Z</time>
      </trkpt>
      <trkpt lat="44.40426" lon="1.74422">
        <ele>313.2</ele>
        <time>2022-06-05T16:22:13Z</time>
      </trkpt>
      <trkpt lat="44.40425" lon="1.74415">
        <ele>312.9</ele>
        <time>2022-06-05T16:22:18Z</time>
      </trkpt>
      <trkpt lat="44.40424" lon="1.74408">
        <ele>313.3</ele>
        <time>2022-06-05T16:22:23Z</time>
      </trkpt>
      <trkpt lat="44.40422" lon="1.74401">
        <ele>313.4</ele>
        <time>2022-06-05T16:22:28Z</time>
      </trkpt>
      <trkpt lat="44.40421" lon="1.74394">
        <ele>313.3</ele>
        <time>2022-06-05T16:22:33Z</time>
      </trkpt>
      <trkpt lat="44.4042" lon="1.74386">
        <ele>312.9</ele>
        <time>2022-06-05T16:22:38Z</time>
      </trkpt>
      <trkpt lat="44.4042" lon="1.74379">
        <ele>312.6</ele>
        <time>2022-06-05T16:22:43Z</time>
      </trkpt>
      <trkpt lat="44.40418" lon="1.74373">
        <ele>312.1</ele>
        <time>2022-06-05T16:22:48Z</time>
      </trkpt>
      <trkpt lat="44.40417" lon="1.74366">
        <ele>311.8</ele>
        <time>2022-06-05T16:22:53Z</time>
      </trkpt>
      <trkpt lat="44.40416" lon="1.74359">
        <ele>311.6</ele>
        <time>2022-06-05T16:22:57Z</time>
      </trkpt>
      <trkpt lat="44.40416" lon="1.74352">
        <ele>311.3</ele>
        <time>2022-06-05T16:23:01Z</time>
      </trkpt>
      <trkpt lat="44.40415" lon="1.74345">
        <ele>311.2</ele>
        <time>2022-06-05T16:23:06Z</time>
      </trkpt>
      <trkpt lat="44.40415" lon="1.74338">
        <ele>311.1</ele>
        <time>2022-06-05T16:23:10Z</time>
      </trkpt>
      <trkpt lat="44.40415" lon="1.74332">
        <ele>310.4</ele>
        <time>2022-06-05T16:23:14Z</time>
      </trkpt>
      <trkpt lat="44.40416" lon="1.74324">
        <ele>309.8</ele>
        <time>2022-06-05T16:23:19Z</time>
      </trkpt>
      <trkpt lat="44.40416" lon="1.74318">
        <ele>309.8</ele>
        <time>2022-06-05T16:23:23Z</time>
      </trkpt>
      <trkpt lat="44.40417" lon="1.74311">
        <ele>309.9</ele>
        <time>2022-06-05T16:23:27Z</time>
      </trkpt>
      <trkpt lat="44.40417" lon="1.74304">
        <ele>309.9</ele>
        <time>2022-06-05T16:23:32Z</time>
      </trkpt>
      <trkpt lat="44.40417" lon="1.74296">
        <ele>309.7</ele>
        <time>2022-06-05T16:23:37Z</time>
      </trkpt>
      <trkpt lat="44.40418" lon="1.7429">
        <ele>310</ele>
        <time>2022-06-05T16:23:41Z</time>
      </trkpt>
      <trkpt lat="44.40419" lon="1.74282">
        <ele>310.4</ele>
        <time>2022-06-05T16:23:46Z</time>
      </trkpt>
      <trkpt lat="44.4042" lon="1.74275">
        <ele>310.7</ele>
        <time>2022-06-05T16:23:51Z</time>
      </trkpt>
      <trkpt lat="44.40421" lon="1.74269">
        <ele>310.5</ele>
        <time>2022-06-05T16:23:55Z</time>
      </trkpt>
      <trkpt lat="44.40423" lon="1.74263">
        <ele>310</ele>
        <time>2022-06-05T16:23:59Z</time>
      </trkpt>
      <trkpt lat="44.40425" lon="1.74256">
        <ele>309.1</ele>
        <time>2022-06-05T16:24:04Z</time>
      </trkpt>
      <trkpt lat="44.40427" lon="1.74248">
        <ele>309.3</ele>
        <time>2022-06-05T16:24:09Z</time>
      </trkpt>
      <trkpt lat="44.40429" lon="1.74241">
        <ele>309</ele>
        <time>2022-06-05T16:24:14Z</time>
      </trkpt>
      <trkpt lat="44.4043" lon="1.74234">
        <ele>308.6</ele>
        <time>2022-06-05T16:24:19Z</time>
      </trkpt>
      <trkpt lat="44.4043" lon="1.74227">
        <ele>308.3</ele>
        <time>2022-06-05T16:24:24Z</time>
      </trkpt>
      <trkpt lat="44.40431" lon="1.7422">
        <ele>307.7</ele>
        <time>2022-06-05T16:24:29Z</time>
      </trkpt>
      <trkpt lat="44.40432" lon="1.74214">
        <ele>307.3</ele>
        <time>2022-06-05T16:24:33Z</time>
      </trkpt>
      <trkpt lat="44.40434" lon="1.74207">
        <ele>306.9</ele>
        <time>2022-06-05T16:24:37Z</time>
      </trkpt>
      <trkpt lat="44.40437" lon="1.74201">
        <ele>306.4</ele>
        <time>2022-06-05T16:24:41Z</time>
      </trkpt>
      <trkpt lat="44.40439" lon="1.74194">
        <ele>306.5</ele>
        <time>2022-06-05T16:24:46Z</time>
      </trkpt>
      <trkpt lat="44.4044" lon="1.74187">
        <ele>306.3</ele>
        <time>2022-06-05T16:24:51Z</time>
      </trkpt>
      <trkpt lat="44.40441" lon="1.7418">
        <ele>306</ele>
        <time>2022-06-05T16:24:56Z</time>
      </trkpt>
      <trkpt lat="44.40442" lon="1.74174">
        <ele>305.5</ele>
        <time>2022-06-05T16:25:00Z</time>
      </trkpt>
      <trkpt lat="44.40444" lon="1.74167">
        <ele>305.1</ele>
        <time>2022-06-05T16:25:04Z</time>
      </trkpt>
      <trkpt lat="44.40446" lon="1.74162">
        <ele>304.6</ele>
        <time>2022-06-05T16:25:08Z</time>
      </trkpt>
      <trkpt lat="44.40449" lon="1.74156">
        <ele>304.1</ele>
        <time>2022-06-05T16:25:12Z</time>
      </trkpt>
      <trkpt lat="44.40452" lon="1.74151">
        <ele>303.9</ele>
        <time>2022-06-05T16:25:16Z</time>
      </trkpt>
      <trkpt lat="44.40455" lon="1.74145">
        <ele>303.3</ele>
        <time>2022-06-05T16:25:21Z</time>
      </trkpt>
      <trkpt lat="44.40458" lon="1.74139">
        <ele>302.5</ele>
        <time>2022-06-05T16:25:26Z</time>
      </trkpt>
      <trkpt lat="44.40461" lon="1.74132">
        <ele>302.5</ele>
        <time>2022-06-05T16:25:31Z</time>
      </trkpt>
      <trkpt lat="44.40463" lon="1.74126">
        <ele>302.5</ele>
        <time>2022-06-05T16:25:36Z</time>
      </trkpt>
      <trkpt lat="44.40466" lon="1.74119">
        <ele>302.7</ele>
        <time>2022-06-05T16:25:41Z</time>
      </trkpt>
      <trkpt lat="44.40468" lon="1.74112">
        <ele>303.6</ele>
        <time>2022-06-05T16:25:46Z</time>
      </trkpt>
      <trkpt lat="44.4047" lon="1.74106">
        <ele>303.8</ele>
        <time>2022-06-05T16:25:50Z</time>
      </trkpt>
      <trkpt lat="44.40472" lon="1.74101">
        <ele>303.5</ele>
        <time>2022-06-05T16:25:54Z</time>
      </trkpt>
      <trkpt lat="44.40475" lon="1.74095">
        <ele>303</ele>
        <time>2022-06-05T16:25:58Z</time>
      </trkpt>
      <trkpt lat="44.40478" lon="1.74089">
        <ele>302.3</ele>
        <time>2022-06-05T16:26:02Z</time>
      </trkpt>
      <trkpt lat="44.40481" lon="1.74082">
        <ele>302.3</ele>
        <time>2022-06-05T16:26:07Z</time>
      </trkpt>
      <trkpt lat="44.40484" lon="1.74076">
        <ele>302.1</ele>
        <time>2022-06-05T16:26:12Z</time>
      </trkpt>
      <trkpt lat="44.40486" lon="1.74069">
        <ele>302.1</ele>
        <time>2022-06-05T16:26:17Z</time>
      </trkpt>
      <trkpt lat="44.4049" lon="1.74063">
        <ele>301.8</ele>
        <time>2022-06-05T16:26:22Z</time>
      </trkpt>
      <trkpt lat="44.40492" lon="1.74057">
        <ele>301.6</ele>
        <time>2022-06-05T16:26:26Z</time>
      </trkpt>
      <trkpt lat="44.40494" lon="1.74052">
        <ele>301.5</ele>
        <time>2022-06-05T16:26:30Z</time>
      </trkpt>
      <trkpt lat="44.40497" lon="1.74046">
        <ele>301</ele>
        <time>2022-06-05T16:26:34Z</time>
      </trkpt>
      <trkpt lat="44.40499" lon="1.74041">
        <ele>300.6</ele>
        <time>2022-06-05T16:26:38Z</time>
      </trkpt>
      <trkpt lat="44.40501" lon="1.74035">
        <ele>300.2</ele>
        <time>2022-06-05T16:26:42Z</time>
      </trkpt>
      <trkpt lat="44.40503" lon="1.74029">
        <ele>300.4</ele>
        <time>2022-06-05T16:26:46Z</time>
      </trkpt>
      <trkpt lat="44.40506" lon="1.74022">
        <ele>300</ele>
        <time>2022-06-05T16:26:51Z</time>
      </trkpt>
      <trkpt lat="44.40509" lon="1.74016">
        <ele>299.9</ele>
        <time>2022-06-05T16:26:56Z</time>
      </trkpt>
      <trkpt lat="44.40511" lon="1.74009">
        <ele>300.1</ele>
        <time>2022-06-05T16:27:01Z</time>
      </trkpt>
      <trkpt lat="44.40513" lon="1.74003">
        <ele>299.9</ele>
        <time>2022-06-05T16:27:05Z</time>
      </trkpt>
      <trkpt lat="44.40514" lon="1.73996">
        <ele>300</ele>
        <time>2022-06-05T16:27:09Z</time>
      </trkpt>
      <trkpt lat="44.40515" lon="1.7399">
        <ele>300.7</ele>
        <time>2022-06-05T16:27:13Z</time>
      </trkpt>
      <trkpt lat="44.40516" lon="1.73984">
        <ele>301.2</ele>
        <time>2022-06-05T16:27:17Z</time>
      </trkpt>
      <trkpt lat="44.40516" lon="1.73977">
        <ele>301.5</ele>
        <time>2022-06-05T16:27:21Z</time>
      </trkpt>
      <trkpt lat="44.40517" lon="1.7397">
        <ele>301.4</ele>
        <time>2022-06-05T16:27:25Z</time>
      </trkpt>
      <trkpt lat="44.40518" lon="1.73963">
        <ele>301.6</ele>
        <time>2022-06-05T16:27:29Z</time>
      </trkpt>
      <trkpt lat="44.40518" lon="1.73957">
        <ele>301.7</ele>
        <time>2022-06-05T16:27:33Z</time>
      </trkpt>
      <trkpt lat="44.40519" lon="1.7395">
        <ele>301.4</ele>
        <time>2022-06-05T16:27:37Z</time>
      </trkpt>
      <trkpt lat="44.40521" lon="1.73943">
        <ele>300.7</ele>
        <time>2022-06-05T16:27:42Z</time>
      </trkpt>
      <trkpt lat="44.40523" lon="1.73936">
        <ele>300.4</ele>
        <time>2022-06-05T16:27:47Z</time>
      </trkpt>
      <trkpt lat="44.40525" lon="1.73929">
        <ele>300.4</ele>
        <time>2022-06-05T16:27:52Z</time>
      </trkpt>
      <trkpt lat="44.40527" lon="1.73924">
        <ele>300.8</ele>
        <time>2022-06-05T16:27:56Z</time>
      </trkpt>
      <trkpt lat="44.4053" lon="1.73917">
        <ele>301.1</ele>
        <time>2022-06-05T16:28:01Z</time>
      </trkpt>
      <trkpt lat="44.40531" lon="1.73911">
        <ele>300.8</ele>
        <time>2022-06-05T16:28:05Z</time>
      </trkpt>
      <trkpt lat="44.40533" lon="1.73905">
        <ele>300.7</ele>
        <time>2022-06-05T16:28:09Z</time>
      </trkpt>
      <trkpt lat="44.40535" lon="1.73898">
        <ele>300.6</ele>
        <time>2022-06-05T16:28:14Z</time>
      </trkpt>
      <trkpt lat="44.40536" lon="1.7389">
        <ele>301.1</ele>
        <time>2022-06-05T16:28:19Z</time>
      </trkpt>
      <trkpt lat="44.40537" lon="1.73883">
        <ele>301</ele>
        <time>2022-06-05T16:28:24Z</time>
      </trkpt>
      <trkpt lat="44.40539" lon="1.73877">
        <ele>301.1</ele>
        <time>2022-06-05T16:28:28Z</time>
      </trkpt>
      <trkpt lat="44.4054" lon="1.73871">
        <ele>301.3</ele>
        <time>2022-06-05T16:28:32Z</time>
      </trkpt>
      <trkpt lat="44.40541" lon="1.73864">
        <ele>301.1</ele>
        <time>2022-06-05T16:28:36Z</time>
      </trkpt>
      <trkpt lat="44.40543" lon="1.73857">
        <ele>300.9</ele>
        <time>2022-06-05T16:28:41Z</time>
      </trkpt>
      <trkpt lat="44.40544" lon="1.73851">
        <ele>301.1</ele>
        <time>2022-06-05T16:28:45Z</time>
      </trkpt>
      <trkpt lat="44.40546" lon="1.73844">
        <ele>301.2</ele>
        <time>2022-06-05T16:28:49Z</time>
      </trkpt>
      <trkpt lat="44.40548" lon="1.73837">
        <ele>301.3</ele>
        <time>2022-06-05T16:28:54Z</time>
      </trkpt>
      <trkpt lat="44.40551" lon="1.7383">
        <ele>301.6</ele>
        <time>2022-06-05T16:28:59Z</time>
      </trkpt>
      <trkpt lat="44.40553" lon="1.73824">
        <ele>301.4</ele>
        <time>2022-06-05T16:29:03Z</time>
      </trkpt>
      <trkpt lat="44.40556" lon="1.73818">
        <ele>301.7</ele>
        <time>2022-06-05T16:29:08Z</time>
      </trkpt>
      <trkpt lat="44.40559" lon="1.73812">
        <ele>301.2</ele>
        <time>2022-06-05T16:29:13Z</time>
      </trkpt>
      <trkpt lat="44.40561" lon="1.73806">
        <ele>301.1</ele>
        <time>2022-06-05T16:29:17Z</time>
      </trkpt>
      <trkpt lat="44.40564" lon="1.73799">
        <ele>300.6</ele>
        <time>2022-06-05T16:29:22Z</time>
      </trkpt>
      <trkpt lat="44.40566" lon="1.73792">
        <ele>300.1</ele>
        <time>2022-06-05T16:29:27Z</time>
      </trkpt>
      <trkpt lat="44.40567" lon="1.73785">
        <ele>299.2</ele>
        <time>2022-06-05T16:29:32Z</time>
      </trkpt>
      <trkpt lat="44.40568" lon="1.73778">
        <ele>298.3</ele>
        <time>2022-06-05T16:29:36Z</time>
      </trkpt>
      <trkpt lat="44.4057" lon="1.73772">
        <ele>297.5</ele>
        <time>2022-06-05T16:29:40Z</time>
      </trkpt>
      <trkpt lat="44.40571" lon="1.73766">
        <ele>296.6</ele>
        <time>2022-06-05T16:29:44Z</time>
      </trkpt>
      <trkpt lat="44.40573" lon="1.7376">
        <ele>295.9</ele>
        <time>2022-06-05T16:29:48Z</time>
      </trkpt>
      <trkpt lat="44.40575" lon="1.73754">
        <ele>295.2</ele>
        <time>2022-06-05T16:29:52Z</time>
      </trkpt>
      <trkpt lat="44.40577" lon="1.73748">
        <ele>294.7</ele>
        <time>2022-06-05T16:29:56Z</time>
      </trkpt>
      <trkpt lat="44.4058" lon="1.73742">
        <ele>294.5</ele>
        <time>2022-06-05T16:30:01Z</time>
      </trkpt>
      <trkpt lat="44.40582" lon="1.73736">
        <ele>294.4</ele>
        <time>2022-06-05T16:30:05Z</time>
      </trkpt>
      <trkpt lat="44.40585" lon="1.73731">
        <ele>294.5</ele>
        <time>2022-06-05T16:30:09Z</time>
      </trkpt>
      <trkpt lat="44.40587" lon="1.73725">
        <ele>295</ele>
        <time>2022-06-05T16:30:13Z</time>
      </trkpt>
      <trkpt lat="44.4059" lon="1.73719">
        <ele>295.8</ele>
        <time>2022-06-05T16:30:17Z</time>
      </trkpt>
      <trkpt lat="44.40593" lon="1.73713">
        <ele>296.6</ele>
        <time>2022-06-05T16:30:21Z</time>
      </trkpt>
      <trkpt lat="44.40595" lon="1.73708">
        <ele>297.1</ele>
        <time>2022-06-05T16:30:25Z</time>
      </trkpt>
      <trkpt lat="44.40598" lon="1.73703">
        <ele>297.4</ele>
        <time>2022-06-05T16:30:29Z</time>
      </trkpt>
      <trkpt lat="44.40601" lon="1.73698">
        <ele>297.4</ele>
        <time>2022-06-05T16:30:33Z</time>
      </trkpt>
      <trkpt lat="44.40605" lon="1.73693">
        <ele>297.5</ele>
        <time>2022-06-05T16:30:37Z</time>
      </trkpt>
      <trkpt lat="44.40608" lon="1.73689">
        <ele>297.4</ele>
        <time>2022-06-05T16:30:41Z</time>
      </trkpt>
      <trkpt lat="44.40612" lon="1.73685">
        <ele>297.4</ele>
        <time>2022-06-05T16:30:45Z</time>
      </trkpt>
      <trkpt lat="44.40617" lon="1.73681">
        <ele>297.5</ele>
        <time>2022-06-05T16:30:50Z</time>
      </trkpt>
      <trkpt lat="44.40621" lon="1.73677">
        <ele>297.6</ele>
        <time>2022-06-05T16:30:55Z</time>
      </trkpt>
      <trkpt lat="44.40625" lon="1.73672">
        <ele>297.7</ele>
        <time>2022-06-05T16:31:00Z</time>
      </trkpt>
      <trkpt lat="44.40628" lon="1.73667">
        <ele>297.8</ele>
        <time>2022-06-05T16:31:05Z</time>
      </trkpt>
      <trkpt lat="44.40632" lon="1.73662">
        <ele>297.9</ele>
        <time>2022-06-05T16:31:10Z</time>
      </trkpt>
      <trkpt lat="44.40635" lon="1.73657">
        <ele>297.8</ele>
        <time>2022-06-05T16:31:15Z</time>
      </trkpt>
      <trkpt lat="44.40638" lon="1.73652">
        <ele>298</ele>
        <time>2022-06-05T16:31:20Z</time>
      </trkpt>
      <trkpt lat="44.40639" lon="1.73645">
        <ele>299.5</ele>
        <time>2022-06-05T16:31:25Z</time>
      </trkpt>
      <trkpt lat="44.40641" lon="1.73639">
        <ele>300.8</ele>
        <time>2022-06-05T16:31:30Z</time>
      </trkpt>
      <trkpt lat="44.40644" lon="1.73634">
        <ele>301.6</ele>
        <time>2022-06-05T16:31:35Z</time>
      </trkpt>
      <trkpt lat="44.40648" lon="1.73631">
        <ele>302.2</ele>
        <time>2022-06-05T16:31:40Z</time>
      </trkpt>
      <trkpt lat="44.40653" lon="1.73629">
        <ele>303.3</ele>
        <time>2022-06-05T16:31:46Z</time>
      </trkpt>
      <trkpt lat="44.40658" lon="1.7363">
        <ele>303.3</ele>
        <time>2022-06-05T16:31:51Z</time>
      </trkpt>
      <trkpt lat="44.40655" lon="1.73625">
        <ele>307.7</ele>
        <time>2022-06-05T16:36:15Z</time>
      </trkpt>
      <trkpt lat="44.40659" lon="1.73623">
        <ele>310</ele>
        <time>2022-06-05T16:36:25Z</time>
      </trkpt>
      <trkpt lat="44.40664" lon="1.73625">
        <ele>310.4</ele>
        <time>2022-06-05T16:36:30Z</time>
      </trkpt>
      <trkpt lat="44.40669" lon="1.73623">
        <ele>310.7</ele>
        <time>2022-06-05T16:36:40Z</time>
      </trkpt>
      <trkpt lat="44.4067" lon="1.73617">
        <ele>311</ele>
        <time>2022-06-05T16:37:08Z</time>
      </trkpt>
      <trkpt lat="44.4067" lon="1.7361">
        <ele>310.7</ele>
        <time>2022-06-05T16:37:14Z</time>
      </trkpt>
      <trkpt lat="44.40673" lon="1.73604">
        <ele>310.7</ele>
        <time>2022-06-05T16:37:20Z</time>
      </trkpt>
      <trkpt lat="44.40677" lon="1.736">
        <ele>310.3</ele>
        <time>2022-06-05T16:37:25Z</time>
      </trkpt>
      <trkpt lat="44.40681" lon="1.73596">
        <ele>309.8</ele>
        <time>2022-06-05T16:37:30Z</time>
      </trkpt>
      <trkpt lat="44.40686" lon="1.73593">
        <ele>309.3</ele>
        <time>2022-06-05T16:37:35Z</time>
      </trkpt>
      <trkpt lat="44.40691" lon="1.73589">
        <ele>309.2</ele>
        <time>2022-06-05T16:37:40Z</time>
      </trkpt>
      <trkpt lat="44.40695" lon="1.73585">
        <ele>309.2</ele>
        <time>2022-06-05T16:37:45Z</time>
      </trkpt>
      <trkpt lat="44.40699" lon="1.7358">
        <ele>309.5</ele>
        <time>2022-06-05T16:37:51Z</time>
      </trkpt>
      <trkpt lat="44.40703" lon="1.73577">
        <ele>309.9</ele>
        <time>2022-06-05T16:37:56Z</time>
      </trkpt>
      <trkpt lat="44.40707" lon="1.73573">
        <ele>310</ele>
        <time>2022-06-05T16:38:02Z</time>
      </trkpt>
      <trkpt lat="44.40711" lon="1.73569">
        <ele>310.5</ele>
        <time>2022-06-05T16:38:08Z</time>
      </trkpt>
      <trkpt lat="44.40714" lon="1.73563">
        <ele>311.6</ele>
        <time>2022-06-05T16:38:15Z</time>
      </trkpt>
      <trkpt lat="44.40718" lon="1.73562">
        <ele>313.9</ele>
        <time>2022-06-05T16:38:30Z</time>
      </trkpt>
      <trkpt lat="44.40722" lon="1.73569">
        <ele>312.7</ele>
        <time>2022-06-05T16:38:34Z</time>
      </trkpt>
      <trkpt lat="44.40727" lon="1.73571">
        <ele>314</ele>
        <time>2022-06-05T16:38:56Z</time>
      </trkpt>
      <trkpt lat="44.40732" lon="1.73575">
        <ele>314.3</ele>
        <time>2022-06-05T16:39:01Z</time>
      </trkpt>
      <trkpt lat="44.40736" lon="1.73578">
        <ele>314.8</ele>
        <time>2022-06-05T16:39:06Z</time>
      </trkpt>
      <trkpt lat="44.40741" lon="1.73581">
        <ele>316.1</ele>
        <time>2022-06-05T16:39:11Z</time>
      </trkpt>
      <trkpt lat="44.40745" lon="1.73584">
        <ele>317.3</ele>
        <time>2022-06-05T16:39:16Z</time>
      </trkpt>
      <trkpt lat="44.40749" lon="1.73587">
        <ele>318.3</ele>
        <time>2022-06-05T16:39:21Z</time>
      </trkpt>
      <trkpt lat="44.40754" lon="1.7359">
        <ele>318.7</ele>
        <time>2022-06-05T16:39:26Z</time>
      </trkpt>
      <trkpt lat="44.40758" lon="1.73593">
        <ele>319.2</ele>
        <time>2022-06-05T16:39:31Z</time>
      </trkpt>
      <trkpt lat="44.40763" lon="1.73597">
        <ele>319.8</ele>
        <time>2022-06-05T16:39:36Z</time>
      </trkpt>
      <trkpt lat="44.40768" lon="1.73599">
        <ele>320.5</ele>
        <time>2022-06-05T16:39:41Z</time>
      </trkpt>
      <trkpt lat="44.40773" lon="1.73602">
        <ele>320.6</ele>
        <time>2022-06-05T16:39:46Z</time>
      </trkpt>
      <trkpt lat="44.40778" lon="1.73603">
        <ele>320.7</ele>
        <time>2022-06-05T16:39:51Z</time>
      </trkpt>
      <trkpt lat="44.40784" lon="1.73603">
        <ele>320.7</ele>
        <time>2022-06-05T16:39:56Z</time>
      </trkpt>
      <trkpt lat="44.40789" lon="1.73602">
        <ele>321.2</ele>
        <time>2022-06-05T16:40:01Z</time>
      </trkpt>
      <trkpt lat="44.40794" lon="1.736">
        <ele>321.8</ele>
        <time>2022-06-05T16:40:07Z</time>
      </trkpt>
      <trkpt lat="44.40799" lon="1.73599">
        <ele>321.7</ele>
        <time>2022-06-05T16:40:12Z</time>
      </trkpt>
      <trkpt lat="44.40803" lon="1.73597">
        <ele>321.8</ele>
        <time>2022-06-05T16:40:17Z</time>
      </trkpt>
      <trkpt lat="44.40808" lon="1.73594">
        <ele>321.9</ele>
        <time>2022-06-05T16:40:22Z</time>
      </trkpt>
      <trkpt lat="44.40813" lon="1.73593">
        <ele>321.9</ele>
        <time>2022-06-05T16:40:27Z</time>
      </trkpt>
      <trkpt lat="44.40818" lon="1.73592">
        <ele>321.9</ele>
        <time>2022-06-05T16:40:32Z</time>
      </trkpt>
      <trkpt lat="44.40823" lon="1.73592">
        <ele>322.1</ele>
        <time>2022-06-05T16:40:37Z</time>
      </trkpt>
      <trkpt lat="44.40828" lon="1.73592">
        <ele>322.7</ele>
        <time>2022-06-05T16:40:42Z</time>
      </trkpt>
      <trkpt lat="44.40832" lon="1.73588">
        <ele>323.7</ele>
        <time>2022-06-05T16:40:51Z</time>
      </trkpt>
      <trkpt lat="44.40832" lon="1.73595">
        <ele>324</ele>
        <time>2022-06-05T16:41:59Z</time>
      </trkpt>
      <trkpt lat="44.40836" lon="1.736">
        <ele>325</ele>
        <time>2022-06-05T16:42:04Z</time>
      </trkpt>
      <trkpt lat="44.40839" lon="1.73605">
        <ele>326</ele>
        <time>2022-06-05T16:42:10Z</time>
      </trkpt>
      <trkpt lat="44.40844" lon="1.73609">
        <ele>326.2</ele>
        <time>2022-06-05T16:42:16Z</time>
      </trkpt>
      <trkpt lat="44.40848" lon="1.73609">
        <ele>325.5</ele>
        <time>2022-06-05T16:42:23Z</time>
      </trkpt>
      <trkpt lat="44.40853" lon="1.73608">
        <ele>324.4</ele>
        <time>2022-06-05T16:42:37Z</time>
      </trkpt>
      <trkpt lat="44.40858" lon="1.73605">
        <ele>324.5</ele>
        <time>2022-06-05T16:42:44Z</time>
      </trkpt>
      <trkpt lat="44.40862" lon="1.73602">
        <ele>325</ele>
        <time>2022-06-05T16:42:50Z</time>
      </trkpt>
      <trkpt lat="44.40867" lon="1.73599">
        <ele>326.3</ele>
        <time>2022-06-05T16:42:57Z</time>
      </trkpt>
      <trkpt lat="44.4087" lon="1.73594">
        <ele>327.6</ele>
        <time>2022-06-05T16:43:03Z</time>
      </trkpt>
      <trkpt lat="44.40874" lon="1.7359">
        <ele>329.1</ele>
        <time>2022-06-05T16:43:33Z</time>
      </trkpt>
      <trkpt lat="44.40872" lon="1.73584">
        <ele>330.9</ele>
        <time>2022-06-05T16:43:40Z</time>
      </trkpt>
      <trkpt lat="44.40869" lon="1.73579">
        <ele>330</ele>
        <time>2022-06-05T16:43:45Z</time>
      </trkpt>
      <trkpt lat="44.40865" lon="1.73582">
        <ele>329.6</ele>
        <time>2022-06-05T16:43:57Z</time>
      </trkpt>
      <trkpt lat="44.40864" lon="1.73576">
        <ele>330</ele>
        <time>2022-06-05T16:44:10Z</time>
      </trkpt>
      <trkpt lat="44.40864" lon="1.73568">
        <ele>330.4</ele>
        <time>2022-06-05T16:44:16Z</time>
      </trkpt>
      <trkpt lat="44.40866" lon="1.73562">
        <ele>329.6</ele>
        <time>2022-06-05T16:44:21Z</time>
      </trkpt>
    </trkseg>
  </trk>
</gpx>